[[{"header":{"parameterUnit":"m.s-1","parameterCategory":1,"la1":30.6,"la2":29.2853,"lo1":-89.7004,"lo2":-87.6739,"dy":0.0162,"dx":0.0183,"nx":112,"ny":82,"refTime":"2024-08-15T18:00:00:Z","depth":0,"parameterNumber":2,"parameterNumberName":"U-component_of_WINDS"},"data":[0.0,0.0,0.0,0.0,0.0,0.0,0.0,0.0,0.0,0.0,0.0,0.0,0.0,0.0,0.0,0.0,0.0,0.0,0.0,0.0,0.0,0.0,0.0,0.0,0.0,0.0,0.0,0.0,0.0,0.0,0.0,0.0,0.0,0.0,0.0,0.0,0.0,0.0,0.0,0.0,0.0,0.0,0.0,0.0,0.0,0.0,0.0,0.0,0.0,0.0,0.0,0.0,0.0,0.0,0.0,0.0,0.0,0.0,0.0,0.0,0.0,0.0,0.0,0.0,0.0,0.0,0.0,0.0,0.0,0.0,0.0,0.0,0.0,0.0,0.0,0.0,0.0,0.0,0.0,0.0,0.0,0.0,0.0,0.0,0.0,0.0,0.0,0.0,0.0,0.0,0.0,3.4814,3.8373,4.1143,4.2758,4.0566,3.7334,3.316,0.0,0.0,0.0,0.0,0.0,0.0,0.0,0.0,0.0,0.0,0.0,0.0,0.0,0.0,0.0,0.0,0.0,0.0,0.0,0.0,0.0,0.0,0.0,0.0,0.0,0.0,0.0,0.0,0.0,0.0,0.0,0.0,0.0,0.0,0.0,0.0,0.0,0.0,0.0,0.0,0.0,0.0,0.0,0.0,0.0,0.0,0.0,0.0,0.0,0.0,0.0,0.0,0.0,0.0,0.0,0.0,0.0,0.0,0.0,0.0,0.0,0.0,0.0,0.0,0.0,0.0,0.0,0.0,0.0,0.0,0.0,0.0,0.0,0.0,0.0,0.0,0.0,0.0,0.0,0.0,0.0,0.0,0.0,0.0,0.0,0.0,0.0,0.0,0.0,0.0,0.0,0.0,0.0,0.0,0.0,0.0,0.0,0.0,0.0,0.0,0.0,0.0,0.0,0.0,3.1929,3.8796,4.0104,4.0912,4.1912,3.9662,3.668,3.3122,0.0,0.0,0.0,0.0,0.0,0.0,0.0,0.0,0.0,0.0,0.0,0.0,0.0,0.0,0.0,0.0,0.0,0.0,0.0,0.0,0.0,0.0,0.0,0.0,0.0,0.0,0.0,0.0,0.0,0.0,0.0,0.0,0.0,0.0,0.0,0.0,0.0,0.0,0.0,0.0,0.0,0.0,0.0,0.0,0.0,0.0,0.0,0.0,0.0,0.0,0.0,0.0,0.0,0.0,0.0,0.0,0.0,0.0,0.0,0.0,0.0,0.0,0.0,0.0,0.0,0.0,0.0,0.0,0.0,0.0,0.0,0.0,0.0,0.0,0.0,0.0,0.0,0.0,0.0,0.0,0.0,0.0,0.0,0.0,0.0,0.0,0.0,0.0,0.0,0.0,0.0,0.0,0.0,0.0,0.0,0.0,0.0,0.0,0.0,0.0,0.0,0.0,0.0,3.0948,3.4257,4.0546,4.0777,4.0854,4.1739,3.9469,3.6546,3.3122,2.966,0.0,0.0,0.0,0.0,0.0,0.0,0.0,0.0,0.0,0.0,0.0,0.0,0.0,0.0,0.0,0.0,0.0,0.0,0.0,0.0,0.0,0.0,0.0,0.0,0.0,0.0,0.0,0.0,0.0,0.0,0.0,0.0,0.0,0.0,0.0,0.0,0.0,0.0,0.0,0.0,0.0,0.0,0.0,0.0,0.0,0.0,0.0,0.0,0.0,0.0,0.0,0.0,0.0,0.0,0.0,0.0,0.0,0.0,0.0,0.0,0.0,0.0,0.0,0.0,0.0,0.0,0.0,0.0,0.0,0.0,0.0,0.0,0.0,0.0,0.0,0.0,0.0,0.0,0.0,0.0,0.0,0.0,0.0,0.0,0.0,0.0,0.0,0.0,0.0,0.0,0.0,0.0,0.0,0.0,0.0,0.0,0.0,0.0,0.0,0.0,0.0,0.0,3.4891,3.6738,4.1046,4.0893,4.0758,4.145,3.8988,3.6122,3.3083,2.8563,0.0,0.0,0.0,0.0,0.0,0.0,0.0,0.0,0.0,0.0,0.0,0.0,0.0,0.0,0.0,0.0,0.0,0.0,0.0,0.0,0.0,0.0,0.0,0.0,0.0,0.0,0.0,0.0,0.0,0.0,0.0,0.0,0.0,0.0,0.0,0.0,0.0,0.0,0.0,0.0,0.0,0.0,0.0,0.0,0.0,0.0,0.0,0.0,0.0,0.0,0.0,0.0,0.0,0.0,0.0,0.0,0.0,0.0,0.0,0.0,0.0,0.0,0.0,0.0,0.0,0.0,0.0,0.0,0.0,0.0,0.0,0.0,0.0,0.0,0.0,0.0,0.0,0.0,0.0,0.0,0.0,0.0,0.0,0.0,0.0,0.0,0.0,0.0,0.0,0.0,0.0,0.0,0.0,0.0,0.0,0.0,0.0,0.0,0.0,0.0,0.0,0.0,3.5334,3.8469,4.0392,4.0527,4.0508,4.0585,3.7565,3.4891,3.3026,2.7467,0.0,0.0,0.0,0.0,0.0,0.0,0.0,0.0,0.0,0.0,0.0,0.0,0.0,0.0,0.0,0.0,0.0,0.0,0.0,0.0,0.0,0.0,0.0,0.0,0.0,0.0,0.0,0.0,0.0,0.0,0.0,0.0,0.0,0.0,0.0,0.0,0.0,0.0,0.0,0.0,0.0,0.0,0.0,0.0,0.0,0.0,0.0,0.0,0.0,0.0,0.0,0.0,0.0,0.0,0.0,0.0,0.0,0.0,0.0,0.0,0.0,0.0,0.0,0.0,0.0,0.0,0.0,0.0,0.0,0.0,0.0,0.0,0.0,0.0,0.0,0.0,0.0,0.0,0.0,0.0,0.0,0.0,0.0,0.0,0.0,0.0,0.0,0.0,0.0,0.0,0.0,0.0,0.0,0.0,0.0,0.0,0.0,0.0,0.0,0.0,0.0,0.0,3.4795,3.7488,0.0,4.0489,4.0489,4.0489,3.7892,3.5084,3.2333,0.0,0.0,0.0,0.0,0.0,0.0,0.0,0.0,0.0,0.0,0.0,0.0,0.0,0.0,0.0,0.0,0.0,0.0,0.0,0.0,0.0,0.0,0.0,0.0,0.0,0.0,0.0,0.0,0.0,0.0,0.0,0.0,0.0,0.0,0.0,0.0,0.0,0.0,0.0,0.0,0.0,0.0,0.0,0.0,0.0,0.0,0.0,0.0,0.0,0.0,0.0,0.0,0.0,0.0,0.0,0.0,0.0,0.0,0.0,0.0,0.0,0.0,0.0,0.0,0.0,0.0,0.0,0.0,0.0,0.0,0.0,0.0,0.0,0.0,0.0,0.0,0.0,0.0,0.0,0.0,0.0,0.0,0.0,0.0,0.0,0.0,0.0,0.0,0.0,0.0,0.0,0.0,0.0,0.0,0.0,0.0,0.0,0.0,0.0,0.0,0.0,0.0,3.2102,3.4891,3.7373,0.0,4.0489,4.0489,4.0489,3.768,3.4699,3.1891,0.0,0.0,0.0,0.0,0.0,0.0,0.0,0.0,0.0,0.0,0.0,0.0,0.0,0.0,0.0,0.0,0.0,0.0,0.0,0.0,0.0,0.0,0.0,0.0,0.0,0.0,0.0,0.0,0.0,0.0,0.0,0.0,0.0,0.0,0.0,0.0,0.0,0.0,0.0,0.0,0.0,0.0,0.0,0.0,0.0,0.0,0.0,0.0,0.0,0.0,0.0,0.0,0.0,0.0,0.0,0.0,0.0,0.0,0.0,0.0,0.0,0.0,0.0,0.0,0.0,0.0,0.0,0.0,0.0,0.0,0.0,0.0,0.0,0.0,0.0,0.0,0.0,0.0,0.0,0.0,0.0,0.0,0.0,0.0,0.0,0.0,0.0,0.0,0.0,0.0,0.0,0.0,0.0,0.0,0.0,0.0,0.0,0.0,0.0,0.0,0.0,0.0,3.2237,3.5892,3.8642,4.0315,4.0489,4.0489,4.0489,3.6642,3.3487,0.0,0.0,0.0,0.0,0.0,0.0,0.0,0.0,0.0,0.0,0.0,0.0,0.0,0.0,0.0,0.0,0.0,0.0,0.0,0.0,0.0,0.0,0.0,0.0,0.0,0.0,0.0,0.0,0.0,0.0,0.0,0.0,0.0,0.0,0.0,0.0,0.0,0.0,0.0,0.0,0.0,0.0,0.0,0.0,0.0,0.0,0.0,0.0,0.0,0.0,0.0,0.0,0.0,0.0,0.0,0.0,0.0,0.0,0.0,0.0,0.0,0.0,0.0,0.0,0.0,0.0,0.0,0.0,0.0,0.0,0.0,0.0,0.0,0.0,0.0,0.0,0.0,0.0,0.0,0.0,0.0,0.0,0.0,0.0,0.0,0.0,0.0,0.0,0.0,0.0,0.0,0.0,0.0,0.0,0.0,0.0,0.0,0.0,0.0,0.0,0.0,0.0,0.0,3.2237,3.5892,3.8642,4.0315,4.0489,4.0489,4.0489,3.718,3.4141,3.1833,0.0,0.0,0.0,0.0,0.0,0.0,0.0,0.0,0.0,0.0,0.0,0.0,0.0,0.0,0.0,0.0,0.0,0.0,0.0,0.0,0.0,0.0,0.0,0.0,0.0,0.0,0.0,0.0,0.0,0.0,0.0,0.0,0.0,0.0,0.0,0.0,0.0,0.0,0.0,0.0,0.0,0.0,0.0,0.0,0.0,0.0,0.0,0.0,0.0,0.0,0.0,0.0,0.0,0.0,0.0,0.0,0.0,0.0,0.0,0.0,0.0,0.0,0.0,0.0,0.0,0.0,0.0,0.0,0.0,0.0,0.0,0.0,0.0,0.0,0.0,0.0,0.0,0.0,0.0,0.0,0.0,0.0,0.0,0.0,0.0,0.0,0.0,0.0,0.0,0.0,0.0,0.0,0.0,0.0,0.0,0.0,0.0,0.0,0.0,0.0,0.0,0.0,3.2237,3.5892,3.8642,4.0315,4.0489,4.0489,4.0489,3.7719,3.4757,3.1891,0.0,0.0,0.0,0.0,0.0,0.0,0.0,0.0,0.0,0.0,0.0,0.0,0.0,0.0,0.0,0.0,0.0,0.0,0.0,0.0,0.0,0.0,0.0,0.0,0.0,0.0,0.0,0.0,0.0,0.0,0.0,0.0,0.0,0.0,0.0,0.0,0.0,0.0,0.0,0.0,0.0,0.0,0.0,0.0,0.0,0.0,0.0,0.0,0.0,0.0,0.0,0.0,0.0,0.0,0.0,0.0,0.0,0.0,0.0,0.0,0.0,0.0,0.0,0.0,0.0,0.0,0.0,0.0,0.0,0.0,0.0,0.0,0.0,0.0,0.0,0.0,0.0,0.0,0.0,0.0,0.0,0.0,0.0,0.0,0.0,0.0,0.0,0.0,0.0,0.0,0.0,0.0,0.0,0.0,0.0,0.0,0.0,0.0,0.0,0.0,0.0,0.0,3.2256,3.5892,3.8642,4.0315,4.0489,4.0489,4.0489,3.8161,3.5353,3.2141,0.0,0.0,0.0,0.0,0.0,0.0,0.0,0.0,0.0,0.0,0.0,0.0,0.0,0.0,0.0,0.0,0.0,0.0,0.0,0.0,0.0,0.0,0.0,0.0,0.0,0.0,0.0,0.0,0.0,0.0,0.0,0.0,0.0,0.0,0.0,0.0,0.0,0.0,0.0,0.0,0.0,0.0,0.0,0.0,0.0,0.0,0.0,0.0,0.0,0.0,0.0,0.0,0.0,0.0,0.0,0.0,0.0,0.0,0.0,0.0,3.1968,0.0,0.0,0.0,0.0,0.0,0.0,0.0,0.0,0.0,0.0,0.0,0.0,0.0,0.0,0.0,0.0,0.0,0.0,0.0,0.0,0.0,0.0,0.0,0.0,0.0,0.0,0.0,0.0,0.0,0.0,0.0,0.0,0.0,0.0,0.0,0.0,0.0,0.0,0.0,0.0,0.0,3.2333,3.5892,3.8642,4.0315,4.0489,4.0489,4.0489,3.8161,3.5834,3.3795,2.9044,0.0,0.0,0.0,0.0,0.0,0.0,0.0,0.0,0.0,0.0,0.0,0.0,0.0,0.0,0.0,0.0,0.0,0.0,0.0,0.0,0.0,0.0,0.0,0.0,0.0,0.0,0.0,0.0,0.0,0.0,0.0,0.0,0.0,0.0,0.0,0.0,0.0,0.0,0.0,0.0,0.0,0.0,0.0,0.0,0.0,0.0,0.0,0.0,0.0,0.0,0.0,0.0,0.0,0.0,0.0,0.0,0.0,0.0,0.0,0.0,3.4314,0.0,0.0,0.0,0.0,0.0,0.0,0.0,0.0,0.0,0.0,0.0,0.0,0.0,0.0,0.0,0.0,0.0,0.0,0.0,0.0,0.0,0.0,0.0,0.0,0.0,0.0,0.0,0.0,0.0,0.0,0.0,0.0,0.0,0.0,0.0,0.0,0.0,0.0,0.0,0.0,3.3026,3.6507,3.9104,4.0354,4.0489,4.0489,4.0489,3.8931,3.7065,3.4968,3.1545,0.0,0.0,0.0,0.0,0.0,0.0,0.0,0.0,0.0,0.0,0.0,0.0,0.0,0.0,0.0,0.0,0.0,0.0,0.0,0.0,0.0,0.0,0.0,0.0,0.0,0.0,0.0,0.0,0.0,0.0,0.0,0.0,0.0,0.0,0.0,0.0,0.0,0.0,0.0,0.0,0.0,0.0,0.0,0.0,0.0,0.0,0.0,0.0,0.0,0.0,0.0,0.0,0.0,4.0677,4.1415,4.1894,4.2905,4.3559,4.3746,4.0372,3.9238,3.9508,0.0,0.0,0.0,0.0,0.0,0.0,0.0,0.0,0.0,0.0,0.0,0.0,0.0,0.0,0.0,0.0,0.0,0.0,0.0,0.0,0.0,0.0,0.0,0.0,0.0,3.7777,3.7507,0.0,0.0,0.0,0.0,0.0,0.0,0.0,0.0,0.0,0.0,0.0,0.0,3.418,3.7373,3.9662,4.0623,4.0585,4.0489,4.0489,3.9758,3.8334,3.6084,3.418,3.1487,0.0,0.0,0.0,0.0,0.0,0.0,0.0,0.0,0.0,0.0,0.0,0.0,0.0,0.0,0.0,0.0,0.0,0.0,0.0,0.0,0.0,0.0,0.0,0.0,0.0,0.0,0.0,0.0,0.0,0.0,0.0,0.0,2.7409,2.995,0.0,0.0,0.0,0.0,0.0,0.0,0.0,0.0,0.0,0.0,0.0,0.0,0.0,3.8625,4.0935,4.3265,4.5035,4.6275,4.7842,4.8859,4.9298,4.9433,4.9548,4.9548,4.8279,0.0,4.145,4.0989,0.0,0.0,0.0,0.0,0.0,0.0,0.0,0.0,0.0,0.0,0.0,0.0,0.0,0.0,0.0,0.0,0.0,0.0,0.0,0.0,0.0,0.0,4.2624,4.1296,4.172,4.2008,0.0,3.6161,3.2199,3.0948,2.9006,0.0,0.0,0.0,0.0,0.0,0.0,0.0,3.5853,3.8084,3.9892,4.147,4.095,4.0489,4.0489,3.9758,3.8834,3.7738,3.5372,3.343,3.2122,2.9275,0.0,0.0,0.0,0.0,0.0,0.0,0.0,0.0,0.0,0.0,0.0,0.0,0.0,0.0,0.0,0.0,0.0,0.0,0.0,0.0,0.0,0.0,0.0,0.0,0.0,0.0,0.0,0.0,0.0,2.6537,2.9973,3.1331,3.1504,3.1074,0.0,0.0,0.0,0.0,0.0,0.0,0.0,0.0,0.0,4.1601,4.3016,4.4737,4.6797,4.8131,4.9074,4.9662,5.0597,5.1055,5.1026,5.1266,5.1239,5.1036,5.1147,4.9644,4.6987,4.4822,4.2566,4.0315,0.0,0.0,0.0,0.0,3.8584,3.8142,4.095,4.1277,0.0,3.8892,0.0,0.0,0.0,0.0,0.0,0.0,0.0,0.0,0.0,0.0,0.0,4.3893,4.422,4.4393,4.4008,4.1508,3.8507,0.0,3.4737,3.3006,2.889,0.0,0.0,0.0,0.0,0.0,3.7853,4.0085,4.1527,4.1777,4.147,4.1027,4.0527,4.0181,3.9623,3.8777,3.7219,3.5738,3.443,3.2006,2.9679,0.0,0.0,0.0,0.0,0.0,0.0,0.0,0.0,0.0,0.0,0.0,0.0,0.0,0.0,0.0,0.0,0.0,0.0,0.0,0.0,0.0,0.0,0.0,0.0,0.0,0.0,0.0,0.0,2.9713,3.2264,3.3091,3.4106,3.4226,0.0,0.0,0.0,0.0,0.0,0.0,3.9209,4.1651,4.4014,4.6234,4.7718,4.9281,5.1021,5.1319,5.1632,5.1926,5.2356,5.2473,5.2278,5.267,5.27,5.2435,5.2886,5.2709,5.1854,4.8587,4.6451,4.5143,4.3912,4.2393,4.1162,4.3297,4.3258,4.2624,4.6028,4.6355,4.5066,4.3816,0.0,4.0662,3.795,0.0,0.0,0.0,0.0,3.9835,4.2162,4.3258,4.4047,4.5297,4.5586,4.5586,4.5586,4.5086,4.3585,0.0,3.9642,3.8392,3.3526,0.0,0.0,0.0,0.0,3.8796,4.0104,4.1931,4.2931,4.2489,4.2066,4.1546,4.0893,4.0623,4.0239,3.9642,3.8604,3.745,3.6199,3.4276,3.2237,3.0102,0.0,0.0,0.0,0.0,0.0,0.0,0.0,0.0,0.0,0.0,0.0,0.0,0.0,0.0,0.0,0.0,0.0,0.0,0.0,0.0,0.0,0.0,0.0,0.0,0.0,0.0,0.0,0.0,0.0,3.6975,3.746,0.0,0.0,0.0,0.0,3.8308,4.143,4.4018,4.5631,4.7072,4.845,4.9809,4.9621,5.0299,5.1919,5.1934,5.2523,5.3682,5.4138,5.4557,5.4928,5.5331,5.5506,5.5426,5.4739,5.4374,5.4201,5.2336,5.0144,4.7894,4.7817,4.6759,4.5393,4.6355,4.6663,4.6721,4.7702,4.799,4.7894,4.7817,4.5605,4.2777,4.1797,4.0373,0.0,0.0,4.2181,4.3239,4.4951,4.5432,4.549,4.5566,4.5586,4.5586,4.5586,4.5566,4.4989,0.0,4.222,4.1066,3.9181,0.0,3.8007,3.8738,3.9065,4.0123,4.2585,4.3028,4.3374,4.4105,4.2758,4.1777,4.1739,4.0969,4.0469,4.0431,3.8892,3.7969,3.7873,3.5468,3.368,3.2737,2.9467,0.0,0.0,0.0,0.0,0.0,0.0,0.0,0.0,0.0,0.0,0.0,0.0,0.0,0.0,0.0,0.0,0.0,0.0,0.0,0.0,0.0,0.0,0.0,0.0,0.0,0.0,0.0,0.0,3.9373,4.0838,0.0,4.0912,4.1653,4.2698,4.3958,4.6199,4.7765,4.836,5.0056,5.1626,5.2883,5.3331,5.4171,5.5602,5.4988,5.4944,5.5341,5.5261,5.4983,5.4634,5.4798,5.457,5.4099,5.4048,5.4216,5.4476,5.4098,5.2954,5.1375,5.1375,5.0356,4.8971,4.9817,4.9452,4.8625,4.9471,4.9413,4.8836,4.8279,4.7298,4.6259,4.5951,4.5086,4.4316,4.4913,4.4893,4.4836,4.5432,4.5586,4.5586,4.5586,4.5586,4.5586,4.5586,4.5586,4.5413,4.4816,4.4008,4.2874,4.12,4.1123,4.1008,4.0181,4.147,4.2854,4.3758,4.4355,4.4605,4.4335,4.3778,4.297,4.1893,4.1527,4.0873,3.9796,3.8642,3.7757,3.7199,3.5257,3.3795,3.291,3.0679,2.7986,0.0,0.0,0.0,0.0,0.0,0.0,0.0,0.0,0.0,0.0,0.0,0.0,0.0,0.0,0.0,0.0,0.0,0.0,0.0,0.0,0.0,0.0,0.0,0.0,0.0,0.0,4.0328,4.1773,4.3744,4.4867,4.4599,4.583,4.7033,4.7965,4.9893,5.1023,5.1023,5.2791,5.413,5.4853,5.5378,5.6065,5.6922,5.6293,5.5992,5.5992,5.5845,5.5502,5.5027,5.5336,5.5193,5.469,5.4829,5.4975,5.5148,5.5094,5.4511,5.3642,5.3637,5.2779,5.1606,5.2145,5.1452,5.0298,5.0587,5.0317,4.9683,4.8817,4.8548,4.849,4.8202,4.774,4.7298,4.7298,4.6894,4.6374,4.6105,4.6028,4.5951,4.5663,4.5586,4.5586,4.5586,4.5586,4.5586,4.5586,4.5124,4.4393,4.3278,4.3566,4.3547,4.2393,4.3662,4.4739,4.4739,4.524,4.5374,4.4797,4.447,4.3739,4.2354,4.17,4.0893,3.9777,3.8354,3.7296,3.6719,3.5084,3.3795,3.291,3.1256,2.9014,2.6178,0.0,0.0,0.0,0.0,0.0,0.0,0.0,0.0,0.0,0.0,0.0,0.0,0.0,0.0,0.0,0.0,0.0,0.0,0.0,0.0,0.0,0.0,0.0,3.8295,4.0207,4.2318,4.4337,4.612,4.704,4.6539,4.8458,4.9878,5.0224,5.2493,5.387,5.387,5.5339,5.6032,5.5655,5.5629,5.5629,5.571,5.5666,5.5666,5.5666,5.6047,5.6232,5.6253,5.7156,5.7558,5.753,5.7134,5.6745,5.6347,5.5489,5.4905,5.4572,5.4513,5.399,5.322,5.3241,5.2702,5.1837,5.101,5.0741,5.0587,4.9721,4.9433,4.9279,4.8432,4.8163,4.8144,4.8144,4.8125,4.7932,4.7144,4.6951,4.6721,4.5836,4.5624,4.5624,4.5605,4.5586,4.5586,4.5586,4.5586,4.5586,4.5586,4.5586,4.5586,4.5586,4.5586,0.0,4.5586,4.5586,4.5586,4.5586,4.4836,4.4008,4.3201,4.1566,4.0546,4.0469,3.8123,3.6738,3.6699,3.5122,3.3833,3.2968,3.1333,2.9679,2.8025,0.0,0.0,0.0,0.0,0.0,0.0,0.0,0.0,0.0,0.0,0.0,0.0,0.0,0.0,0.0,0.0,0.0,0.0,0.0,0.0,0.0,0.0,4.1151,4.1359,4.3781,4.6156,4.7885,4.9082,5.0079,5.0801,5.1669,5.2585,5.3554,5.4563,5.5091,5.5109,5.5515,5.6122,5.6967,5.6639,5.6915,5.7858,5.7505,5.7336,5.7336,5.7434,5.721,5.6639,5.6881,5.6692,5.6156,5.6012,5.6288,5.6683,5.587,5.5846,5.6217,5.5306,5.4396,5.3675,5.4021,5.3587,5.2722,5.1875,5.1568,5.1433,5.0606,5.0337,5.0298,5.0048,4.9529,4.9048,4.9048,4.8586,4.8048,4.7836,4.7778,4.7567,4.674,4.6547,4.6374,4.574,4.5586,4.5586,4.5586,4.5586,4.5586,4.5586,4.5586,4.5586,4.5586,4.5586,0.0,4.5586,4.5586,4.5586,4.5586,4.5374,4.4893,4.4047,4.2989,4.1604,3.9738,3.8373,3.7353,3.6738,3.5699,3.4737,3.3853,3.2776,3.1698,0.0,0.0,0.0,0.0,0.0,0.0,0.0,0.0,0.0,0.0,0.0,0.0,0.0,0.0,0.0,0.0,0.0,0.0,0.0,0.0,0.0,0.0,4.1963,4.4724,4.5893,4.7261,4.8746,5.0362,5.0986,5.1823,5.3211,5.358,5.4123,5.5173,5.5767,5.6106,5.6106,5.6418,5.6945,5.7672,5.7442,5.7681,5.8418,5.8142,5.7997,5.7997,5.7997,5.7758,5.7299,5.7512,5.7365,0.0,5.6704,5.6835,5.7076,5.6251,5.5913,0.0,0.0,0.0,0.0,0.0,5.4184,5.3626,5.276,5.2222,5.1837,5.1356,5.0971,5.0702,5.0702,5.0337,4.9933,4.9933,4.9586,4.9106,4.874,4.8644,4.8432,4.7605,4.7413,4.7182,4.6336,4.6144,4.6028,4.5663,4.5586,0.0,4.5586,4.5586,4.5586,4.5586,4.5586,4.5586,4.5586,4.5586,4.5586,4.5586,4.5586,4.524,4.4374,4.3239,0.0,0.0,0.0,3.7603,3.6738,3.593,0.0,0.0,0.0,0.0,0.0,0.0,0.0,0.0,3.2987,3.3333,0.0,0.0,0.0,0.0,0.0,0.0,0.0,0.0,0.0,0.0,0.0,0.0,0.0,0.0,0.0,0.0,4.5424,4.8343,5.0618,5.0398,5.0527,5.1958,5.2215,5.2821,5.4252,5.4564,5.4968,5.5666,5.6473,5.695,5.695,0.0,0.0,0.0,0.0,5.7997,5.7997,5.7997,5.7997,5.7997,5.7997,5.7997,5.7997,5.8418,5.8632,5.8576,5.8259,5.7922,5.7558,5.6681,5.5625,5.4611,5.5312,5.5621,5.5607,5.4895,5.4645,5.4511,5.3645,0.0,0.0,5.1972,5.1414,5.0818,5.0721,5.0702,5.0702,5.0702,5.0702,5.051,4.974,4.9548,4.9336,4.8452,4.8259,4.8029,4.7221,4.6971,4.6682,4.5893,4.5663,4.5586,4.5586,4.5586,4.5586,4.5586,4.5586,4.5586,4.5586,4.5586,4.5586,4.5586,0.0,0.0,4.4455,4.2902,4.1942,4.1882,3.9704,3.8084,3.7315,3.668,3.6661,3.7257,3.8027,3.8815,3.9585,4.1066,4.1508,4.0816,3.6199,3.6045,0.0,0.0,0.0,0.0,0.0,0.0,0.0,0.0,0.0,0.0,0.0,0.0,0.0,0.0,0.0,4.4892,4.7957,5.049,5.161,5.2197,5.2619,5.2931,5.3537,5.4051,5.4363,5.5574,5.64,5.6565,5.7317,5.7776,5.7776,5.7923,5.7997,5.7997,5.7997,5.7997,5.7997,5.7997,5.7997,5.7997,0.0,0.0,5.7997,5.8097,5.8142,5.8123,5.8028,5.8177,5.8396,5.7537,5.65,5.5401,5.4931,5.5134,5.5684,5.553,5.5472,5.5338,5.453,5.4145,5.378,5.2375,5.1798,5.1548,5.0894,5.0702,0.0,5.0702,5.0702,5.0644,5.0491,5.0452,5.0221,4.9356,4.9144,4.8913,4.8048,4.7355,4.6855,4.6682,4.6086,4.5586,4.5586,4.5586,4.5586,4.5586,4.5586,4.5586,4.5586,4.5586,4.5586,4.5586,4.5362,4.5125,4.4972,4.376,4.2822,4.2391,4.1545,4.0989,4.0816,4.1335,4.1373,4.0816,4.0989,4.1162,4.1316,4.1643,4.2412,4.3528,4.1893,4.12,0.0,0.0,0.0,0.0,0.0,0.0,0.0,0.0,0.0,0.0,0.0,3.9918,4.1937,0.0,4.6562,4.8618,5.0325,5.1811,5.3023,5.3206,5.3353,5.3757,5.4161,5.473,5.5519,5.6326,5.6969,5.7373,5.7776,5.7997,5.7997,5.7997,5.7997,5.7997,5.7997,5.7997,5.7997,5.7997,5.7997,5.7997,5.7997,5.7997,5.7997,5.7997,5.7997,5.7997,5.7997,5.8142,5.8277,5.7439,5.6899,5.6479,5.5655,5.5371,5.5399,5.5399,5.5512,5.5645,5.5241,5.4838,5.4357,5.3491,5.2914,5.2395,5.1548,5.1298,5.1221,5.0798,5.0702,5.0702,5.0702,5.0702,5.0587,5.0144,5.0048,4.9798,4.8933,4.8432,4.7894,4.7067,4.6547,4.6105,4.5682,4.5586,4.5586,4.5586,4.5586,4.5586,4.5586,4.5586,4.555,4.5381,4.5201,4.503,4.4872,4.4047,4.3244,4.254,4.2467,4.245,4.245,4.2874,4.2893,4.247,4.2854,4.3047,4.3047,4.3489,4.4124,4.4932,4.4528,4.4124,0.0,0.0,0.0,0.0,0.0,0.0,0.0,0.0,3.823,4.0175,4.2249,4.4507,4.7113,4.8379,4.9719,5.1885,5.2362,5.2968,5.4418,5.394,5.3739,5.4546,5.4638,5.5207,5.6675,5.695,5.7299,5.7941,5.7997,5.7997,5.7997,5.7997,5.7997,5.7997,5.7997,5.7997,5.7997,5.7997,5.7997,5.7997,5.7997,5.7997,5.7997,5.7997,5.7997,5.7997,5.7997,5.7997,5.7941,5.7299,5.7143,5.7227,5.6577,5.5951,5.5436,5.5366,5.5484,5.5703,5.5703,5.528,5.4703,5.4549,5.403,5.326,5.2222,5.1914,5.1741,5.0933,5.0702,5.0702,5.0702,5.0702,5.0702,5.0702,5.0702,5.051,4.9798,4.951,4.899,4.7644,4.7124,4.6682,4.597,4.5666,4.5513,4.5586,4.5531,4.5495,4.5495,4.5438,4.5283,4.503,4.4943,4.4757,4.4419,4.4058,4.3567,4.2949,4.3254,4.3515,4.3585,4.3585,4.3585,4.3585,4.422,4.4547,4.4547,4.5259,4.5586,4.5586,4.5586,4.5586,3.0705,3.2155,3.4082,3.6376,3.6468,3.7679,0.0,0.0,4.3552,4.6599,4.8049,4.8875,4.9242,5.0545,5.1903,5.2913,5.3665,5.4436,5.5335,5.4766,5.4564,5.5354,5.5464,5.5812,5.6712,5.7446,5.7905,5.7997,5.7997,5.7997,5.7997,5.7997,5.7997,5.7997,5.7997,5.7997,5.7997,5.7997,5.7997,5.7997,5.7997,5.7997,5.7997,5.7997,5.7997,5.7997,5.7997,5.7997,5.7997,5.7905,5.7473,5.6856,5.6783,5.6716,5.6657,5.6302,5.5963,5.5703,5.5703,5.5645,5.5453,5.4722,5.4434,5.4049,5.2414,5.1914,5.1741,5.0933,5.0702,5.0702,5.0702,5.0702,5.0702,5.0702,5.0702,5.0664,5.0567,4.9952,4.9336,4.9163,4.7913,4.6874,4.6778,4.5859,4.5243,4.5568,4.5342,4.5159,4.5159,4.4896,4.4682,4.4657,4.4346,4.3986,4.3664,4.385,4.4074,4.4367,4.4699,4.5015,4.5316,4.5316,4.5316,4.5316,4.5413,4.5451,4.5451,4.5547,4.5586,4.5586,4.5586,4.5586,3.6193,0.0,0.0,0.0,4.2139,4.3387,4.6434,4.7076,4.7553,4.9389,5.0417,5.1132,5.161,5.2234,5.2968,0.0,5.4179,5.4675,5.5482,5.4913,5.4528,5.4858,5.4895,5.539,5.6693,5.7097,5.7501,5.796,5.7997,5.7997,5.7997,5.7997,5.7997,5.7997,5.7997,5.7997,5.7997,5.7997,5.7997,5.7997,5.7997,5.7997,5.7997,5.7997,5.7997,5.7997,5.7997,5.7997,5.7997,5.7997,5.7795,5.7501,5.7501,5.7376,5.7098,5.6247,5.6164,5.6376,5.5876,5.5703,5.5645,5.5299,5.5203,5.4972,5.378,5.3068,5.2491,5.1645,5.1048,5.0702,5.0702,5.0702,5.0702,5.0702,5.0702,5.0702,5.0702,5.0414,4.9951,4.9192,4.8118,4.7078,4.6363,4.5447,4.4872,4.4988,4.4896,4.4825,4.4825,4.4701,4.4501,4.428,4.3912,4.3646,4.3513,4.3804,4.4175,4.458,4.4919,4.5243,4.5586,4.5586,4.5586,4.5586,4.5586,4.5586,4.5586,4.5586,4.5586,4.5586,4.5586,4.5586,3.9551,0.0,0.0,4.4397,4.6434,4.7921,4.8361,4.9389,5.0472,5.1298,5.1922,5.2435,5.2803,5.3059,5.3463,5.4271,5.4583,5.5005,5.5812,5.5042,5.4399,5.4399,5.4014,5.4363,5.5978,5.6547,5.7134,5.7941,5.7997,5.7997,5.7997,5.7997,5.7997,5.7997,5.7997,5.7997,5.7997,5.7997,5.7997,5.7997,5.7997,5.7997,5.7997,5.7997,5.7997,5.7997,5.7997,5.7997,5.7997,5.7997,5.7997,5.7997,5.7997,5.7913,5.7633,5.6572,5.6451,5.6744,5.6239,5.5895,5.5703,5.5703,5.5703,5.5549,5.4741,5.4068,5.3337,5.2222,5.1491,5.0971,5.076,5.0702,5.0702,5.0702,5.0702,5.0663,5.0565,5.0544,5.0229,4.92,4.8332,4.7498,4.6607,4.5536,4.4785,4.4785,4.4515,4.4337,4.4419,4.4364,4.4213,4.3881,4.3646,4.3497,4.3497,4.3726,4.4076,4.4553,4.4825,4.514,4.5586,4.5586,4.5586,4.5586,4.5586,4.5586,4.5586,4.5586,4.5586,4.5586,4.5586,4.5586,0.0,0.0,4.4782,4.5645,4.77,4.9921,5.1499,5.1885,5.216,5.2968,5.317,5.2931,5.2179,5.2674,5.3463,5.4271,5.5042,5.5831,5.6657,5.5409,5.4399,5.4399,5.3023,5.2692,0.0,5.5886,5.7134,5.7941,5.7997,5.7997,5.7997,5.7997,5.7997,5.7997,5.7997,5.7997,5.7997,5.7997,5.7997,5.7997,5.7997,5.7997,5.7997,5.7997,5.7997,5.7997,5.7997,5.7997,5.7997,5.7997,5.7997,5.7997,5.7997,5.8264,5.8545,5.7649,5.6914,5.6382,5.6825,5.6395,5.5703,5.5703,5.5703,5.5549,5.4741,5.4472,5.4107,5.2395,5.1895,5.1683,5.0894,5.0702,5.0702,5.0702,5.0702,5.0604,5.0206,5.0135,4.9999,4.957,4.8768,4.8183,4.8117,4.6491,4.5171,4.5171,4.4258,4.3646,4.3986,4.3726,4.3513,4.3513,4.3532,4.3497,4.3497,4.3513,4.3823,4.4553,4.4606,4.4919,4.5568,4.5586,4.5586,4.5586,4.5586,4.5586,4.5586,4.5586,4.5586,4.5586,4.5586,4.5586,0.0,0.0,4.7425,4.882,5.0178,5.1463,5.2546,5.2803,5.2729,5.2454,5.1977,5.1371,5.0545,5.0618,5.1242,5.2582,5.3922,5.5078,5.5886,5.5996,5.5409,5.3794,5.4069,0.0,0.0,0.0,0.0,5.7097,5.7207,5.7446,5.796,5.7997,5.7997,5.7997,5.7997,5.7997,5.7997,5.7997,5.7997,5.7997,5.7997,5.7997,5.7997,5.7997,5.7997,5.7997,5.7997,5.7997,5.7997,5.7997,5.7997,5.7997,5.7997,5.8115,5.8245,5.8252,5.7753,5.6974,5.6654,5.5995,5.535,5.5599,5.5703,5.5645,5.5376,5.4914,5.4376,5.3799,5.2799,5.1856,5.1568,5.1106,5.0624,5.0377,5.0294,5.0183,4.98,4.9719,4.9589,4.9171,4.8434,4.7796,4.7503,4.6461,4.5471,4.4936,4.4097,4.3548,4.3646,4.3563,4.3497,4.3497,4.3497,4.3497,4.3497,4.3497,4.3712,4.4175,4.4447,4.4781,4.5243,4.5495,4.5586,4.5586,4.5586,4.5586,4.5586,4.5586,4.5586,4.5586,4.5586,4.5586,0.0,4.7498,4.9132,5.0802,5.183,5.2564,5.3096,5.2986,5.2546,5.1738,5.0674,4.9664,4.8838,4.871,4.9334,5.1261,5.2913,5.4344,5.5445,5.6051,5.5794,5.4234,5.4711,5.5078,0.0,0.0,0.0,5.7116,5.7226,5.7446,5.796,5.7997,5.7997,5.7997,5.7997,5.7997,5.7997,5.7997,5.7997,5.7997,5.7997,5.7997,5.7997,5.7997,5.7997,5.7997,5.7997,5.7997,5.7997,5.7997,5.7997,5.7997,5.7997,5.7997,5.8024,5.8351,5.7881,5.7138,5.6663,5.5987,5.5304,5.5281,5.5375,5.5466,5.5306,5.5011,5.4622,5.4159,5.323,5.2236,5.1625,5.109,5.0546,5.0025,4.9898,4.9773,4.9386,4.9295,4.9171,4.8744,4.8266,4.7827,4.7573,4.6874,4.6067,4.5259,4.469,4.414,4.3552,4.3497,4.3497,4.3497,4.3497,4.3497,4.3497,4.3497,4.3646,4.3986,4.4392,4.4732,4.5074,4.5419,4.5586,4.5586,4.5586,4.5586,4.5586,4.5586,4.5586,4.5586,4.5586,4.5759,4.6911,4.8508,5.0068,5.172,5.2674,5.3206,5.317,5.2527,5.1665,5.0747,4.9224,4.7774,0.0,0.0,4.7719,5.0105,5.2013,5.3775,5.5354,5.5666,5.5702,0.0,0.0,0.0,0.0,0.0,0.0,5.7886,0.0,5.796,5.7997,5.7997,5.7997,5.7997,5.7997,5.7997,5.7997,5.7997,5.7997,5.7997,5.7997,5.7997,5.7997,5.7997,5.7997,5.7997,5.7997,5.7997,5.7997,5.7997,5.7997,5.7997,5.7997,5.7997,5.7997,5.7997,5.7519,5.6846,5.691,5.6361,5.5546,5.4805,5.4798,5.5007,5.4628,5.4779,5.4808,5.3615,5.3227,5.2831,5.1247,5.0757,5.0493,4.9738,4.9512,4.9356,4.8963,4.8863,4.8744,4.8364,4.8306,4.8306,4.8306,4.7645,4.6856,4.6085,4.592,4.5333,4.3754,4.3552,4.3534,4.3497,4.3497,4.3497,4.3497,4.3497,4.3646,4.3986,4.4392,4.4732,4.5074,4.5419,4.5586,4.5586,4.5586,4.5586,4.5586,4.5586,4.5586,4.5586,4.5643,4.6105,4.9976,5.1499,5.2509,5.3537,5.35,5.3041,5.2435,5.1683,5.0343,4.77,4.5865,4.392,4.1332,0.0,0.0,4.6067,5.0178,0.0,5.5354,5.662,0.0,0.0,0.0,5.6932,5.6528,5.7042,0.0,0.0,5.7446,5.7373,5.796,5.7997,5.7997,5.7997,5.7997,5.7997,5.7997,5.7997,5.7997,5.7997,5.7997,5.7997,5.7997,5.7997,5.7997,5.7997,5.7997,5.7997,5.7997,5.7997,5.7997,5.7997,5.7997,5.7997,5.7997,5.7997,5.7868,5.762,5.7002,5.6097,5.5191,5.5333,5.5057,5.464,5.4535,5.4547,5.4572,5.427,5.3698,5.3113,5.268,5.1643,5.0583,5.0081,4.9492,4.893,4.855,4.8458,4.8421,4.8306,4.8306,4.8306,4.8306,4.7645,4.704,4.6838,4.6287,4.5535,4.4525,4.4397,4.4158,4.3552,4.3497,4.3497,4.3497,4.3497,4.3646,4.3986,4.4392,4.4732,4.5074,4.5419,4.5586,4.5586,4.5586,4.5586,4.5586,4.5586,4.5586,4.5605,4.6278,4.6701,5.194,5.3115,5.3849,5.4289,5.3537,5.227,5.0729,4.9481,4.7627,4.4011,4.2268,0.0,3.8102,0.0,0.0,0.0,0.0,0.0,5.4748,5.6455,5.7446,0.0,5.7721,0.0,5.7373,5.774,5.7997,0.0,5.7574,5.7519,5.7978,5.7997,5.7997,5.7997,5.7997,5.7997,5.7997,5.7997,5.7997,5.7997,5.7997,5.7997,5.7997,5.7997,5.7997,5.7997,0.0,5.7997,5.7997,5.7997,5.7997,5.7997,5.7997,5.7997,5.7997,5.7997,5.7997,5.7941,5.7483,5.6436,5.5251,5.5174,5.4705,5.4153,5.3979,5.4032,5.4171,5.3979,5.3589,5.3105,5.2768,5.1985,5.1039,5.012,4.9528,4.903,4.8418,4.8306,4.8306,4.8306,4.8306,4.8306,4.8306,4.7939,4.7645,4.7645,4.7241,4.6673,4.5865,4.5461,4.4929,4.4103,4.403,4.3883,4.3516,4.3497,4.3646,4.3986,4.4392,4.4732,4.5074,4.5419,4.5586,4.5586,4.5586,4.5586,4.5586,4.597,4.6163,4.6182,4.7028,4.7625,5.3115,5.3794,5.4271,5.4363,5.3115,5.1187,4.871,4.6728,4.4287,4.0249,0.0,3.7569,3.5954,3.779,4.0359,4.2782,0.0,5.0582,5.3922,5.5702,5.6987,5.7886,5.7997,5.7997,5.7997,5.7997,5.7997,5.7997,5.7997,5.7997,5.7997,5.7997,5.7997,5.7997,5.7997,5.7997,5.7997,5.7997,5.7997,5.7997,5.7997,5.7997,5.7997,5.7997,5.7997,5.7997,5.7997,0.0,5.7997,5.7997,5.7997,5.7997,5.7997,5.7997,5.7997,5.7997,5.7997,5.7997,5.7997,5.6932,5.5464,5.4785,5.4201,5.3663,5.3295,5.3444,5.3663,5.3295,5.3206,5.3041,5.2344,5.2068,5.161,5.0105,4.9664,4.9352,4.8489,4.8306,4.8306,4.8306,4.8306,4.8306,4.8306,4.8306,4.8306,4.8306,4.8306,4.8067,4.737,4.6562,4.5755,4.4947,4.4874,4.458,4.3864,4.3718,4.3845,4.4195,4.4476,4.4757,4.514,4.5457,4.5643,4.5759,4.5759,4.5817,4.5932,4.6682,4.7067,4.7086,4.7894,4.8682,5.3794,5.3812,5.3573,5.4234,5.2692,5.0362,4.7884,4.5039,0.0,0.0,0.0,3.4156,3.254,3.533,0.0,4.113,0.0,0.0,0.0,0.0,5.6345,0.0,0.0,0.0,0.0,0.0,0.0,0.0,0.0,5.7997,5.7997,5.7997,5.7997,5.7997,5.7997,5.7997,5.7997,5.7997,5.7997,5.7997,5.7997,5.7997,5.7997,5.7997,5.7997,5.7997,5.7997,0.0,5.7997,5.7997,5.7997,5.7997,5.7997,5.7997,5.7997,5.7997,5.7997,5.7997,5.7997,5.6932,5.5574,5.5427,5.4467,5.3295,5.3206,5.323,5.3295,5.3206,5.3206,5.3188,5.3041,5.2509,5.1756,5.082,5.0068,4.9352,4.8489,4.8306,4.8306,4.8306,4.8306,4.8306,4.8306,4.8306,4.8306,4.8306,4.8306,4.8251,4.8122,4.7407,4.6599,4.5773,4.5681,4.5645,4.5498,4.4874,4.4776,4.5453,4.4931,4.4853,4.5495,4.5568,4.5932,4.6663,4.6682,4.7009,4.7663,4.7817,4.7894,4.7913,4.8779,4.926,5.4087,5.4124,5.383,5.3794,5.194,4.904,4.4929,0.0,0.0,0.0,0.0,3.1421,2.9806,0.0,0.0,0.0,0.0,0.0,0.0,0.0,0.0,0.0,0.0,0.0,0.0,0.0,0.0,0.0,0.0,5.7997,5.7997,5.7997,5.7997,5.7997,5.7997,5.7997,5.7997,5.7997,5.7997,5.7997,5.7997,5.7997,5.7997,5.7997,5.7997,5.7997,5.7997,0.0,5.7997,5.7997,5.7997,5.7997,5.7997,5.7997,5.7997,5.7997,5.7997,5.7997,5.7997,5.6932,5.5592,5.5592,5.4509,5.3206,5.3206,5.3206,5.3206,5.3206,5.3206,5.3206,5.3206,5.2913,5.2325,5.1096,4.9848,4.8802,4.8398,4.8306,4.8306,4.8306,4.8306,4.8306,4.8306,4.8306,4.8306,4.8306,4.8306,4.8306,4.8306,4.7976,4.7425,4.6617,4.6526,4.6361,4.5938,4.5745,4.5847,4.6393,4.6253,4.6374,4.6876,4.6894,4.7105,4.7528,4.7528,4.7721,4.8105,4.8567,4.8779,4.8798,4.9663,5.0067,5.3665,5.4014,5.3959,5.3151,5.1077,4.781,4.2359,3.8946,0.0,0.0,0.0,2.9145,2.8227,0.0,0.0,0.0,0.0,0.0,0.0,0.0,0.0,0.0,0.0,0.0,0.0,0.0,0.0,0.0,0.0,0.0,5.7997,5.7997,5.7997,5.7997,5.7997,5.7997,5.7997,5.7997,5.7997,5.7997,5.7997,5.7997,5.7997,5.7997,5.7997,5.7997,5.7997,0.0,0.0,5.7997,5.7997,5.7997,5.7997,5.7997,5.7997,5.7997,5.7997,5.7978,5.7795,5.6804,5.5556,5.539,5.4363,5.3206,5.3206,5.3206,5.3206,5.3206,5.3206,5.3206,5.3206,5.3206,5.2803,5.1187,4.9664,4.8526,4.8343,4.8306,4.8306,4.8306,4.8306,4.8306,4.8306,4.8306,4.8306,4.8306,4.8306,4.8306,4.8306,4.8306,4.8067,4.7443,4.737,4.7113,4.6471,4.6616,4.6887,4.725,4.7466,4.775,4.8087,4.8105,4.8202,4.8375,4.8375,4.8471,4.8663,4.9336,4.9683,4.9702,5.0375,5.0702,5.1995,5.2747,5.3133,5.2307,5.0251,4.7131,4.2231,0.0,0.0,0.0,2.7915,2.7328,2.8668,2.9861,0.0,0.0,0.0,0.0,0.0,0.0,0.0,0.0,0.0,0.0,0.0,0.0,0.0,0.0,0.0,0.0,5.7997,5.7997,5.7997,5.7997,5.7997,5.7997,5.7997,5.7997,5.7997,5.7997,5.7997,5.7997,5.7997,5.7997,5.7997,5.7997,5.7997,0.0,0.0,5.7997,5.7997,5.7997,5.7997,5.7997,5.7997,5.7997,5.7997,5.7905,5.7171,5.6345,5.5464,5.4748,5.3922,5.3206,5.3206,5.3206,5.3206,5.3206,5.3206,5.3206,5.3206,5.3206,5.2803,5.1187,5.0123,4.9242,4.8471,4.8306,4.8306,4.8306,4.8306,4.8306,4.8306,4.8306,4.8306,4.8306,4.8306,4.8306,4.8306,4.8306,4.8269,4.8214,4.8196,4.8159,4.8104,4.7768,4.7729,4.8051,4.777,4.775,4.8087,4.8105,4.8471,4.926,4.9279,4.9663,5.0452,5.0529,5.0567,5.0567,5.0644,5.0702,5.0784,5.1867,5.2289,5.1481,4.9407,4.6195,4.0873,0.0,3.2533,2.9017,2.7383,2.6943,2.8081,2.9329,3.1146,0.0,3.5495,3.8322,0.0,0.0,0.0,0.0,0.0,0.0,0.0,0.0,0.0,0.0,0.0,0.0,5.7997,5.7997,5.7997,5.7997,5.7997,5.7997,5.7997,5.7997,5.7997,5.7997,5.7997,5.7997,5.7997,5.7997,5.7997,5.7997,5.7997,0.0,0.0,5.7997,5.7997,5.7997,5.7997,5.7997,5.7997,5.7997,5.7997,5.7886,5.7079,5.6271,5.5464,5.4656,5.3867,5.3206,5.3206,5.3206,5.3206,5.3206,5.3206,5.3206,5.3206,5.2839,5.2197,5.1077,5.0178,4.9352,4.8489,4.8306,4.8306,4.8306,4.8306,4.8306,4.8306,4.8306,4.8306,4.8306,4.8306,4.8306,4.8306,4.8306,4.8306,4.8306,4.8306,4.8306,4.8306,4.8361,4.8589,4.8965,4.9062,4.9258,4.9663,4.9663,4.9817,5.0183,5.0183,5.0337,5.0702,5.0702,5.0702,5.0702,5.0702,5.0702,4.8691,5.0105,5.071,4.9921,4.8049,4.4984,0.0,0.0,3.1971,2.8503,2.7163,2.6851,2.764,2.8723,3.0173,3.2265,3.3476,3.6064,4.1534,0.0,0.0,0.0,0.0,0.0,0.0,0.0,0.0,0.0,0.0,0.0,5.7997,5.7997,5.7997,5.7997,5.7997,5.7997,5.7997,5.7997,5.7997,5.7997,5.7997,5.7997,5.7997,5.7997,5.7997,5.7997,5.7997,0.0,0.0,5.7997,5.7997,5.7997,5.7997,5.7997,5.7997,5.7997,5.7997,5.785,5.6804,5.6069,5.5427,5.4381,5.3665,5.3206,5.3206,5.3206,5.3206,5.3206,5.3206,5.3206,5.3206,5.2784,5.2142,5.1353,5.0527,4.9719,4.8875,4.8489,4.8306,4.8306,4.8306,4.8306,4.8306,4.8306,4.8306,4.8306,4.8306,4.8306,4.8306,4.8306,4.8306,4.8306,4.8306,4.8306,4.8306,4.8779,4.9202,4.9475,4.9974,5.0399,5.0683,5.0702,5.0702,5.0702,5.0702,5.0702,5.0702,5.0702,5.0702,5.0702,5.0702,5.0702,4.5296,4.7131,4.8159,4.7352,4.5938,4.3461,0.0,3.5569,3.2651,2.8631,2.7163,2.6851,2.764,2.7805,2.887,3.2082,3.3927,3.6707,4.1607,0.0,0.0,0.0,0.0,0.0,0.0,0.0,0.0,0.0,0.0,0.0,5.7997,5.7997,5.7997,5.7997,5.7997,5.7997,5.7997,5.7997,5.7997,5.7997,5.7997,5.7997,5.7997,5.7997,5.7997,0.0,0.0,0.0,0.0,5.7997,5.7997,5.7997,5.7997,5.7997,5.7997,5.7997,5.7997,5.7758,5.6161,5.5592,5.5335,5.3739,5.3225,5.3206,5.3206,5.3206,5.3206,5.3206,5.3206,5.3206,5.3206,5.3206,5.2986,5.2179,5.1371,5.0563,4.9738,4.8912,4.8306,4.8306,4.8306,4.8306,4.8306,4.8306,4.8306,4.8306,4.8306,4.8306,4.8306,4.8306,4.8306,4.8306,4.8306,4.8306,4.8306,4.9029,4.9522,4.9504,5.0249,5.0702,5.0702,5.0702,5.0702,5.0702,5.0702,5.0702,5.0702,5.0702,5.0702,5.0702,5.0702,5.0702,3.979,4.1735,4.3057,4.1717,4.0983,3.9606,3.5826,3.3513,3.1494,2.9108,2.7989,2.7677,2.8484,2.8631,2.9861,3.3615,3.466,0.0,0.0,0.0,0.0,0.0,0.0,0.0,0.0,0.0,0.0,0.0,0.0,0.0,5.7997,5.7997,5.7997,5.7997,5.7997,5.7997,5.7997,5.7997,5.7997,5.7997,5.7997,5.7997,5.7997,5.7997,5.7997,0.0,0.0,0.0,0.0,5.7997,5.7997,5.7997,5.7997,5.7997,5.7997,5.7997,5.7997,5.7758,5.6143,5.5592,5.5317,5.372,5.3206,5.3206,5.3206,5.3206,5.3206,5.3206,5.3206,5.3206,5.3206,5.3206,5.3004,5.2179,5.1389,5.0582,4.9756,4.8912,4.8306,4.8306,4.8306,4.8306,4.8306,4.8306,4.8306,4.8306,4.8306,4.8306,4.8306,4.8306,4.8306,4.8306,4.855,4.8728,4.8728,4.893,4.9307,4.9872,5.0159,5.0421,5.0683,5.0702,5.0702,5.0702,5.0702,5.0702,5.0702,5.0702,5.0702,5.0702,5.0702,5.0702,0.0,3.7422,3.8652,3.7973,3.7551,3.6541,3.3568,3.188,3.0393,2.8503,2.7934,2.7952,2.8448,2.8815,3.0002,3.3146,3.4403,0.0,0.0,0.0,0.0,0.0,0.0,0.0,0.0,0.0,0.0,0.0,0.0,0.0,5.7997,5.7997,5.7997,5.7997,5.7997,5.7997,5.7997,5.7997,5.7997,5.7997,5.7997,5.7997,5.7997,5.7997,5.7997,0.0,0.0,0.0,0.0,5.7997,5.7997,5.7997,5.7997,5.7997,5.7997,5.7997,5.7813,5.7354,5.6033,5.539,5.4932,5.3628,5.3206,5.3206,5.3206,5.3206,5.3206,5.3206,5.3206,5.3206,5.3206,5.3206,5.3078,5.2564,5.161,5.0655,5.016,4.9132,4.8306,4.8306,4.8306,4.8306,4.8306,4.8306,4.8306,4.8306,4.8306,4.8306,4.8306,4.8306,4.8364,4.8513,4.8744,4.9011,4.9326,4.9337,4.9561,5.0068,5.0249,5.0442,5.0683,5.0702,5.0702,5.0702,5.0702,5.0702,5.0702,5.0702,5.0702,5.0702,5.0702,5.0702,0.0,3.3844,3.4642,3.5349,3.5,3.3899,3.1568,3.0522,0.0,2.7071,2.7236,2.7842,2.8007,2.8631,2.9732,3.1678,0.0,0.0,0.0,0.0,0.0,0.0,0.0,0.0,0.0,0.0,0.0,0.0,0.0,0.0,5.7997,5.7997,5.7997,5.7997,5.7997,5.7997,5.7997,5.7997,5.7997,5.7997,5.7997,5.7997,5.7997,5.7997,5.7997,0.0,0.0,0.0,0.0,5.7997,5.7997,5.7997,5.7997,5.7997,5.7997,5.7997,5.7483,5.6693,5.5868,5.506,5.4271,5.3463,5.3206,5.3206,5.3206,5.3206,5.3206,5.3206,5.3206,5.3206,5.3206,5.3206,5.3206,5.3206,5.1977,5.0802,5.0802,4.9481,4.8306,4.8306,4.8306,4.8306,4.8306,4.8306,4.8306,4.8306,4.8306,4.8306,4.8344,4.8326,4.8477,4.8897,4.8963,4.9295,5.0043,5.0092,5.0092,5.0135,5.0483,5.0702,5.0702,5.0702,5.0702,5.0702,5.0702,5.0702,5.0702,5.0702,5.0702,5.0702,5.0702,5.0702,2.6888,0.0,2.9255,2.8209,2.8723,2.9182,0.0,2.8062,2.8026,0.0,0.0,0.0,0.0,0.0,0.0,0.0,0.0,0.0,0.0,0.0,0.0,0.0,0.0,0.0,0.0,0.0,0.0,0.0,0.0,5.7997,5.7997,5.7997,5.7997,5.7997,5.7997,5.7997,5.7997,5.7997,5.7997,5.7997,5.7997,5.7997,5.7997,5.7997,5.7997,0.0,0.0,0.0,5.7997,5.7997,5.7997,5.7997,5.7997,5.7997,5.7997,5.7997,5.7483,5.6693,5.5868,5.506,5.4271,5.3463,5.3206,5.3206,5.3206,5.3206,5.3206,5.3206,5.3206,5.3206,5.3206,5.3206,5.3206,5.3206,5.1977,5.0802,5.0802,4.9481,4.8306,4.8306,4.8306,4.8306,4.8306,4.8306,4.8306,4.8306,4.8306,4.8421,4.8709,4.8744,4.8897,4.9326,4.9617,4.9879,5.0068,5.0092,5.0225,5.0544,5.0663,5.0702,5.0702,5.0702,5.0702,5.0702,5.0702,5.0702,5.0702,5.0702,5.0702,5.0702,5.0702,5.0702,2.4722,2.6833,2.8778,2.8264,2.8819,2.9237,2.8448,0.0,0.0,0.0,0.0,0.0,0.0,0.0,0.0,0.0,0.0,0.0,0.0,0.0,0.0,0.0,0.0,0.0,0.0,0.0,0.0,0.0,0.0,5.7997,5.7997,5.7997,5.7997,5.7997,5.7997,5.7997,5.7997,5.7997,5.7997,5.7997,5.7997,5.7997,5.7997,5.7997,5.7997,0.0,0.0,0.0,5.7997,5.7997,5.7997,5.7997,5.7997,5.7997,5.796,5.7593,5.695,5.6124,5.5317,5.4528,5.3794,5.3353,5.3206,5.3206,5.3206,5.3206,5.3206,5.3206,5.3206,5.3206,5.3206,5.3206,5.3206,5.3206,5.1977,5.0802,5.0802,4.9481,4.8306,4.8306,4.8306,4.8306,4.8306,4.8306,4.8306,4.8306,4.8306,4.8402,4.8604,4.8621,4.8847,4.9445,4.9692,4.9974,5.0336,5.0377,5.0483,5.0683,5.0702,5.0702,5.0702,5.0702,5.0702,5.0702,5.0702,5.0702,5.0702,5.0702,5.0702,5.0702,5.0702,5.0894,2.4649,2.7695,3.0705,3.0522,3.0834,3.0962,3.0044,0.0,0.0,0.0,0.0,0.0,0.0,0.0,0.0,0.0,0.0,0.0,0.0,0.0,0.0,0.0,0.0,0.0,0.0,0.0,0.0,0.0,0.0,5.7997,5.7997,5.7997,5.7997,5.7997,5.7997,5.7997,5.7997,5.7997,5.7997,5.7997,5.7997,5.7997,5.7997,5.7997,5.7997,5.7997,0.0,0.0,5.7997,5.7997,5.7997,5.7997,5.7997,5.7997,5.7905,5.7097,5.629,5.5464,5.4546,5.3775,5.3206,5.3206,5.3206,5.3206,5.3206,5.3206,5.3206,5.3206,5.3206,5.3206,5.3206,5.3206,5.3206,5.3206,5.1977,5.0802,5.0802,4.9481,4.8306,4.8306,4.8306,4.8306,4.8306,4.8306,4.8306,4.8306,4.8306,4.8344,4.8383,4.8458,4.8763,4.9504,4.9664,4.9949,5.0624,5.0702,5.0702,5.0702,5.0702,5.0702,5.0702,5.0702,5.0702,5.0702,5.0702,5.0702,5.0702,5.0702,5.0702,5.0702,5.0818,5.1241,2.6686,3.0173,3.2137,2.7497,2.8356,3.0008,0.0,0.0,0.0,0.0,0.0,0.0,0.0,0.0,0.0,0.0,0.0,0.0,0.0,0.0,0.0,0.0,0.0,0.0,0.0,0.0,0.0,0.0,0.0,5.7997,5.7997,5.7997,5.7997,5.7997,5.7997,5.7997,5.7997,5.7997,5.7997,5.7997,5.7997,5.7997,5.7997,5.7997,5.7997,5.7997,0.0,5.7997,5.7997,5.7997,5.7997,5.7997,5.7997,5.7997,5.7905,5.7097,5.629,5.5372,5.3904,5.3316,5.3206,5.3206,5.3206,5.3206,5.3206,5.3206,5.3206,5.3206,5.3206,5.3206,5.3206,5.3206,5.3206,5.3206,5.1977,5.0802,5.0802,4.9481,4.8306,4.8306,4.8306,4.8306,4.8306,4.8306,4.8306,4.8306,4.8306,4.8421,4.8779,4.9126,4.9504,4.9949,5.0313,5.0565,5.0683,5.0702,5.0702,5.0702,5.0702,5.0702,5.0702,5.0702,5.0702,5.0702,5.0702,5.0702,5.0702,5.0702,5.0702,5.0721,5.1395,5.1779,2.5548,2.8466,3.0705,2.8521,3.1421,3.4486,0.0,0.0,0.0,0.0,0.0,0.0,0.0,0.0,0.0,0.0,0.0,0.0,0.0,0.0,0.0,0.0,0.0,0.0,0.0,0.0,0.0,0.0,0.0,0.0,5.7997,5.7997,5.7997,5.7997,5.7997,5.7997,5.7997,5.7997,5.7997,5.7997,5.7997,5.7997,5.7997,5.7997,5.7997,5.7997,0.0,5.7997,5.7997,5.7997,5.7997,5.7997,5.7997,5.7721,5.7207,5.5959,5.4987,5.4197,5.3463,5.3206,5.3206,5.3206,5.3206,5.3206,5.3206,5.3206,5.3206,5.3206,5.3206,5.3206,5.3206,5.3206,5.3096,5.2656,5.1646,5.0674,5.0251,4.9187,4.8306,4.8306,4.8306,4.8306,4.8306,4.8306,4.8306,4.8306,4.8306,4.8458,4.8829,4.9043,4.9416,5.0043,5.0272,5.0442,5.0683,5.0702,5.0702,5.0702,5.0702,5.0702,5.0702,5.0702,5.0702,5.0702,5.0702,5.0702,5.0702,5.0702,5.0914,5.1356,5.1741,5.2414,2.4887,2.7126,2.9531,3.0522,0.0,0.0,0.0,0.0,0.0,0.0,0.0,0.0,0.0,0.0,0.0,0.0,0.0,0.0,0.0,0.0,0.0,0.0,0.0,0.0,0.0,0.0,0.0,0.0,0.0,0.0,5.7997,5.7997,5.7997,5.7997,5.7997,5.7997,5.7997,5.7997,5.7997,5.7997,5.7997,5.7997,5.7997,5.7997,5.7997,5.7997,5.7997,5.7997,5.7997,5.7997,5.7886,5.7721,5.7721,5.7116,5.6088,5.4858,5.3904,5.3206,5.3206,5.3206,5.3206,5.3206,5.3206,5.3206,5.3206,5.3206,5.3206,5.3206,5.3206,5.3206,5.3206,5.3078,5.2766,5.2142,5.1242,5.0343,4.9719,4.8912,4.8306,4.8306,4.8306,4.8306,4.8306,4.8306,4.8306,4.8306,4.8402,4.8532,4.8863,4.9075,4.9416,5.0043,5.0183,5.0377,5.0663,5.0702,5.0702,5.0702,5.0702,5.0702,5.0702,5.0702,5.0702,5.0702,5.0702,5.0702,5.0702,5.0702,5.1106,5.1914,5.2125,5.3029,2.6924,2.8796,3.0485,3.2045,0.0,0.0,0.0,0.0,0.0,0.0,0.0,0.0,0.0,0.0,0.0,0.0,0.0,0.0,0.0,0.0,0.0,0.0,0.0,0.0,0.0,0.0,0.0,0.0,0.0,0.0,5.7997,5.7997,5.7997,5.7997,5.7997,5.7997,5.7997,5.7997,5.7997,5.7997,5.7997,5.7997,5.7997,5.7997,5.7997,5.7997,5.7997,5.7997,5.7997,5.7997,5.7556,5.6895,5.6895,5.5941,5.4564,5.4436,5.3904,5.3206,5.3206,5.3206,5.3206,5.3206,5.3206,5.3206,5.3206,5.3206,5.3206,5.3206,5.3206,5.3206,5.3206,5.2656,5.2068,5.1995,5.0802,4.9646,4.9591,4.8912,4.8306,4.8306,4.8306,4.8306,4.8306,4.8306,4.8306,4.8306,4.864,4.8863,4.8897,4.9561,5.0043,5.0092,5.0421,5.0663,5.0702,5.0702,5.0702,5.0702,5.0702,5.0702,5.0702,5.0702,5.0702,5.0702,5.0702,5.0702,5.0702,5.0702,5.1106,5.1933,5.2741,5.3606,2.5309,2.7824,3.0595,3.221,0.0,0.0,0.0,0.0,0.0,0.0,0.0,0.0,0.0,0.0,0.0,0.0,0.0,0.0,0.0,0.0,0.0,0.0,0.0,0.0,0.0,0.0,0.0,0.0,0.0,0.0,5.7997,5.7997,5.7997,5.7997,5.7997,5.7997,5.7997,5.7997,5.7997,5.7997,5.7997,5.7997,5.7997,5.7997,5.7997,5.7997,5.7997,5.7721,5.7262,5.7262,5.6785,5.5996,5.55,5.495,5.4344,5.3849,5.3463,5.3206,5.3206,5.3206,5.3206,5.3206,5.3206,5.3206,5.3206,5.3206,5.3206,5.3206,5.2839,5.2564,5.3078,5.2601,5.1867,5.1371,5.0398,4.9426,4.8912,4.8526,4.8306,4.8306,4.8306,4.8306,4.8306,4.8306,4.8306,4.8306,4.8421,4.8728,4.9202,4.9532,4.9924,5.0421,5.0604,5.0702,5.0702,5.0702,5.0702,5.0702,5.0702,5.0702,5.0702,5.0702,5.0702,5.0702,5.0702,5.0702,5.0702,5.0702,5.1106,5.1914,5.2241,5.3145,2.4961,2.753,3.0595,0.0,0.0,0.0,0.0,0.0,0.0,0.0,0.0,0.0,0.0,0.0,0.0,0.0,0.0,0.0,0.0,0.0,0.0,0.0,0.0,0.0,0.0,0.0,0.0,0.0,0.0,0.0,0.0,5.7997,5.7886,5.7629,5.7611,5.7501,5.7244,5.7244,5.7244,5.7244,5.7244,5.7373,5.7611,5.7611,5.7483,5.7244,5.7244,5.6932,5.6418,5.6418,5.5941,5.5133,5.4344,5.4014,5.3959,5.3408,5.3206,5.3206,5.3206,5.3206,5.3206,5.3206,5.3206,5.3206,5.3206,5.3023,5.2821,5.2821,5.2234,5.1756,5.2307,5.1848,5.1096,5.0545,4.9774,4.9022,4.8434,4.8306,4.8306,4.8306,4.8306,4.8306,4.8306,4.8306,4.8306,4.8306,4.8513,4.8881,4.9416,4.9719,5.0092,5.0624,5.0702,5.0702,5.0702,5.0702,5.0702,5.0702,5.0702,5.0702,5.0702,5.0702,5.0702,5.0702,5.0702,5.0702,5.0702,5.0702,5.1106,5.1914,5.1914,5.2722,2.6594,2.8374,0.0,0.0,0.0,0.0,0.0,0.0,0.0,0.0,0.0,0.0,0.0,0.0,0.0,0.0,0.0,0.0,0.0,0.0,0.0,0.0,0.0,0.0,0.0,0.0,0.0,0.0,0.0,0.0,0.0,5.7978,5.7611,5.6822,5.6804,5.6418,5.5592,5.5592,5.5592,5.5592,5.5592,5.6014,5.6804,5.6804,5.6345,5.5592,5.5592,5.5592,5.5574,5.5574,5.5097,5.4308,5.3518,5.3206,5.3206,5.3206,5.3206,5.3206,5.3206,5.3206,5.3206,5.3206,5.3206,5.3206,5.3206,5.2637,5.1977,5.1977,5.1408,5.0802,5.0802,5.0178,4.9572,4.9591,4.893,4.8306,4.8306,4.8306,4.8306,4.8306,4.8306,4.8306,4.8306,4.8306,4.8306,4.8306,4.8996,4.9504,4.9504,5.0206,5.0702,5.0702,5.0702,5.0702,5.0702,5.0702,5.0702,5.0702,5.0702,5.0702,5.0702,5.0702,5.0702,5.0702,5.0702,5.0702,5.0702,5.0702,5.1106,5.1895,5.1895,5.2413,2.5897,0.0,0.0,0.0,0.0,0.0,0.0,0.0,0.0,0.0,0.0,0.0,0.0,0.0,0.0,0.0,0.0,0.0,0.0,0.0,0.0,0.0,0.0,0.0,0.0,0.0,0.0,0.0,0.0,0.0,0.0,5.6308,5.6198,5.5959,5.5959,5.5831,5.5592,5.5592,5.5592,5.5592,5.5592,5.5702,5.5959,5.5959,5.5812,5.5592,5.5592,5.5262,5.4711,5.4161,5.3775,5.3537,5.3298,5.3206,5.3206,5.3206,5.3206,5.3206,5.3206,5.3206,5.3206,5.3206,5.2821,5.2362,5.2362,5.1793,5.1151,5.1151,5.0582,4.9958,4.9958,4.9315,4.8838,4.9444,4.893,4.8306,4.8306,4.8306,4.8306,4.8306,4.8306,4.8306,4.8306,4.8306,4.8402,4.8692,4.893,4.9295,4.9853,5.0377,5.0702,5.0702,5.0702,5.0702,5.0702,5.0702,5.0702,5.0702,5.0702,5.0702,5.0702,5.0702,5.0702,5.0702,5.0702,5.0702,5.0702,5.0702,5.0818,5.1048,5.1144,5.1664,2.8429,0.0,0.0,0.0,0.0,0.0,0.0,0.0,0.0,0.0,0.0,0.0,0.0,0.0,0.0,0.0,0.0,0.0,0.0,0.0,0.0,0.0,0.0,0.0,0.0,0.0,0.0,0.0,0.0,0.0,0.0,5.5592,5.5445,5.5115,5.5115,5.4968,5.4638,5.4638,5.4638,5.4638,5.4638,5.4638,5.4656,5.4968,5.495,5.4638,5.4638,5.4363,5.3904,5.3408,5.3206,5.3206,5.3206,5.3206,5.3206,5.3206,5.3206,5.3206,5.3206,5.3004,5.2729,5.2729,5.2179,5.1518,5.1518,5.0949,5.0306,5.0306,4.9719,4.9077,4.9077,4.8691,4.8434,4.8948,4.8673,4.8306,4.8306,4.8306,4.8306,4.8306,4.8306,4.8306,4.8306,4.8421,4.8621,4.8863,4.9171,4.9617,5.0249,5.0544,5.0702,5.0702,5.0702,5.0702,5.0702,5.0702,5.0702,5.0702,5.0702,5.0702,5.0702,5.0702,5.0702,5.0702,5.0702,5.0702,5.0702,5.0702,5.0702,5.0702,5.0856,5.1181,0.0,0.0,0.0,0.0,0.0,0.0,0.0,0.0,0.0,0.0,0.0,0.0,0.0,0.0,0.0,0.0,0.0,0.0,0.0,0.0,0.0,0.0,0.0,0.0,0.0,0.0,0.0,0.0,0.0,0.0,0.0,5.5372,5.5042,5.4308,5.4289,5.394,5.3225,5.3206,5.3206,5.3206,5.3206,5.3206,5.3225,5.3959,5.3904,5.3206,5.3206,5.3206,5.3206,5.3206,5.3206,5.3206,5.3206,5.3206,5.3206,5.3206,5.317,5.3096,5.3096,5.2564,5.1885,5.1885,5.1353,5.0692,5.0692,5.0105,4.9462,4.9462,4.8912,4.8306,4.8306,4.8306,4.8306,4.8306,4.8306,4.8306,4.8306,4.8306,4.8306,4.8306,4.8344,4.8364,4.8364,4.8692,4.8963,4.9011,4.9673,5.0291,5.0663,5.0702,5.0702,5.0702,5.0702,5.0702,5.0702,5.0702,5.0702,5.0702,5.0702,5.0702,5.0702,5.0702,5.0702,5.0702,5.0702,5.0702,5.0702,5.0702,5.0721,5.0721,5.0875,5.0993,0.0,0.0,0.0,0.0,0.0,0.0,0.0,0.0,0.0,0.0,0.0,0.0,0.0,0.0,0.0,0.0,0.0,0.0,0.0,0.0,0.0,0.0,0.0,0.0,0.0,0.0,0.0,0.0,0.0,0.0,5.372,5.372,5.3647,5.3463,5.3463,5.339,5.3206,5.3206,5.3206,0.0,5.3206,5.3206,5.3225,5.339,5.3371,5.3206,5.3206,5.3206,5.3206,5.3206,5.3206,5.3206,5.3206,5.3206,5.3206,5.3206,5.2803,5.2252,5.2252,5.172,5.1059,5.1059,5.0508,4.9848,4.9848,4.926,4.8581,4.8581,4.8434,4.8306,4.8306,4.8306,4.8306,4.8306,4.8306,4.8306,4.8306,4.8306,4.8306,4.8306,4.8532,4.8779,4.8779,4.9108,4.9475,4.98,5.0272,5.0604,5.0683,5.0702,5.0702,5.0702,5.0702,5.0702,5.0702,5.0702,5.0702,5.0702,5.0702,5.0702,5.0702,5.0702,5.0702,5.0702,5.0702,5.0702,5.0702,5.0818,5.0875,5.0875,5.1049,5.1144,0.0,0.0,0.0,0.0,0.0,0.0,0.0,0.0,0.0,0.0,0.0,0.0,0.0,0.0,0.0,0.0,0.0,0.0,0.0,0.0,0.0,0.0,0.0,0.0,0.0,0.0,0.0,0.0,0.0,5.3206,5.3206,5.3206,5.3206,5.3206,5.3206,5.3206,5.3206,5.3206,5.3206,5.3206,5.3206,5.3206,5.3206,5.3206,5.3206,5.3206,5.3206,5.3206,5.3206,5.3206,5.3206,5.3206,5.3206,5.2968,5.2637,5.2637,5.2123,5.1426,5.1426,5.0894,5.0215,5.0215,4.9664,4.8967,4.8967,4.8655,4.8306,4.8306,4.8306,4.8306,4.8306,4.8306,4.8306,4.8306,4.8306,4.8306,4.8306,4.8306,4.8306,4.8306,4.8495,4.8586,4.8586,4.9126,4.9719,5.0313,5.0565,5.0702,5.0702,5.0702,5.0702,5.0702,5.0702,5.0702,5.0702,5.0702,5.0702,5.0702,5.0702,5.0702,5.0702,5.0702,5.0702,5.0702,5.0702,5.0721,5.0818,5.0875,5.0929,5.099,5.1141,5.1203,0.0,0.0,0.0,0.0,0.0,0.0,0.0,0.0,0.0,0.0,0.0,0.0,0.0,0.0,0.0,0.0,0.0,0.0,0.0,0.0,0.0,0.0,0.0,0.0,0.0,0.0,0.0,0.0,0.0,5.2803,5.2803,5.2803,5.2803,5.2803,5.2803,5.2803,5.2803,5.2803,5.2803,5.2803,5.2803,5.2803,5.2803,5.2803,5.2949,5.3206,5.3206,5.3133,5.3004,5.3004,5.2913,5.2803,5.2803,5.238,5.1775,5.1775,5.1279,5.0582,5.0582,5.005,4.937,4.937,4.8893,4.8306,4.8306,4.8306,4.8306,4.8306,4.8326,4.8383,4.8383,4.8458,4.8513,4.8513,4.8513,4.8458,4.8344,4.8306,4.8306,4.8306,4.8421,4.855,4.8692,4.9265,4.9924,5.0604,5.0702,5.0702,5.0702,5.0702,5.0702,5.0702,5.0702,5.0702,5.0702,5.0721,5.0721,5.0721,5.076,5.076,5.076,5.076,5.076,5.076,5.0741,5.0818,5.0933,5.0952,5.1015,5.1117,5.1199,5.1238,0.0,0.0,0.0,0.0,0.0,0.0,0.0,0.0,0.0,0.0,0.0,0.0,0.0,0.0,0.0,0.0,0.0,0.0,0.0,0.0,0.0,0.0,0.0,0.0,0.0,0.0,0.0,0.0,5.1132,5.1132,5.1132,5.1132,5.1132,5.1132,5.1132,5.1132,5.1132,5.1132,5.1132,5.1132,5.1132,5.1132,5.1132,5.1132,5.1885,5.3206,5.3206,5.2803,5.216,5.216,5.1756,5.1132,5.1132,5.1059,5.0967,5.0967,5.0453,4.9738,4.9738,4.9187,4.8471,4.8471,4.8398,4.8306,4.8306,4.8306,4.8306,4.8306,4.8532,4.8813,4.8813,4.9094,4.9326,4.9326,4.9326,4.9158,4.8458,4.8306,4.8306,4.8306,4.8881,4.9561,5.0272,5.0483,5.0584,5.0683,5.0702,5.0702,5.0702,5.0702,5.0702,5.0702,5.0702,5.0702,5.0702,5.0818,5.0875,5.0875,5.0991,5.1049,5.1049,5.1049,5.1049,5.1049,5.0933,5.0952,5.1068,5.1126,5.1164,5.118,5.1316,5.1372,0.0,0.0,0.0,0.0,0.0,0.0,0.0,0.0,0.0,0.0,0.0,0.0,0.0,0.0,0.0,0.0,0.0,0.0,0.0,0.0,0.0,0.0,0.0,0.0,0.0,0.0,0.0,0.0,5.0802,5.0802,5.0802,5.0802,5.0802,5.0802,5.0802,5.0802,5.0802,5.0802,5.0802,5.0802,5.0802,5.0802,5.0802,5.0968,5.1374,5.1867,5.1867,5.1646,5.1334,5.1334,5.1114,5.0842,5.1025,5.0824,5.0417,5.0668,5.0232,4.9542,4.9542,4.928,4.8963,4.8963,4.8963,4.8963,4.8963,4.8963,4.8963,4.8963,4.9075,4.9234,4.9234,4.9356,4.9445,4.9326,4.9386,4.9445,4.9234,4.9094,4.8963,4.8963,4.9265,4.9692,5.0272,5.0358,5.0442,5.0663,5.0702,5.0702,5.0702,5.0702,5.0702,5.0702,5.076,5.0818,5.0818,5.0933,5.1006,5.1015,5.1067,5.1106,5.1106,5.1106,5.1119,5.1145,5.1064,5.1045,5.1164,5.1183,5.1235,5.1304,5.1372,5.1406,0.0,0.0,0.0,0.0,0.0,0.0,0.0,0.0,0.0,0.0,0.0,0.0,0.0,0.0,0.0,0.0,0.0,0.0,0.0,0.0,0.0,0.0,0.0,0.0,0.0,0.0,0.0,0.0,5.016,5.016,5.016,5.016,5.016,5.016,5.016,5.016,5.016,5.016,5.016,5.0178,5.026,5.0319,5.0319,5.067,5.0724,5.0509,5.0916,5.0971,5.0786,5.0786,5.0657,5.0509,5.0741,5.0467,4.9959,5.0289,5.0002,4.9504,4.9504,4.9504,4.9504,4.9504,4.9504,4.9504,4.9504,4.9504,4.9504,4.9504,4.9561,4.9645,4.9645,4.9719,4.9746,4.9561,4.9645,4.98,4.98,4.9645,4.9532,4.9617,4.9645,4.9773,5.0183,5.0249,5.0358,5.0644,5.0702,5.0702,5.0702,5.0721,5.0741,5.0741,5.0875,5.0952,5.0943,5.1066,5.1119,5.1127,5.1152,5.1179,5.1179,5.118,5.1212,5.126,5.1199,5.1199,5.1252,5.1252,5.1298,5.1406,5.1406,5.1406,0.0,0.0,0.0,0.0,0.0,0.0,0.0,0.0,0.0,0.0,0.0,0.0,0.0,0.0,0.0,0.0,0.0,0.0,0.0,0.0,0.0,0.0,0.0,0.0,0.0,0.0,0.0,0.0,4.8434,4.8434,4.8434,4.8434,4.8434,4.8434,4.8434,4.8434,4.8434,4.8434,4.8434,4.8434,4.8822,4.8993,4.9027,4.9427,4.9577,4.9642,5.1186,5.1412,5.0715,5.0715,5.0263,4.9577,4.9577,4.9588,4.955,4.9531,4.9541,4.9504,4.9504,4.9504,4.9504,4.9504,4.9504,4.9504,4.9504,4.9504,4.9504,4.9504,4.9773,5.0068,5.0068,5.0358,5.0624,5.0624,5.0624,5.0421,4.9692,4.9504,4.9589,4.9974,5.0068,5.0202,5.0604,5.0663,5.0683,5.0702,5.0702,5.0702,5.0702,5.0818,5.0895,5.0895,5.101,5.1095,5.1092,5.1141,5.1203,5.1183,5.1316,5.1386,5.1386,5.1375,5.1386,5.1395,5.1395,5.1393,5.1385,5.1385,5.1386,5.1406,5.1406,5.1406,0.0,0.0,0.0,0.0,0.0,0.0,0.0,0.0,0.0,0.0,0.0,0.0,0.0,0.0,0.0,0.0,0.0,0.0,0.0,0.0,0.0,0.0,0.0,0.0,0.0,0.0,0.0,0.0,0.0,4.8306,4.8306,4.8306,4.8306,4.8306,4.8306,4.8306,4.8306,4.8306,4.8421,4.8692,4.8829,4.9062,4.9295,4.9719,4.9898,4.9917,5.0765,5.0653,4.9908,4.9908,4.9768,4.9551,4.9773,4.9898,4.9924,5.0183,5.0272,5.0272,5.0272,5.0272,5.0272,5.0272,5.0272,5.0272,5.0272,5.0272,5.0272,5.0272,5.0358,5.0483,5.0483,5.0604,5.0702,5.0702,5.0702,5.0624,5.0336,5.0272,5.0313,5.0462,5.0483,5.0544,5.0683,5.0702,5.0702,5.0702,5.0702,5.0721,5.0837,5.0875,5.0929,5.1023,5.1114,5.1163,5.1164,5.1258,5.133,5.133,5.1372,5.1406,5.1406,5.1396,5.1401,5.1408,5.1408,5.1401,5.1406,5.1406,5.1406,5.1406,5.1406,5.1406,0.0,0.0,0.0,0.0,0.0,0.0,0.0,0.0,0.0,0.0,0.0,0.0,0.0,0.0,0.0,0.0,0.0,0.0,0.0,0.0,0.0,0.0,0.0,0.0,0.0,0.0,0.0,0.0,0.0,0.0,4.7498,4.7498,4.7498,4.7498,4.7498,4.7627,4.7902,4.8016,4.8362,4.8897,4.9171,4.9445,4.9719,5.0135,5.0294,5.0313,5.0565,5.0399,4.9898,4.9898,4.9898,4.9924,5.0183,5.0294,5.0336,5.0604,5.0702,5.0702,5.0702,5.0702,5.0702,5.0702,5.0702,5.0702,5.0702,5.0702,5.0702,5.0702,5.0702,5.0702,5.0702,5.0702,5.0702,5.0702,5.0702,5.0702,5.0702,5.0702,5.0702,5.0702,5.0702,5.0702,5.0702,5.0702,5.0702,5.0702,5.0702,5.0741,5.0895,5.0928,5.1018,5.1127,5.1218,5.1257,5.1257,5.1357,5.1406,5.1406,5.1406,5.1406,5.1406,5.1406,5.1406,5.1406,5.1406,5.1406,5.1406,5.1406,5.1406,5.1406,5.1406,5.1406,0.0,0.0,0.0,0.0,0.0,0.0,0.0,0.0,0.0,0.0,0.0,0.0,0.0,0.0,0.0,0.0,0.0,0.0,0.0,0.0,0.0,0.0,0.0,0.0,0.0,0.0,0.0,0.0,4.5902,4.5902,4.5902,4.5902,4.5883,4.592,4.592,4.6305,4.7114,4.7485,4.8073,4.8889,4.9671,5.0016,5.004,5.0446,5.0606,5.0606,5.0606,5.0625,5.0644,5.0683,5.0702,5.0702,5.0702,5.0702,5.0702,5.0702,5.0702,5.0702,5.0702,5.0702,5.0702,5.0702,5.0702,5.0702,5.0702,5.0702,5.0702,5.0702,5.0702,5.0702,5.0702,5.0702,5.0702,5.0702,5.0702,5.0702,5.0702,5.0702,5.0702,5.0702,5.0702,5.0702,5.0702,5.0702,5.0702,5.0702,5.0702,5.0741,5.0895,5.1029,5.1127,5.12,5.1328,5.1406,5.1406,5.1406,5.1406,5.1406,5.1406,5.1406,5.1406,5.1406,5.1406,5.1406,5.1406,5.1406,5.1406,5.1406,5.1406,5.1406,5.1406,5.1406,2.0668,0.0,0.0,0.0,0.0,0.0,0.0,0.0,0.0,0.0,0.0,0.0,0.0,0.0,0.0,0.0,0.0,0.0,0.0,0.0,0.0,0.0,0.0,0.0,0.0,0.0,0.0,0.0,4.5902,4.5902,4.5902,4.5902,4.6009,4.6246,4.6246,4.6522,4.7011,4.7132,4.7429,4.7908,4.8104,4.8372,4.8662,4.876,4.8817,4.8817,4.8817,4.9183,4.9798,5.0433,5.0702,5.0702,5.0702,5.0702,5.0702,5.0702,5.0702,5.0702,5.0702,5.0702,5.0702,5.0702,5.0702,5.0702,5.0702,5.0702,5.0702,5.0702,5.0702,5.0702,5.0702,5.0702,5.0702,5.0702,5.0702,5.0702,5.0702,5.0702,5.0702,5.0702,5.0702,5.0702,5.0702,5.0702,5.0702,5.0702,5.0779,5.0895,5.1029,5.1122,5.1217,5.133,5.1377,5.1406,5.1406,5.1406,5.1406,5.1406,5.1406,5.1406,5.1406,5.1406,5.1406,5.1406,5.1406,5.1406,5.1406,5.1406,5.1406,5.1406,5.1406,5.1406,0.0,0.0,0.0,0.0,0.0,0.0,0.0,2.9989,0.0,0.0,0.0,0.0,0.0,0.0,0.0,0.0,0.0,0.0,0.0,0.0,0.0,0.0,0.0,0.0,0.0,4.4617,4.4945,4.5115,4.5115,4.5164,4.5342,4.5342,4.545,4.5627,4.5645,4.5913,4.6487,4.663,4.696,4.7514,4.7665,4.7873,4.8105,4.8105,4.8105,4.8105,4.8105,4.8394,4.8894,4.9413,4.9817,5.0106,4.976,4.9644,4.9702,4.9702,4.9721,4.9779,4.9779,4.9779,4.9779,4.9779,4.9779,4.9779,4.9779,4.9779,4.9779,4.9779,5.0029,5.0414,5.076,5.0875,5.0875,5.0875,5.0875,5.0875,5.0875,5.0875,5.0837,5.0721,5.0702,5.0702,5.0702,5.0741,5.0779,5.0779,5.0914,5.1029,5.1126,5.1183,5.1252,5.1382,5.1406,5.1406,5.1406,5.1406,5.1406,5.1406,5.1406,5.1374,5.132,5.1369,5.1367,5.1328,5.1367,5.1406,5.1406,5.1406,5.1406,5.1406,5.1406,5.1406,0.0,2.419,0.0,0.0,0.0,0.0,2.8833,2.92,0.0,0.0,0.0,0.0,0.0,0.0,0.0,0.0,0.0,0.0,0.0,0.0,0.0,0.0,0.0,0.0,4.3548,4.3597,4.3758,4.4028,4.4076,4.4204,4.458,4.458,4.4624,4.4657,4.4676,4.5016,4.5753,4.6073,4.6571,4.7293,4.7645,4.7817,4.7817,4.7817,4.7817,4.7817,4.7817,4.7875,4.7971,4.7875,4.8413,4.9202,4.8432,4.8202,4.8317,4.8315,4.841,4.8489,4.8489,4.8489,4.8489,4.8489,4.8489,4.8489,4.8489,4.8489,4.8489,4.8489,4.9066,4.9816,5.0623,5.0816,5.0816,5.0816,5.0893,5.0951,5.0951,5.1028,5.1028,5.0797,5.0741,5.0741,5.0721,5.0837,5.0933,5.0931,5.1029,5.1126,5.1183,5.12,5.127,5.1384,5.1406,5.1406,5.1406,5.1384,5.1377,5.1377,5.1363,5.1304,5.118,5.13,5.1302,5.1188,5.1307,5.1365,5.1365,5.1386,5.1406,5.1406,5.1406,5.1386,2.738,2.7915,2.8686,0.0,0.0,0.0,0.0,2.6741,0.0,0.0,0.0,0.0,0.0,0.0,0.0,0.0,0.0,0.0,0.0,0.0,0.0,0.0,0.0,0.0,4.3893,4.4194,4.4419,4.4474,4.4474,4.4527,4.4599,4.458,4.4707,4.4988,4.4988,4.5194,4.563,4.5706,4.5821,4.5975,4.6049,4.6086,4.6086,4.6086,4.6086,4.6086,4.6086,4.6509,4.7163,4.6509,4.7144,4.8491,4.8318,4.8336,4.8468,4.847,4.848,4.8499,4.8499,4.8499,4.8499,4.8499,4.8499,4.8499,4.8499,4.8499,4.8499,4.8499,4.8615,4.879,4.8965,4.9004,4.9004,4.9004,4.954,5.0045,5.0045,5.06,5.1086,5.1027,5.1025,5.0991,5.0895,5.0972,5.1063,5.1069,5.1125,5.1183,5.1203,5.1288,5.1369,5.1406,5.1406,5.1406,5.1406,5.1298,5.1235,5.1235,5.1189,5.1141,5.1117,5.115,5.1147,5.1117,5.1145,5.1164,5.1164,5.1313,5.1406,5.1406,5.1406,5.1341,0.0,0.0,3.0008,2.92,0.0,0.0,0.0,0.0,2.7705,0.0,0.0,0.0,0.0,0.0,0.0,0.0,0.0,0.0,0.0,0.0,0.0,0.0,0.0,0.0,4.3606,4.3834,4.4203,4.4811,4.5011,4.5096,4.5096,4.5096,4.518,4.5342,4.5342,4.5419,4.5586,4.5586,4.5586,4.5586,4.5586,4.5586,4.5586,4.5586,4.5624,4.5699,4.5699,4.6007,4.6411,4.6018,4.6379,4.72,4.7124,4.7191,4.7295,4.7294,4.7359,4.7406,4.7406,4.7406,4.7406,4.7406,4.7406,4.7406,4.7406,4.7406,4.7484,4.7933,4.805,4.8152,4.8582,4.8699,4.8699,4.8699,4.903,4.9343,4.9343,4.9683,4.9975,4.9917,4.9954,5.022,5.0879,5.108,5.1143,5.1149,5.1241,5.1288,5.1288,5.1351,5.1406,5.1406,5.1336,5.1288,5.1288,5.1212,5.1161,5.1145,5.1109,5.1063,5.1005,5.1063,5.1103,5.1102,5.1102,5.1102,5.1102,5.1206,5.1253,5.126,5.126,5.1206,0.0,0.0,0.0,0.0,0.0,3.0318,0.0,0.0,0.0,2.972,0.0,0.0,0.0,0.0,0.0,0.0,0.0,0.0,0.0,0.0,0.0,0.0,0.0,0.0,0.0,4.2588,4.3126,4.4607,4.4517,4.4662,4.5316,4.5336,4.5432,4.5586,4.5586,4.5586,4.5586,4.5586,4.5586,4.5586,4.5586,4.5605,4.5624,4.5624,4.5699,4.5815,4.5822,4.5844,4.5945,4.5944,4.6009,4.6119,4.5983,4.6026,4.6129,4.6129,4.6216,4.6308,4.6308,4.6308,4.6308,4.6308,4.6308,4.6308,4.6308,4.6308,4.6445,4.7148,4.7344,4.7519,4.8223,4.8398,4.8398,4.8398,4.8535,4.8652,4.8652,4.8771,4.8869,4.8752,4.8825,4.9277,5.044,5.0835,5.1022,5.1022,5.1232,5.1348,5.1191,5.1144,5.107,5.0894,5.0899,5.0853,5.0683,5.0753,5.0796,5.0798,5.0798,5.0798,5.0875,5.0972,5.1029,5.1029,5.1029,5.1029,5.1029,5.1029,5.1054,5.1105,5.1105,5.1086,0.0,0.0,0.0,0.0,3.4127,0.0,0.0,0.0,2.9924,2.8072,0.0,0.0,0.0,0.0,0.0,0.0,0.0,0.0,0.0,0.0,0.0,0.0,0.0,0.0,0.0,4.0002,4.0751,4.3167,4.1261,4.1296,4.4278,4.4451,4.4797,4.5566,4.5586,4.5586,4.5586,4.5586,4.5586,4.5586,4.5586,4.5643,4.5776,4.5776,4.5815,4.589,4.5879,4.5958,4.6065,4.6078,4.6155,4.6256,4.6133,4.6152,4.628,4.628,4.6286,4.6308,4.6308,4.6308,4.6308,4.6308,4.6308,4.6308,4.6308,4.6308,4.6328,4.6426,4.6445,4.6465,4.6562,4.6601,4.6601,4.6601,4.7187,4.7754,4.7754,4.8358,4.8903,4.8884,4.8881,4.8917,4.8955,4.9722,5.0303,5.0303,5.0935,5.1133,5.043,5.0237,4.9865,4.9077,4.9576,4.964,4.8854,4.941,4.9757,4.9759,4.9663,4.9933,5.0683,5.0741,5.0741,5.0741,5.0741,5.0741,5.0741,5.0741,5.0875,5.1086,5.1086,5.1028,0.0,0.0,0.0,0.0,0.0,0.0,3.0264,0.0,2.9801,0.0,0.0,0.0,0.0,0.0,0.0,0.0,0.0,0.0,0.0,0.0,0.0,0.0,0.0,0.0,0.0,0.0,0.0,0.0,3.9431,3.9585,4.197,4.3047,4.3989,4.4816,4.5336,4.5586,4.5586,4.5586,4.5624,4.5719,4.5719,4.5776,4.5853,4.5872,4.5921,4.6025,4.6027,4.61,4.6224,4.6216,4.6247,4.6287,4.6152,4.6184,4.6287,4.6212,4.6173,4.6173,4.6086,4.6075,4.6075,4.6075,4.6075,4.6075,4.6075,4.6075,4.6075,4.6075,4.6075,4.6075,4.6075,4.6136,4.6172,4.6172,4.6523,4.6855,4.6855,4.7129,4.7383,4.7383,4.7383,4.7375,4.7326,4.8505,4.9453,4.9453,4.9678,4.9702,4.9372,4.921,4.9,4.8615,4.879,4.8771,4.8411,4.8605,4.8721,4.8721,4.9144,4.9779,5.0644,5.0702,5.0702,5.0702,5.0702,5.0702,5.0702,5.0702,5.076,5.0875,5.0875,5.0856,3.6794,0.0,0.0,0.0,0.0,0.0,0.0,0.0,0.0,0.0,0.0,0.0,0.0,0.0,0.0,0.0,0.0,0.0,0.0,0.0,0.0,0.0,0.0,0.0,0.0,0.0,0.0,0.0,0.0,3.7161,4.0008,4.1373,4.2739,4.4239,4.4913,4.5355,4.5586,4.5624,4.5699,4.5796,4.5816,4.5873,4.5948,4.5964,4.6038,4.6164,4.6164,4.6205,4.6308,4.6254,4.6251,4.622,4.6099,4.6102,4.6176,4.6087,4.605,4.6039,4.5932,4.5906,4.5906,4.5906,4.5906,4.5906,4.5906,4.5906,4.5906,4.5906,4.5906,4.5906,4.5906,4.5971,4.605,4.6056,4.6119,4.6198,4.6198,4.6228,4.623,4.6202,4.6218,4.623,4.6195,4.7471,4.8484,4.8484,4.8582,4.8559,4.8328,4.8178,4.8031,4.7788,4.7834,4.7816,4.7584,4.7682,4.7778,4.7778,4.8567,4.9433,5.0298,5.0337,5.0452,5.0702,5.0702,5.0702,5.0702,5.0702,5.0702,5.0702,5.0702,5.0702,0.0,0.0,0.0,3.486,0.0,0.0,0.0,0.0,3.1379,0.0,0.0,0.0,0.0,0.0,0.0,0.0,0.0,0.0,0.0,0.0,0.0,0.0,0.0,0.0,0.0,0.0,0.0,0.0,0.0,0.0,3.9027,3.9392,4.0912,4.4201,4.4335,4.4739,4.5586,4.5738,4.5796,4.5796,4.5883,4.5968,4.6084,4.6082,4.6169,4.6288,4.6288,4.6308,4.6287,4.6162,4.6114,4.6092,4.5956,4.5905,4.5899,4.5917,4.5912,4.5911,4.5909,4.589,4.589,4.589,4.589,4.589,4.589,4.589,4.589,4.589,4.589,4.589,4.589,4.5907,4.5905,4.5911,4.5907,4.5907,4.5907,4.6019,4.6067,4.5928,4.6022,4.607,4.593,4.6758,4.7461,4.7461,4.8043,4.8191,4.7345,4.7195,4.6812,4.5969,4.6509,4.6605,4.5759,4.6451,4.6951,4.6951,4.7702,4.8529,4.9413,4.9433,4.9837,5.0664,5.0702,5.0702,5.0702,5.0702,5.0702,5.0702,5.0702,5.0702,0.0,0.0,4.2151,3.7319,0.0,0.0,0.0,0.0,0.0,0.0,0.0,0.0,0.0,0.0,0.0,0.0,0.0,0.0,0.0,0.0,0.0,0.0,0.0,0.0,0.0,0.0,0.0,0.0,3.0564,0.0,0.0,3.8065,4.0335,4.2566,4.3814,4.4853,4.5719,4.5815,4.5911,4.5988,4.602,4.6108,4.6228,4.6228,4.6257,4.6308,4.6216,4.6166,4.6166,4.6019,4.5969,4.5967,4.5881,4.5831,4.5832,4.5843,4.5816,4.5815,4.5738,4.5699,4.5699,4.5699,4.5699,4.5699,4.5699,4.5699,4.5699,4.5699,4.5699,4.5699,4.5699,4.5776,4.583,4.5838,4.5868,4.5907,4.5907,4.5945,4.5956,4.5909,4.5938,4.5962,4.5911,4.6147,4.6371,4.641,4.6565,4.6611,4.6311,4.618,4.5988,4.5699,4.5893,4.5913,4.5624,4.5874,4.6297,4.6874,4.7163,4.7682,4.8509,4.8548,4.8952,4.9817,4.9837,5.0106,5.0702,5.0421,5.0294,5.0313,5.0043,5.0183,4.1815,4.285,0.0,3.9122,3.7881,0.0,3.2256,0.0,0.0,0.0,0.0,0.0,0.0,0.0,0.0,0.0,2.7563,0.0,0.0,0.0,0.0,0.0,0.0,0.0,0.0,0.0,2.7005,2.8121,2.8736,0.0,0.0,0.0,3.9042,4.1335,4.3159,4.4514,4.5404,4.5767,4.6007,4.6084,4.6145,4.6227,4.6308,4.6245,4.6222,4.6209,4.6084,4.604,4.6005,4.5899,4.5858,4.5853,4.5757,4.5738,4.5738,4.5738,4.5738,4.5719,4.5624,4.5586,4.5586,4.5586,4.5586,4.5586,4.5586,4.5586,4.5586,4.5586,4.5586,4.5586,4.5586,4.5643,4.5738,4.5738,4.5757,4.5796,4.5796,4.5834,4.5861,4.5796,4.5819,4.5853,4.5796,4.5757,4.5757,4.5853,4.5796,4.5738,4.5738,4.5643,4.5586,4.5586,4.5586,4.5586,4.5586,4.5586,4.5781,4.6225,4.6263,4.6569,4.725,4.7269,4.769,4.8573,4.8592,4.9013,4.9854,4.9586,4.9613,4.9898,4.9617,4.9773]},{"header":{"parameterUnit":"m.s-1","parameterCategory":1,"la1":30.6,"la2":29.2853,"lo1":-89.7004,"lo2":-87.6739,"dy":0.0162,"dx":0.0183,"nx":112,"ny":82,"refTime":"2024-08-15T18:00:00:Z","depth":0,"parameterNumber":3,"parameterNumberName":"V-component_of_WINDS"},"data":[0.0,0.0,0.0,0.0,0.0,0.0,0.0,0.0,0.0,0.0,0.0,0.0,0.0,0.0,0.0,0.0,0.0,0.0,0.0,0.0,0.0,0.0,0.0,0.0,0.0,0.0,0.0,0.0,0.0,0.0,0.0,0.0,0.0,0.0,0.0,0.0,0.0,0.0,0.0,0.0,0.0,0.0,0.0,0.0,0.0,0.0,0.0,0.0,0.0,0.0,0.0,0.0,0.0,0.0,0.0,0.0,0.0,0.0,0.0,0.0,0.0,0.0,0.0,0.0,0.0,0.0,0.0,0.0,0.0,0.0,0.0,0.0,0.0,0.0,0.0,0.0,0.0,0.0,0.0,0.0,0.0,0.0,0.0,0.0,0.0,0.0,0.0,0.0,0.0,0.0,0.0,0.6139,0.6766,0.7255,0.7539,0.7153,0.6583,0.5847,0.0,0.0,0.0,0.0,0.0,0.0,0.0,0.0,0.0,0.0,0.0,0.0,0.0,0.0,0.0,0.0,0.0,0.0,0.0,0.0,0.0,0.0,0.0,0.0,0.0,0.0,0.0,0.0,0.0,0.0,0.0,0.0,0.0,0.0,0.0,0.0,0.0,0.0,0.0,0.0,0.0,0.0,0.0,0.0,0.0,0.0,0.0,0.0,0.0,0.0,0.0,0.0,0.0,0.0,0.0,0.0,0.0,0.0,0.0,0.0,0.0,0.0,0.0,0.0,0.0,0.0,0.0,0.0,0.0,0.0,0.0,0.0,0.0,0.0,0.0,0.0,0.0,0.0,0.0,0.0,0.0,0.0,0.0,0.0,0.0,0.0,0.0,0.0,0.0,0.0,0.0,0.0,0.0,0.0,0.0,0.0,0.0,0.0,0.0,0.0,0.0,0.0,0.0,0.0,0.563,0.6841,0.7071,0.7214,0.739,0.6993,0.6468,0.584,0.0,0.0,0.0,0.0,0.0,0.0,0.0,0.0,0.0,0.0,0.0,0.0,0.0,0.0,0.0,0.0,0.0,0.0,0.0,0.0,0.0,0.0,0.0,0.0,0.0,0.0,0.0,0.0,0.0,0.0,0.0,0.0,0.0,0.0,0.0,0.0,0.0,0.0,0.0,0.0,0.0,0.0,0.0,0.0,0.0,0.0,0.0,0.0,0.0,0.0,0.0,0.0,0.0,0.0,0.0,0.0,0.0,0.0,0.0,0.0,0.0,0.0,0.0,0.0,0.0,0.0,0.0,0.0,0.0,0.0,0.0,0.0,0.0,0.0,0.0,0.0,0.0,0.0,0.0,0.0,0.0,0.0,0.0,0.0,0.0,0.0,0.0,0.0,0.0,0.0,0.0,0.0,0.0,0.0,0.0,0.0,0.0,0.0,0.0,0.0,0.0,0.0,0.0,0.5457,0.604,0.7149,0.719,0.7204,0.736,0.6959,0.6444,0.584,0.523,0.0,0.0,0.0,0.0,0.0,0.0,0.0,0.0,0.0,0.0,0.0,0.0,0.0,0.0,0.0,0.0,0.0,0.0,0.0,0.0,0.0,0.0,0.0,0.0,0.0,0.0,0.0,0.0,0.0,0.0,0.0,0.0,0.0,0.0,0.0,0.0,0.0,0.0,0.0,0.0,0.0,0.0,0.0,0.0,0.0,0.0,0.0,0.0,0.0,0.0,0.0,0.0,0.0,0.0,0.0,0.0,0.0,0.0,0.0,0.0,0.0,0.0,0.0,0.0,0.0,0.0,0.0,0.0,0.0,0.0,0.0,0.0,0.0,0.0,0.0,0.0,0.0,0.0,0.0,0.0,0.0,0.0,0.0,0.0,0.0,0.0,0.0,0.0,0.0,0.0,0.0,0.0,0.0,0.0,0.0,0.0,0.0,0.0,0.0,0.0,0.0,0.0,0.6152,0.6478,0.7238,0.721,0.7187,0.7309,0.6875,0.6369,0.5833,0.5036,0.0,0.0,0.0,0.0,0.0,0.0,0.0,0.0,0.0,0.0,0.0,0.0,0.0,0.0,0.0,0.0,0.0,0.0,0.0,0.0,0.0,0.0,0.0,0.0,0.0,0.0,0.0,0.0,0.0,0.0,0.0,0.0,0.0,0.0,0.0,0.0,0.0,0.0,0.0,0.0,0.0,0.0,0.0,0.0,0.0,0.0,0.0,0.0,0.0,0.0,0.0,0.0,0.0,0.0,0.0,0.0,0.0,0.0,0.0,0.0,0.0,0.0,0.0,0.0,0.0,0.0,0.0,0.0,0.0,0.0,0.0,0.0,0.0,0.0,0.0,0.0,0.0,0.0,0.0,0.0,0.0,0.0,0.0,0.0,0.0,0.0,0.0,0.0,0.0,0.0,0.0,0.0,0.0,0.0,0.0,0.0,0.0,0.0,0.0,0.0,0.0,0.0,0.623,0.6783,0.7122,0.7146,0.7143,0.7156,0.6624,0.6152,0.5823,0.4843,0.0,0.0,0.0,0.0,0.0,0.0,0.0,0.0,0.0,0.0,0.0,0.0,0.0,0.0,0.0,0.0,0.0,0.0,0.0,0.0,0.0,0.0,0.0,0.0,0.0,0.0,0.0,0.0,0.0,0.0,0.0,0.0,0.0,0.0,0.0,0.0,0.0,0.0,0.0,0.0,0.0,0.0,0.0,0.0,0.0,0.0,0.0,0.0,0.0,0.0,0.0,0.0,0.0,0.0,0.0,0.0,0.0,0.0,0.0,0.0,0.0,0.0,0.0,0.0,0.0,0.0,0.0,0.0,0.0,0.0,0.0,0.0,0.0,0.0,0.0,0.0,0.0,0.0,0.0,0.0,0.0,0.0,0.0,0.0,0.0,0.0,0.0,0.0,0.0,0.0,0.0,0.0,0.0,0.0,0.0,0.0,0.0,0.0,0.0,0.0,0.0,0.0,0.6135,0.661,0.0,0.7139,0.7139,0.7139,0.6681,0.6186,0.5701,0.0,0.0,0.0,0.0,0.0,0.0,0.0,0.0,0.0,0.0,0.0,0.0,0.0,0.0,0.0,0.0,0.0,0.0,0.0,0.0,0.0,0.0,0.0,0.0,0.0,0.0,0.0,0.0,0.0,0.0,0.0,0.0,0.0,0.0,0.0,0.0,0.0,0.0,0.0,0.0,0.0,0.0,0.0,0.0,0.0,0.0,0.0,0.0,0.0,0.0,0.0,0.0,0.0,0.0,0.0,0.0,0.0,0.0,0.0,0.0,0.0,0.0,0.0,0.0,0.0,0.0,0.0,0.0,0.0,0.0,0.0,0.0,0.0,0.0,0.0,0.0,0.0,0.0,0.0,0.0,0.0,0.0,0.0,0.0,0.0,0.0,0.0,0.0,0.0,0.0,0.0,0.0,0.0,0.0,0.0,0.0,0.0,0.0,0.0,0.0,0.0,0.0,0.5661,0.6152,0.659,0.0,0.7139,0.7139,0.7139,0.6644,0.6118,0.5623,0.0,0.0,0.0,0.0,0.0,0.0,0.0,0.0,0.0,0.0,0.0,0.0,0.0,0.0,0.0,0.0,0.0,0.0,0.0,0.0,0.0,0.0,0.0,0.0,0.0,0.0,0.0,0.0,0.0,0.0,0.0,0.0,0.0,0.0,0.0,0.0,0.0,0.0,0.0,0.0,0.0,0.0,0.0,0.0,0.0,0.0,0.0,0.0,0.0,0.0,0.0,0.0,0.0,0.0,0.0,0.0,0.0,0.0,0.0,0.0,0.0,0.0,0.0,0.0,0.0,0.0,0.0,0.0,0.0,0.0,0.0,0.0,0.0,0.0,0.0,0.0,0.0,0.0,0.0,0.0,0.0,0.0,0.0,0.0,0.0,0.0,0.0,0.0,0.0,0.0,0.0,0.0,0.0,0.0,0.0,0.0,0.0,0.0,0.0,0.0,0.0,0.0,0.5684,0.6329,0.6814,0.7109,0.7139,0.7139,0.7139,0.6461,0.5905,0.0,0.0,0.0,0.0,0.0,0.0,0.0,0.0,0.0,0.0,0.0,0.0,0.0,0.0,0.0,0.0,0.0,0.0,0.0,0.0,0.0,0.0,0.0,0.0,0.0,0.0,0.0,0.0,0.0,0.0,0.0,0.0,0.0,0.0,0.0,0.0,0.0,0.0,0.0,0.0,0.0,0.0,0.0,0.0,0.0,0.0,0.0,0.0,0.0,0.0,0.0,0.0,0.0,0.0,0.0,0.0,0.0,0.0,0.0,0.0,0.0,0.0,0.0,0.0,0.0,0.0,0.0,0.0,0.0,0.0,0.0,0.0,0.0,0.0,0.0,0.0,0.0,0.0,0.0,0.0,0.0,0.0,0.0,0.0,0.0,0.0,0.0,0.0,0.0,0.0,0.0,0.0,0.0,0.0,0.0,0.0,0.0,0.0,0.0,0.0,0.0,0.0,0.0,0.5684,0.6329,0.6814,0.7109,0.7139,0.7139,0.7139,0.6556,0.602,0.5613,0.0,0.0,0.0,0.0,0.0,0.0,0.0,0.0,0.0,0.0,0.0,0.0,0.0,0.0,0.0,0.0,0.0,0.0,0.0,0.0,0.0,0.0,0.0,0.0,0.0,0.0,0.0,0.0,0.0,0.0,0.0,0.0,0.0,0.0,0.0,0.0,0.0,0.0,0.0,0.0,0.0,0.0,0.0,0.0,0.0,0.0,0.0,0.0,0.0,0.0,0.0,0.0,0.0,0.0,0.0,0.0,0.0,0.0,0.0,0.0,0.0,0.0,0.0,0.0,0.0,0.0,0.0,0.0,0.0,0.0,0.0,0.0,0.0,0.0,0.0,0.0,0.0,0.0,0.0,0.0,0.0,0.0,0.0,0.0,0.0,0.0,0.0,0.0,0.0,0.0,0.0,0.0,0.0,0.0,0.0,0.0,0.0,0.0,0.0,0.0,0.0,0.0,0.5684,0.6329,0.6814,0.7109,0.7139,0.7139,0.7139,0.6651,0.6129,0.5623,0.0,0.0,0.0,0.0,0.0,0.0,0.0,0.0,0.0,0.0,0.0,0.0,0.0,0.0,0.0,0.0,0.0,0.0,0.0,0.0,0.0,0.0,0.0,0.0,0.0,0.0,0.0,0.0,0.0,0.0,0.0,0.0,0.0,0.0,0.0,0.0,0.0,0.0,0.0,0.0,0.0,0.0,0.0,0.0,0.0,0.0,0.0,0.0,0.0,0.0,0.0,0.0,0.0,0.0,0.0,0.0,0.0,0.0,0.0,0.0,0.0,0.0,0.0,0.0,0.0,0.0,0.0,0.0,0.0,0.0,0.0,0.0,0.0,0.0,0.0,0.0,0.0,0.0,0.0,0.0,0.0,0.0,0.0,0.0,0.0,0.0,0.0,0.0,0.0,0.0,0.0,0.0,0.0,0.0,0.0,0.0,0.0,0.0,0.0,0.0,0.0,0.0,0.5688,0.6329,0.6814,0.7109,0.7139,0.7139,0.7139,0.6729,0.6234,0.5667,0.0,0.0,0.0,0.0,0.0,0.0,0.0,0.0,0.0,0.0,0.0,0.0,0.0,0.0,0.0,0.0,0.0,0.0,0.0,0.0,0.0,0.0,0.0,0.0,0.0,0.0,0.0,0.0,0.0,0.0,0.0,0.0,0.0,0.0,0.0,0.0,0.0,0.0,0.0,0.0,0.0,0.0,0.0,0.0,0.0,0.0,0.0,0.0,0.0,0.0,0.0,0.0,0.0,0.0,0.0,0.0,0.0,0.0,0.0,0.0,0.5637,0.0,0.0,0.0,0.0,0.0,0.0,0.0,0.0,0.0,0.0,0.0,0.0,0.0,0.0,0.0,0.0,0.0,0.0,0.0,0.0,0.0,0.0,0.0,0.0,0.0,0.0,0.0,0.0,0.0,0.0,0.0,0.0,0.0,0.0,0.0,0.0,0.0,0.0,0.0,0.0,0.0,0.5701,0.6329,0.6814,0.7109,0.7139,0.7139,0.7139,0.6729,0.6318,0.5959,0.5121,0.0,0.0,0.0,0.0,0.0,0.0,0.0,0.0,0.0,0.0,0.0,0.0,0.0,0.0,0.0,0.0,0.0,0.0,0.0,0.0,0.0,0.0,0.0,0.0,0.0,0.0,0.0,0.0,0.0,0.0,0.0,0.0,0.0,0.0,0.0,0.0,0.0,0.0,0.0,0.0,0.0,0.0,0.0,0.0,0.0,0.0,0.0,0.0,0.0,0.0,0.0,0.0,0.0,0.0,0.0,0.0,0.0,0.0,0.0,0.0,0.6051,0.0,0.0,0.0,0.0,0.0,0.0,0.0,0.0,0.0,0.0,0.0,0.0,0.0,0.0,0.0,0.0,0.0,0.0,0.0,0.0,0.0,0.0,0.0,0.0,0.0,0.0,0.0,0.0,0.0,0.0,0.0,0.0,0.0,0.0,0.0,0.0,0.0,0.0,0.0,0.0,0.5823,0.6437,0.6895,0.7115,0.7139,0.7139,0.7139,0.6865,0.6536,0.6166,0.5562,0.0,0.0,0.0,0.0,0.0,0.0,0.0,0.0,0.0,0.0,0.0,0.0,0.0,0.0,0.0,0.0,0.0,0.0,0.0,0.0,0.0,0.0,0.0,0.0,0.0,0.0,0.0,0.0,0.0,0.0,0.0,0.0,0.0,0.0,0.0,0.0,0.0,0.0,0.0,0.0,0.0,0.0,0.0,0.0,0.0,0.0,0.0,0.0,0.0,0.0,0.0,0.0,0.0,0.7631,0.8238,0.9192,0.8146,0.8368,0.9498,0.7665,0.6919,0.6966,0.0,0.0,0.0,0.0,0.0,0.0,0.0,0.0,0.0,0.0,0.0,0.0,0.0,0.0,0.0,0.0,0.0,0.0,0.0,0.0,0.0,0.0,0.0,0.0,0.0,0.6661,0.6614,0.0,0.0,0.0,0.0,0.0,0.0,0.0,0.0,0.0,0.0,0.0,0.0,0.6027,0.659,0.6993,0.7163,0.7156,0.7139,0.7139,0.701,0.6759,0.6363,0.6027,0.5552,0.0,0.0,0.0,0.0,0.0,0.0,0.0,0.0,0.0,0.0,0.0,0.0,0.0,0.0,0.0,0.0,0.0,0.0,0.0,0.0,0.0,0.0,0.0,0.0,0.0,0.0,0.0,0.0,0.0,0.0,0.0,0.0,0.6391,0.6846,0.0,0.0,0.0,0.0,0.0,0.0,0.0,0.0,0.0,0.0,0.0,0.0,0.0,1.0621,1.1352,1.1795,1.1437,1.0365,1.0606,1.0052,0.8915,0.8828,0.8848,0.896,0.8622,0.0,0.7309,0.7227,0.0,0.0,0.0,0.0,0.0,0.0,0.0,0.0,0.0,0.0,0.0,0.0,0.0,0.0,0.0,0.0,0.0,0.0,0.0,0.0,0.0,0.0,0.7516,0.7282,0.7356,0.7407,0.0,0.6376,0.5677,0.5457,0.5114,0.0,0.0,0.0,0.0,0.0,0.0,0.0,0.6322,0.6715,0.7034,0.7312,0.7221,0.7139,0.7139,0.701,0.6848,0.6654,0.6237,0.5895,0.5664,0.5162,0.0,0.0,0.0,0.0,0.0,0.0,0.0,0.0,0.0,0.0,0.0,0.0,0.0,0.0,0.0,0.0,0.0,0.0,0.0,0.0,0.0,0.0,0.0,0.0,0.0,0.0,0.0,0.0,0.0,0.5822,0.692,0.6374,0.7057,0.7103,0.0,0.0,0.0,0.0,0.0,0.0,0.0,0.0,0.0,0.9604,0.9635,0.9816,1.0268,1.1444,1.1782,1.1237,1.2381,1.2966,1.3078,1.219,1.2301,1.2961,1.1222,1.0213,0.956,0.8307,0.7506,0.7109,0.0,0.0,0.0,0.0,0.6803,0.6725,0.7221,0.7278,0.0,0.6858,0.0,0.0,0.0,0.0,0.0,0.0,0.0,0.0,0.0,0.0,0.0,0.774,0.7797,0.7828,0.776,0.7319,0.679,0.0,0.6125,0.582,0.5094,0.0,0.0,0.0,0.0,0.0,0.6675,0.7068,0.7322,0.7366,0.7312,0.7234,0.7146,0.7085,0.6987,0.6837,0.6563,0.6302,0.6071,0.5644,0.5233,0.0,0.0,0.0,0.0,0.0,0.0,0.0,0.0,0.0,0.0,0.0,0.0,0.0,0.0,0.0,0.0,0.0,0.0,0.0,0.0,0.0,0.0,0.0,0.0,0.0,0.0,0.0,0.0,0.6655,0.7672,0.6432,0.8031,0.8533,0.0,0.0,0.0,0.0,0.0,0.0,1.0781,1.0481,1.077,1.1635,1.1236,1.1151,1.1428,1.2795,1.3233,1.2947,1.3784,1.4552,1.5238,1.3744,1.3629,1.4541,1.221,1.1204,1.0904,0.9005,0.8191,0.796,0.7743,0.7475,0.7258,0.7634,0.7628,0.7516,0.8116,0.8174,0.7946,0.7726,0.0,0.717,0.6692,0.0,0.0,0.0,0.0,0.7024,0.7434,0.7628,0.7767,0.7987,0.8038,0.8038,0.8038,0.795,0.7685,0.0,0.699,0.677,0.5911,0.0,0.0,0.0,0.0,0.6841,0.7071,0.7394,0.757,0.7492,0.7417,0.7326,0.721,0.7163,0.7095,0.699,0.6807,0.6603,0.6383,0.6044,0.5684,0.5308,0.0,0.0,0.0,0.0,0.0,0.0,0.0,0.0,0.0,0.0,0.0,0.0,0.0,0.0,0.0,0.0,0.0,0.0,0.0,0.0,0.0,0.0,0.0,0.0,0.0,0.0,0.0,0.0,0.0,0.8367,1.0653,0.0,0.0,0.0,0.0,0.8932,0.9565,1.0162,1.064,1.2064,1.3778,1.5705,1.6965,1.7812,1.8385,1.8518,1.7957,1.6669,1.5268,1.3856,1.2303,1.0755,1.0037,1.0148,0.9775,0.971,0.9679,0.9346,0.8842,0.8445,0.8431,0.8245,0.8004,0.8174,0.8228,0.8238,0.8411,0.8462,0.8445,0.8431,0.8041,0.7543,0.737,0.7119,0.0,0.0,0.7438,0.7624,0.7926,0.8011,0.8021,0.8035,0.8038,0.8038,0.8038,0.8035,0.7933,0.0,0.7444,0.7241,0.6909,0.0,0.6702,0.6831,0.6888,0.7075,0.7509,0.7587,0.7648,0.7777,0.7539,0.7366,0.736,0.7224,0.7136,0.7129,0.6858,0.6695,0.6678,0.6254,0.5939,0.5772,0.5196,0.0,0.0,0.0,0.0,0.0,0.0,0.0,0.0,0.0,0.0,0.0,0.0,0.0,0.0,0.0,0.0,0.0,0.0,0.0,0.0,0.0,0.0,0.0,0.0,0.0,0.0,0.0,0.0,1.055,1.2388,0.0,1.0295,1.2042,1.2851,1.1471,1.3685,1.5175,1.5364,1.5304,1.517,1.5039,1.5671,1.579,1.5029,1.7206,1.7985,1.7582,1.7956,1.7865,1.7095,1.6492,1.6164,1.5897,1.4862,1.3769,1.2702,1.1622,1.0293,0.9059,0.9059,0.8879,0.8635,0.8784,0.872,0.8574,0.8723,0.8713,0.8611,0.8513,0.834,0.8157,0.8102,0.795,0.7814,0.7919,0.7916,0.7906,0.8011,0.8038,0.8038,0.8038,0.8038,0.8038,0.8038,0.8038,0.8007,0.7902,0.776,0.756,0.7265,0.7251,0.7231,0.7085,0.7312,0.7556,0.7716,0.7821,0.7865,0.7818,0.7719,0.7577,0.7387,0.7322,0.7207,0.7017,0.6814,0.6658,0.6559,0.6217,0.5959,0.5803,0.541,0.4935,0.0,0.0,0.0,0.0,0.0,0.0,0.0,0.0,0.0,0.0,0.0,0.0,0.0,0.0,0.0,0.0,0.0,0.0,0.0,0.0,0.0,0.0,0.0,0.0,0.0,0.0,1.2909,1.1978,1.3897,1.4362,1.195,1.423,1.5282,1.398,1.6211,1.7693,1.7693,1.728,1.6808,1.6378,1.6667,1.6342,1.5385,1.7614,1.8735,1.8735,1.9229,1.9382,1.9082,1.798,1.7402,1.7113,1.5334,1.4346,1.375,1.2719,1.1836,1.1036,0.9941,0.9306,0.91,0.9195,0.9072,0.8869,0.892,0.8872,0.876,0.8608,0.856,0.855,0.8499,0.8418,0.834,0.834,0.8269,0.8177,0.813,0.8116,0.8102,0.8052,0.8038,0.8038,0.8038,0.8038,0.8038,0.8038,0.7957,0.7828,0.7631,0.7682,0.7678,0.7475,0.7699,0.7889,0.7889,0.7977,0.8001,0.7899,0.7841,0.7712,0.7468,0.7353,0.721,0.7014,0.6763,0.6576,0.6474,0.6186,0.5959,0.5803,0.5511,0.5181,0.4616,0.0,0.0,0.0,0.0,0.0,0.0,0.0,0.0,0.0,0.0,0.0,0.0,0.0,0.0,0.0,0.0,0.0,0.0,0.0,0.0,0.0,0.0,0.0,1.1071,1.2581,1.3546,1.2818,1.5431,1.6658,1.5346,1.6922,1.7418,1.6077,1.6677,1.7114,1.7244,1.7714,1.8612,2.0119,2.0247,2.0247,2.0139,2.0261,2.0261,2.0261,1.8753,1.8,1.7871,1.4649,1.3156,1.3018,1.1106,1.1159,1.2492,1.2302,1.3181,1.4113,1.0967,0.9641,0.9504,0.9388,0.9293,0.914,0.8994,0.8947,0.892,0.8767,0.8716,0.8689,0.854,0.8492,0.8489,0.8489,0.8486,0.8452,0.8313,0.8279,0.8238,0.8082,0.8045,0.8045,0.8041,0.8038,0.8038,0.8038,0.8038,0.8038,0.8038,0.8038,0.8038,0.8038,0.8038,0.0,0.8038,0.8038,0.8038,0.8038,0.7906,0.776,0.7617,0.7329,0.7149,0.7136,0.6722,0.6478,0.6471,0.6193,0.5966,0.5813,0.5525,0.5233,0.4942,0.0,0.0,0.0,0.0,0.0,0.0,0.0,0.0,0.0,0.0,0.0,0.0,0.0,0.0,0.0,0.0,0.0,0.0,0.0,0.0,0.0,0.0,1.427,1.3339,1.4968,1.6345,1.6488,1.7502,1.7611,1.6261,1.7917,1.8492,1.7143,1.8389,1.9374,1.938,1.9523,1.9324,1.8647,1.9918,2.0015,1.8939,2.0222,2.0869,2.0869,2.048,2.0119,1.9918,1.9032,1.842,1.8111,1.7661,1.6273,1.4527,1.4319,1.3021,1.131,1.1378,1.1438,1.1164,1.0012,0.9449,0.9296,0.9147,0.9093,0.9069,0.8923,0.8876,0.8869,0.8825,0.8733,0.8648,0.8648,0.8567,0.8472,0.8435,0.8425,0.8387,0.8241,0.8208,0.8177,0.8065,0.8038,0.8038,0.8038,0.8038,0.8038,0.8038,0.8038,0.8038,0.8038,0.8038,0.0,0.8038,0.8038,0.8038,0.8038,0.8001,0.7916,0.7767,0.758,0.7336,0.7007,0.6766,0.6586,0.6478,0.6295,0.6125,0.5969,0.5779,0.5589,0.0,0.0,0.0,0.0,0.0,0.0,0.0,0.0,0.0,0.0,0.0,0.0,0.0,0.0,0.0,0.0,0.0,0.0,0.0,0.0,0.0,0.0,1.4963,1.6058,1.5914,1.6852,1.7742,1.833,1.8557,1.8479,1.7933,1.8842,1.9299,1.8595,1.9748,2.0421,2.0421,2.0535,2.0165,1.9437,2.0341,2.0426,1.9546,2.0589,2.1109,2.1109,2.1109,2.1022,2.0855,2.0084,1.9612,0.0,1.8698,1.7648,1.6501,1.6263,1.5375,0.0,0.0,0.0,0.0,0.0,0.9554,0.9456,0.9303,0.9208,0.914,0.9055,0.8988,0.894,0.894,0.8876,0.8804,0.8804,0.8743,0.8659,0.8594,0.8577,0.854,0.8394,0.836,0.8319,0.817,0.8136,0.8116,0.8052,0.8038,0.0,0.8038,0.8038,0.8038,0.8038,0.8038,0.8038,0.8038,0.8038,0.8038,0.8038,0.8038,0.7977,0.7824,0.7624,0.0,0.0,0.0,0.663,0.6478,0.6335,0.0,0.0,0.0,0.0,0.0,0.0,0.0,0.0,0.5817,0.5878,0.0,0.0,0.0,0.0,0.0,0.0,0.0,0.0,0.0,0.0,0.0,0.0,0.0,0.0,0.0,0.0,1.6533,1.7595,1.8424,1.8343,1.839,1.8911,1.9005,1.9225,1.9746,1.986,2.0007,2.0261,2.0555,2.0728,2.0728,0.0,0.0,0.0,0.0,2.1109,2.1109,2.1109,2.1109,2.1109,2.1109,2.1109,2.1109,1.9546,1.8768,1.875,1.6981,1.702,1.8148,1.8007,1.8477,1.8671,1.2643,1.0058,0.9805,0.968,0.9635,0.9612,0.9459,0.0,0.0,0.9164,0.9066,0.896,0.8944,0.894,0.894,0.894,0.894,0.8906,0.8771,0.8737,0.8699,0.8543,0.8509,0.8469,0.8326,0.8282,0.8231,0.8092,0.8052,0.8038,0.8038,0.8038,0.8038,0.8038,0.8038,0.8038,0.8038,0.8038,0.8038,0.8038,0.0,0.0,0.8039,0.7951,0.7773,0.7668,0.709,0.6715,0.658,0.6468,0.6464,0.6569,0.6705,0.6844,0.698,0.7241,0.7319,0.7197,0.6383,0.6356,0.0,0.0,0.0,0.0,0.0,0.0,0.0,0.0,0.0,0.0,0.0,0.0,0.0,0.0,0.0,1.6339,1.7455,1.8377,1.8784,1.8998,1.9152,1.9265,1.9486,1.9673,1.9786,2.0227,2.0528,2.0588,2.0862,2.1029,2.1029,2.1082,2.1109,2.1109,2.1109,2.1109,2.1109,2.1109,2.1109,2.1109,0.0,0.0,2.1109,2.0716,2.0589,2.0583,2.0264,1.9466,1.8412,1.8279,1.7274,1.5755,1.4206,1.2097,0.9819,0.9791,0.9781,0.9758,0.9615,0.9547,0.9483,0.9235,0.9133,0.9089,0.8974,0.894,0.0,0.894,0.894,0.893,0.8903,0.8896,0.8855,0.8703,0.8665,0.8625,0.8472,0.835,0.8262,0.8231,0.8126,0.8038,0.8038,0.8038,0.8038,0.8038,0.8038,0.8038,0.8038,0.8038,0.8038,0.8038,0.892,0.9592,0.9559,1.0405,1.038,0.9204,0.7981,0.7227,0.7197,0.7288,0.7295,0.7197,0.7227,0.7258,0.7285,0.7343,0.7478,0.7675,0.7387,0.7265,0.0,0.0,0.0,0.0,0.0,0.0,0.0,0.0,0.0,0.0,0.0,1.4529,1.5264,0.0,1.6947,1.7695,1.8317,1.8858,1.9299,1.9366,1.9419,1.9566,1.9713,1.992,2.0207,2.0501,2.0735,2.0882,2.1029,2.1109,2.1109,2.1109,2.1109,2.1109,2.1109,2.1109,2.1109,2.1109,2.1109,2.1109,2.1109,2.1109,2.1109,2.1109,2.1109,2.1109,2.1109,2.0589,1.9782,1.9638,1.835,1.6596,1.6354,1.4062,1.102,1.102,1.0539,0.9812,0.9741,0.9669,0.9585,0.9432,0.933,0.9239,0.9089,0.9045,0.9032,0.8957,0.894,0.894,0.894,0.894,0.892,0.8842,0.8825,0.8781,0.8628,0.854,0.8445,0.8299,0.8208,0.813,0.8055,0.8038,0.8038,0.8038,0.8038,0.8038,0.8038,0.8038,0.8237,0.8924,0.9608,1.0293,1.0877,1.088,1.0382,0.9528,0.8255,0.7485,0.7485,0.756,0.7563,0.7489,0.7556,0.759,0.759,0.7668,0.778,0.7923,0.7851,0.778,0.0,0.0,0.0,0.0,0.0,0.0,0.0,0.0,1.3915,1.4623,1.5378,1.6199,1.7148,1.7609,1.8096,1.8885,1.9058,1.9279,1.9806,1.9633,1.9559,1.9853,1.9887,2.0094,2.0628,2.0728,2.0855,2.1089,2.1109,2.1109,2.1109,2.1109,2.1109,2.1109,2.1109,2.1109,2.1109,2.1109,2.1109,2.1109,2.1109,2.1109,2.1109,2.1109,2.1109,2.1109,2.1109,2.1109,2.1089,2.0855,1.9955,1.8732,1.852,1.6176,1.2798,1.2401,1.1288,0.9822,0.9822,0.9747,0.9646,0.9618,0.9527,0.9391,0.9208,0.9154,0.9123,0.8981,0.894,0.894,0.894,0.894,0.894,0.894,0.894,0.8906,0.8781,0.873,0.8638,0.8401,0.8309,0.8231,0.8106,0.8258,0.8333,0.8038,0.8233,0.8432,0.8432,0.8627,0.9213,1.0293,1.0583,1.1263,1.2528,1.1394,1.0459,1.0014,0.88,0.7967,0.7685,0.7685,0.7685,0.7685,0.7797,0.7855,0.7855,0.798,0.8038,0.8038,0.8038,0.8038,1.1176,1.1703,1.2405,1.324,1.3273,1.3714,0.0,0.0,1.5852,1.6961,1.7488,1.7789,1.7923,1.8397,1.8891,1.9259,1.9533,1.9813,2.014,1.9933,1.986,2.0147,2.0187,2.0314,2.0641,2.0909,2.1076,2.1109,2.1109,2.1109,2.1109,2.1109,2.1109,2.1109,2.1109,2.1109,2.1109,2.1109,2.1109,2.1109,2.1109,2.1109,2.1109,2.1109,2.1109,2.1109,2.1109,2.1109,2.1109,2.1076,2.0777,2.0414,2.0387,1.8155,1.4785,1.3128,1.1386,0.9822,0.9822,0.9812,0.9778,0.9649,0.9598,0.953,0.9242,0.9154,0.9123,0.8981,0.894,0.894,0.894,0.894,0.894,0.894,0.894,0.8933,0.8916,0.8808,0.8699,0.8669,0.8448,0.8265,0.8248,0.9122,0.941,0.8137,0.9019,0.9805,0.9805,1.0779,1.1556,1.1653,1.2716,1.3974,1.5248,1.4142,1.2951,1.1681,1.0422,0.9158,0.7991,0.7991,0.7991,0.7991,0.8007,0.8014,0.8014,0.8031,0.8038,0.8038,0.8038,0.8038,1.3173,0.0,0.0,0.0,1.5337,1.5792,1.6901,1.7134,1.7308,1.7976,1.835,1.8611,1.8784,1.9011,1.9279,0.0,1.972,1.99,2.0194,1.9987,1.9846,1.9967,1.998,2.016,2.0635,2.0782,2.0929,2.1096,2.1109,2.1109,2.1109,2.1109,2.1109,2.1109,2.1109,2.1109,2.1109,2.1109,2.1109,2.1109,2.1109,2.1109,2.1109,2.1109,2.1109,2.1109,2.1109,2.1109,2.1109,2.1109,2.1036,2.0929,2.0929,1.9337,1.6778,1.4809,1.2323,0.9941,0.9852,0.9822,0.9812,0.9751,0.9734,0.9693,0.9483,0.9357,0.9256,0.9106,0.9001,0.894,0.894,0.894,0.894,0.894,0.894,0.894,0.894,0.8889,0.9033,0.9785,0.968,0.9792,1.0597,1.0911,1.0877,1.0386,1.0779,1.1072,1.1072,1.156,1.2237,1.3011,1.4268,1.5242,1.573,1.4657,1.3295,1.1945,1.0681,0.941,0.8038,0.8038,0.8038,0.8038,0.8038,0.8038,0.8038,0.8038,0.8038,0.8038,0.8038,0.8038,1.4396,0.0,0.0,1.6159,1.6901,1.7442,1.7602,1.7976,1.837,1.8671,1.8898,1.9085,1.9219,1.9312,1.9459,1.9753,1.9867,2.002,2.0314,2.0034,1.98,1.98,1.9659,1.9786,2.0374,2.0581,2.0795,2.1089,2.1109,2.1109,2.1109,2.1109,2.1109,2.1109,2.1109,2.1109,2.1109,2.1109,2.1109,2.1109,2.1109,2.1109,2.1109,2.1109,2.1109,2.1109,2.1109,2.1109,2.1109,2.1109,2.1109,2.1109,2.1109,1.9941,1.8172,1.6489,1.3683,1.0645,1.0043,0.9856,0.9822,0.9822,0.9822,0.9795,0.9652,0.9534,0.9405,0.9208,0.9079,0.8988,0.895,0.894,0.894,0.894,0.894,0.9047,0.9372,0.9482,0.9877,1.1246,1.127,1.1403,1.2379,1.2521,1.2525,1.2525,1.2764,1.2818,1.2528,1.2721,1.3307,1.4364,1.5242,1.5832,1.5832,1.4949,1.3686,1.2042,1.1072,0.9801,0.8038,0.8038,0.8038,0.8038,0.8038,0.8038,0.8038,0.8038,0.8038,0.8038,0.8038,0.8038,0.0,0.0,1.6299,1.6613,1.7361,1.817,1.8744,1.8885,1.8985,1.9279,1.9352,1.9265,1.8991,1.9172,1.9459,1.9753,2.0034,2.0321,2.0621,2.0167,1.98,1.98,1.9299,1.9178,0.0,2.0341,2.0795,2.1089,2.1109,2.1109,2.1109,2.1109,2.1109,2.1109,2.1109,2.1109,2.1109,2.1109,2.1109,2.1109,2.1109,2.1109,2.1109,2.1109,2.1109,2.1109,2.1109,2.1109,2.1109,2.1109,2.1109,2.1109,2.1109,2.0062,1.8459,1.8315,1.5784,1.2242,1.0532,0.9944,0.9822,0.9822,0.9822,0.9795,0.9652,0.9605,0.954,0.9239,0.915,0.9113,0.8974,0.894,0.894,0.894,0.894,0.9265,1.0672,1.1,1.1428,1.2935,1.3067,1.2911,1.3005,1.3661,1.4242,1.4242,1.5023,1.5242,1.3974,1.4949,1.573,1.573,1.5737,1.5832,1.5832,1.573,1.4663,1.2042,1.1848,1.0681,0.8137,0.8038,0.8038,0.8038,0.8038,0.8038,0.8038,0.8038,0.8038,0.8038,0.8038,0.8038,0.0,0.0,1.7261,1.7769,1.8263,1.8731,1.9125,1.9219,1.9192,1.9092,1.8918,1.8698,1.8397,1.8424,1.8651,1.9138,1.9626,2.0047,2.0341,2.0381,2.0167,1.9579,1.9679,0.0,0.0,0.0,0.0,2.0782,2.0822,2.0909,2.1096,2.1109,2.1109,2.1109,2.1109,2.1109,2.1109,2.1109,2.1109,2.1109,2.1109,2.1109,2.1109,2.1109,2.1109,2.1109,2.1109,2.1109,2.1109,2.1109,2.1109,2.1109,2.1109,2.0722,2.0055,1.8927,1.7519,1.5934,1.2819,1.152,1.1261,1.0179,0.9822,0.9812,0.9764,0.9683,0.9588,0.9486,0.931,0.9144,0.9093,0.9011,0.9154,1.0135,1.0347,1.0781,1.2186,1.2512,1.294,1.4449,1.4462,1.4613,1.5664,1.5885,1.5879,1.5692,1.5724,1.5635,1.5242,1.5534,1.5832,1.5832,1.5832,1.5832,1.5832,1.5832,1.5051,1.3295,1.2431,1.1165,0.941,0.8432,0.8038,0.8038,0.8038,0.8038,0.8038,0.8038,0.8038,0.8038,0.8038,0.8038,0.0,1.7288,1.7883,1.849,1.8865,1.9132,1.9325,1.9285,1.9125,1.8831,1.8444,1.8076,1.7776,1.7729,1.7956,1.8657,1.9259,1.978,2.018,2.0401,2.0307,1.974,1.9913,2.0047,0.0,0.0,0.0,2.0788,2.0828,2.0909,2.1096,2.1109,2.1109,2.1109,2.1109,2.1109,2.1109,2.1109,2.1109,2.1109,2.1109,2.1109,2.1109,2.1109,2.1109,2.1109,2.1109,2.1109,2.1109,2.1109,2.1109,2.1109,2.1109,2.1109,2.0976,1.9807,1.9367,1.8565,1.4918,1.3441,1.3022,1.1877,1.114,1.0781,1.1378,1.1067,1.0617,1.1142,1.1193,1.0984,1.0856,1.0743,1.0859,1.1664,1.1864,1.2295,1.3696,1.4019,1.4449,1.5956,1.6033,1.6235,1.7198,1.7061,1.6767,1.6473,1.6266,1.6066,1.5852,1.5832,1.5832,1.5832,1.5832,1.5832,1.5832,1.5832,1.5242,1.3974,1.2624,1.1361,1.0096,0.8726,0.8038,0.8038,0.8038,0.8038,0.8038,0.8038,0.8038,0.8038,0.8038,0.8069,1.7074,1.7655,1.8223,1.8824,1.9172,1.9366,1.9352,1.9118,1.8804,1.847,1.7916,1.7388,0.0,0.0,1.7368,1.8237,1.8931,1.9573,2.0147,2.0261,2.0274,0.0,0.0,0.0,0.0,0.0,0.0,2.1069,0.0,2.1096,2.1109,2.1109,2.1109,2.1109,2.1109,2.1109,2.1109,2.1109,2.1109,2.1109,2.1109,2.1109,2.1109,2.1109,2.1109,2.1109,2.1109,2.1109,2.1109,2.1109,2.1109,2.1109,2.1109,2.1109,2.1109,2.1109,2.0935,2.027,1.6723,1.5366,1.5013,1.4685,1.3536,1.2573,1.4128,1.3531,1.2653,1.3991,1.4387,1.428,1.3851,1.3719,1.3648,1.3444,1.3383,1.3804,1.5204,1.5524,1.5956,1.7364,1.7582,1.7582,1.7582,1.7341,1.7054,1.6774,1.6714,1.65,1.5925,1.5852,1.5845,1.5832,1.5832,1.5832,1.5832,1.5832,1.5242,1.3974,1.2624,1.1361,1.0096,0.8726,0.8038,0.8038,0.8038,0.8038,0.8038,0.8038,0.8038,0.8038,0.8048,0.813,1.819,1.8744,1.9112,1.9486,1.9472,1.9305,1.9085,1.8811,1.8323,1.7361,1.6693,1.5985,1.5044,0.0,0.0,1.6767,1.8263,0.0,2.0147,2.0608,0.0,0.0,0.0,2.0722,2.0575,2.0762,0.0,0.0,2.0909,2.0882,2.1096,2.1109,2.1109,2.1109,2.1109,2.1109,2.1109,2.1109,2.1109,2.1109,2.1109,2.1109,2.1109,2.1109,2.1109,2.1109,2.1109,2.1109,2.1109,2.1109,2.1109,2.1109,2.1109,2.1109,2.1109,2.1109,2.1062,2.083,1.9767,1.8227,1.6611,1.5345,1.4495,1.4004,1.4485,1.4361,1.4113,1.4415,1.4514,1.4356,1.4239,1.3958,1.3909,1.4954,1.5013,1.531,1.6717,1.7041,1.7147,1.7582,1.7582,1.7582,1.7582,1.7341,1.7121,1.7048,1.6847,1.6573,1.6206,1.6159,1.6072,1.5852,1.5832,1.5832,1.5832,1.5832,1.5242,1.3974,1.2624,1.1361,1.0096,0.8726,0.8038,0.8038,0.8038,0.8038,0.8038,0.8038,0.8038,0.8041,0.816,0.8235,1.8905,1.9332,1.9599,1.976,1.9486,1.9025,1.8464,1.8009,1.7335,1.6019,1.5384,0.0,1.3868,0.0,0.0,0.0,0.0,0.0,1.9927,2.0548,2.0909,0.0,2.1009,0.0,2.0882,2.1015,2.1109,0.0,2.0955,2.0935,2.1102,2.1109,2.1109,2.1109,2.1109,2.1109,2.1109,2.1109,2.1109,2.1109,2.1109,2.1109,2.1109,2.1109,2.1109,2.1109,0.0,2.1109,2.1109,2.1109,2.1109,2.1109,2.1109,2.1109,2.1109,2.1109,2.1109,2.1089,2.0922,1.9847,1.8487,1.7396,1.6464,1.5784,1.6503,1.6262,1.579,1.6503,1.664,1.6617,1.6385,1.6142,1.6092,1.6648,1.6692,1.6763,1.7503,1.7582,1.7582,1.7582,1.7582,1.7582,1.7582,1.7448,1.7341,1.7341,1.7194,1.6987,1.6693,1.6547,1.6353,1.6052,1.6025,1.5972,1.5838,1.5832,1.5242,1.3974,1.2624,1.1361,1.0096,0.8726,0.8038,0.8038,0.8038,0.8038,0.8038,0.8106,0.814,0.8143,0.8292,0.8397,1.9332,1.9579,1.9753,1.9786,1.9332,1.8631,1.7729,1.7007,1.6119,1.4649,0.0,1.3674,1.3086,1.3754,1.4689,1.5571,0.0,1.841,1.9626,2.0274,2.0742,2.1069,2.1109,2.1109,2.1109,2.1109,2.1109,2.1109,2.1109,2.1109,2.1109,2.1109,2.1109,2.1109,2.1109,2.1109,2.1109,2.1109,2.1109,2.1109,2.1109,2.1109,2.1109,2.1109,2.1109,2.1109,2.1109,0.0,2.1109,2.1109,2.1109,2.1109,2.1109,2.1109,2.1109,2.1109,2.1109,2.1109,2.1109,2.0722,2.0187,1.994,1.8663,1.7566,1.9004,1.8402,1.7566,1.9004,1.9366,1.9305,1.9052,1.8951,1.8784,1.8237,1.8076,1.7963,1.7649,1.7582,1.7582,1.7582,1.7582,1.7582,1.7582,1.7582,1.7582,1.7582,1.7582,1.7495,1.7241,1.6947,1.6653,1.6359,1.6333,1.6226,1.5965,1.5912,1.5204,1.3829,1.2543,1.1263,0.9801,0.863,0.8048,0.8069,0.8069,0.8079,0.8099,0.8231,0.8299,0.8303,0.8445,0.8584,1.9579,1.9586,1.9499,1.974,1.9178,1.833,1.7428,1.6393,0.0,0.0,0.0,1.2432,1.1844,1.2859,0.0,1.497,0.0,0.0,0.0,0.0,2.0508,0.0,0.0,0.0,0.0,0.0,0.0,0.0,0.0,2.1109,2.1109,2.1109,2.1109,2.1109,2.1109,2.1109,2.1109,2.1109,2.1109,2.1109,2.1109,2.1109,2.1109,2.1109,2.1109,2.1109,2.1109,0.0,2.1109,2.1109,2.1109,2.1109,2.1109,2.1109,2.1109,2.1109,2.1109,2.1109,2.1109,2.0722,2.0227,2.0174,1.9556,1.9004,1.9366,1.9243,1.9004,1.9366,1.9366,1.9359,1.9305,1.9112,1.8838,1.8497,1.8223,1.7963,1.7649,1.7582,1.7582,1.7582,1.7582,1.7582,1.7582,1.7582,1.7582,1.7582,1.7582,1.7562,1.7515,1.7255,1.6961,1.666,1.6627,1.6613,1.656,1.6333,1.5199,1.2819,1.2144,1.0872,0.8432,0.8137,0.8099,0.8228,0.8231,0.8289,0.8404,0.8431,0.8445,0.8448,0.8601,0.8686,1.9686,1.97,1.9593,1.9579,1.8905,1.7849,1.6353,0.0,0.0,0.0,0.0,1.1436,1.0848,0.0,0.0,0.0,0.0,0.0,0.0,0.0,0.0,0.0,0.0,0.0,0.0,0.0,0.0,0.0,0.0,2.1109,2.1109,2.1109,2.1109,2.1109,2.1109,2.1109,2.1109,2.1109,2.1109,2.1109,2.1109,2.1109,2.1109,2.1109,2.1109,2.1109,2.1109,0.0,2.1109,2.1109,2.1109,2.1109,2.1109,2.1109,2.1109,2.1109,2.1109,2.1109,2.1109,2.0722,2.0234,2.0234,1.984,1.9366,1.9366,1.9366,1.9366,1.9366,1.9366,1.9366,1.9366,1.9259,1.9045,1.8597,1.8143,1.7762,1.7615,1.7582,1.7582,1.7582,1.7582,1.7582,1.7582,1.7582,1.7582,1.7582,1.7582,1.7582,1.7582,1.7462,1.7261,1.6967,1.6934,1.6874,1.672,1.5863,1.4566,1.2648,1.1639,1.0281,0.8371,0.8269,0.8306,0.8381,0.8381,0.8414,0.8482,0.8564,0.8601,0.8604,0.8757,0.8828,1.9533,1.9659,1.9639,1.9345,1.8591,1.7402,1.5418,1.4175,0.0,0.0,0.0,1.0608,1.0274,0.0,0.0,0.0,0.0,0.0,0.0,0.0,0.0,0.0,0.0,0.0,0.0,0.0,0.0,0.0,0.0,0.0,2.1109,2.1109,2.1109,2.1109,2.1109,2.1109,2.1109,2.1109,2.1109,2.1109,2.1109,2.1109,2.1109,2.1109,2.1109,2.1109,2.1109,0.0,0.0,2.1109,2.1109,2.1109,2.1109,2.1109,2.1109,2.1109,2.1109,2.1102,2.1036,2.0675,2.0221,2.016,1.9786,1.9366,1.9366,1.9366,1.9366,1.9366,1.9366,1.9366,1.9366,1.9366,1.9219,1.8631,1.8076,1.7662,1.7595,1.7582,1.7582,1.7582,1.7582,1.7582,1.7582,1.7582,1.7582,1.7582,1.7582,1.7582,1.7582,1.7582,1.7495,1.7268,1.7241,1.7148,1.6914,1.5485,1.4111,1.2771,1.1286,0.9823,0.8587,0.8482,0.8499,0.853,0.853,0.8547,0.8581,0.8699,0.876,0.8764,0.8882,0.894,1.8925,1.9199,1.9339,1.9038,1.829,1.7154,1.5371,0.0,0.0,0.0,1.016,0.9947,1.0434,1.0868,0.0,0.0,0.0,0.0,0.0,0.0,0.0,0.0,0.0,0.0,0.0,0.0,0.0,0.0,0.0,0.0,2.1109,2.1109,2.1109,2.1109,2.1109,2.1109,2.1109,2.1109,2.1109,2.1109,2.1109,2.1109,2.1109,2.1109,2.1109,2.1109,2.1109,0.0,0.0,2.1109,2.1109,2.1109,2.1109,2.1109,2.1109,2.1109,2.1109,2.1076,2.0808,2.0508,2.0187,1.9927,1.9626,1.9366,1.9366,1.9366,1.9366,1.9366,1.9366,1.9366,1.9366,1.9366,1.9219,1.8631,1.8243,1.7923,1.7642,1.7582,1.7582,1.7582,1.7582,1.7582,1.7582,1.7582,1.7582,1.7582,1.7582,1.7582,1.7582,1.7582,1.7569,1.7549,1.7542,1.7528,1.7508,1.5983,1.4365,1.31,1.1358,0.9823,0.8587,0.8482,0.8547,0.8686,0.8689,0.8757,0.8896,0.891,0.8916,0.8916,0.893,0.894,1.8484,1.8878,1.9032,1.8738,1.7983,1.6814,1.4877,0.0,1.1921,1.0561,0.9967,0.9806,1.0221,1.0675,1.1336,0.0,1.2919,1.3948,0.0,0.0,0.0,0.0,0.0,0.0,0.0,0.0,0.0,0.0,0.0,0.0,2.1109,2.1109,2.1109,2.1109,2.1109,2.1109,2.1109,2.1109,2.1109,2.1109,2.1109,2.1109,2.1109,2.1109,2.1109,2.1109,2.1109,0.0,0.0,2.1109,2.1109,2.1109,2.1109,2.1109,2.1109,2.1109,2.1109,2.1069,2.0775,2.0481,2.0187,1.9893,1.9606,1.9366,1.9366,1.9366,1.9366,1.9366,1.9366,1.9366,1.9366,1.9232,1.8998,1.8591,1.8263,1.7963,1.7649,1.7582,1.7582,1.7582,1.7582,1.7582,1.7582,1.7582,1.7582,1.7582,1.7582,1.7582,1.7582,1.7582,1.7582,1.7582,1.7582,1.7582,1.7582,1.6181,1.4624,1.3235,1.1666,1.0246,0.8757,0.8757,0.8784,0.8849,0.8849,0.8876,0.894,0.894,0.894,0.894,0.894,0.894,1.7722,1.8237,1.8457,1.817,1.7488,1.6373,0.0,0.0,1.1637,1.0374,0.9886,0.9773,1.006,1.0454,1.0982,1.1744,1.2184,1.3126,1.5117,0.0,0.0,0.0,0.0,0.0,0.0,0.0,0.0,0.0,0.0,0.0,2.1109,2.1109,2.1109,2.1109,2.1109,2.1109,2.1109,2.1109,2.1109,2.1109,2.1109,2.1109,2.1109,2.1109,2.1109,2.1109,2.1109,0.0,0.0,2.1109,2.1109,2.1109,2.1109,2.1109,2.1109,2.1109,2.1109,2.1056,2.0675,2.0408,2.0174,1.9793,1.9533,1.9366,1.9366,1.9366,1.9366,1.9366,1.9366,1.9366,1.9366,1.9212,1.8978,1.8691,1.839,1.8096,1.7789,1.7649,1.7582,1.7582,1.7582,1.7582,1.7582,1.7582,1.7582,1.7582,1.7582,1.7582,1.7582,1.7582,1.7582,1.7582,1.7582,1.7582,1.7582,1.5849,1.4341,1.3372,1.1538,1.0025,0.8937,0.894,0.894,0.894,0.894,0.894,0.894,0.894,0.894,0.894,0.894,0.894,1.6486,1.7154,1.7528,1.7235,1.672,1.5818,0.0,1.2946,1.1884,1.0421,0.9886,0.9773,1.006,1.012,1.0508,1.1677,1.2432,1.336,1.5144,0.0,0.0,0.0,0.0,0.0,0.0,0.0,0.0,0.0,0.0,0.0,2.1109,2.1109,2.1109,2.1109,2.1109,2.1109,2.1109,2.1109,2.1109,2.1109,2.1109,2.1109,2.1109,2.1109,2.1109,0.0,0.0,0.0,0.0,2.1109,2.1109,2.1109,2.1109,2.1109,2.1109,2.1109,2.1109,2.1022,2.0441,2.0234,2.014,1.9559,1.9372,1.9366,1.9366,1.9366,1.9366,1.9366,1.9366,1.9366,1.9366,1.9366,1.9285,1.8991,1.8698,1.8404,1.8103,1.7802,1.7582,1.7582,1.7582,1.7582,1.7582,1.7582,1.7582,1.7582,1.7582,1.7582,1.7582,1.7582,1.7582,1.7582,1.7582,1.7582,1.7582,1.499,1.327,1.3264,1.0566,0.894,0.894,0.894,0.894,0.894,0.894,0.894,0.894,0.894,0.894,0.894,0.894,0.894,1.4482,1.519,1.5671,1.5184,1.4917,1.4416,1.3039,1.2198,1.1463,1.0595,1.0187,1.0074,1.0367,1.0421,1.0868,1.2318,1.2701,0.0,0.0,0.0,0.0,0.0,0.0,0.0,0.0,0.0,0.0,0.0,0.0,0.0,2.1109,2.1109,2.1109,2.1109,2.1109,2.1109,2.1109,2.1109,2.1109,2.1109,2.1109,2.1109,2.1109,2.1109,2.1109,0.0,0.0,0.0,0.0,2.1109,2.1109,2.1109,2.1109,2.1109,2.1109,2.1109,2.1109,2.1022,2.0434,2.0234,2.0134,1.9553,1.9366,1.9366,1.9366,1.9366,1.9366,1.9366,1.9366,1.9366,1.9366,1.9366,1.9292,1.8991,1.8704,1.841,1.811,1.7802,1.7582,1.7582,1.7582,1.7582,1.7582,1.7582,1.7582,1.7582,1.7582,1.7582,1.7582,1.7582,1.7582,1.7582,1.6717,1.6068,1.6068,1.531,1.3906,1.1973,1.0891,0.9915,0.8937,0.894,0.894,0.894,0.894,0.894,0.894,0.894,0.894,0.894,0.894,0.894,0.0,1.3621,1.4068,1.3821,1.3667,1.33,1.2218,1.1603,1.1062,1.0374,1.0167,1.0174,1.0354,1.0488,1.0994,1.2064,1.2607,0.0,0.0,0.0,0.0,0.0,0.0,0.0,0.0,0.0,0.0,0.0,0.0,0.0,2.1109,2.1109,2.1109,2.1109,2.1109,2.1109,2.1109,2.1109,2.1109,2.1109,2.1109,2.1109,2.1109,2.1109,2.1109,0.0,0.0,0.0,0.0,2.1109,2.1109,2.1109,2.1109,2.1109,2.1109,2.1109,2.1042,2.0875,2.0394,2.016,1.9993,1.9519,1.9366,1.9366,1.9366,1.9366,1.9366,1.9366,1.9366,1.9366,1.9366,1.9366,1.9319,1.9132,1.8784,1.8437,1.8257,1.7883,1.7582,1.7582,1.7582,1.7582,1.7582,1.7582,1.7582,1.7582,1.7582,1.7582,1.7582,1.7582,1.7364,1.6823,1.5956,1.4984,1.3911,1.3798,1.3048,1.1214,1.0566,0.9805,0.8937,0.894,0.894,0.894,0.894,0.894,0.894,0.894,0.894,0.894,0.894,0.894,0.0,1.2318,1.2694,1.2866,1.2739,1.2338,1.149,1.1109,0.0,0.9853,0.9913,1.0134,1.0194,1.0421,1.0822,1.153,0.0,0.0,0.0,0.0,0.0,0.0,0.0,0.0,0.0,0.0,0.0,0.0,0.0,0.0,2.1109,2.1109,2.1109,2.1109,2.1109,2.1109,2.1109,2.1109,2.1109,2.1109,2.1109,2.1109,2.1109,2.1109,2.1109,0.0,0.0,0.0,0.0,2.1109,2.1109,2.1109,2.1109,2.1109,2.1109,2.1109,2.0922,2.0635,2.0334,2.004,1.9753,1.9459,1.9366,1.9366,1.9366,1.9366,1.9366,1.9366,1.9366,1.9366,1.9366,1.9366,1.9366,1.9366,1.8918,1.849,1.849,1.8009,1.7582,1.7582,1.7582,1.7582,1.7582,1.7582,1.7582,1.7582,1.7582,1.7582,1.7477,1.747,1.6929,1.5417,1.5204,1.4019,1.1324,1.1105,1.1105,1.1,0.9699,0.894,0.894,0.894,0.894,0.894,0.894,0.894,0.894,0.894,0.894,0.894,0.894,0.894,0.9786,0.0,1.0648,1.0267,1.0454,1.0621,0.0,1.0214,1.02,0.0,0.0,0.0,0.0,0.0,0.0,0.0,0.0,0.0,0.0,0.0,0.0,0.0,0.0,0.0,0.0,0.0,0.0,0.0,0.0,2.1109,2.1109,2.1109,2.1109,2.1109,2.1109,2.1109,2.1109,2.1109,2.1109,2.1109,2.1109,2.1109,2.1109,2.1109,2.1109,0.0,0.0,0.0,2.1109,2.1109,2.1109,2.1109,2.1109,2.1109,2.1109,2.1109,2.0922,2.0635,2.0334,2.004,1.9753,1.9459,1.9366,1.9366,1.9366,1.9366,1.9366,1.9366,1.9366,1.9366,1.9366,1.9366,1.9366,1.9366,1.8918,1.849,1.849,1.8009,1.7582,1.7582,1.7582,1.7582,1.7582,1.7582,1.7582,1.7582,1.7582,1.7147,1.6062,1.5956,1.5417,1.3911,1.2832,1.186,1.1214,1.1105,1.0676,0.9482,0.9047,0.894,0.894,0.894,0.894,0.894,0.894,0.894,0.894,0.894,0.894,0.894,0.894,0.894,0.8998,0.9766,1.0474,1.0287,1.0418,1.0641,1.0354,0.0,0.0,0.0,0.0,0.0,0.0,0.0,0.0,0.0,0.0,0.0,0.0,0.0,0.0,0.0,0.0,0.0,0.0,0.0,0.0,0.0,0.0,2.1109,2.1109,2.1109,2.1109,2.1109,2.1109,2.1109,2.1109,2.1109,2.1109,2.1109,2.1109,2.1109,2.1109,2.1109,2.1109,0.0,0.0,0.0,2.1109,2.1109,2.1109,2.1109,2.1109,2.1109,2.1096,2.0962,2.0728,2.0428,2.0134,1.9846,1.9579,1.9419,1.9366,1.9366,1.9366,1.9366,1.9366,1.9366,1.9366,1.9366,1.9366,1.9366,1.9366,1.9366,1.8918,1.849,1.849,1.8009,1.7582,1.7582,1.7582,1.7582,1.7582,1.7582,1.7582,1.7582,1.7582,1.7259,1.6499,1.6387,1.5636,1.348,1.262,1.1538,1.0241,1.0135,0.9699,0.8937,0.894,0.894,0.894,0.894,0.894,0.894,0.894,0.894,0.894,0.894,0.894,0.894,0.894,0.8974,0.8971,1.008,1.1176,1.1109,1.1223,1.1269,1.0935,0.0,0.0,0.0,0.0,0.0,0.0,0.0,0.0,0.0,0.0,0.0,0.0,0.0,0.0,0.0,0.0,0.0,0.0,0.0,0.0,0.0,0.0,2.1109,2.1109,2.1109,2.1109,2.1109,2.1109,2.1109,2.1109,2.1109,2.1109,2.1109,2.1109,2.1109,2.1109,2.1109,2.1109,2.1109,0.0,0.0,2.1109,2.1109,2.1109,2.1109,2.1109,2.1109,2.1076,2.0782,2.0488,2.0187,1.9853,1.9573,1.9366,1.9366,1.9366,1.9366,1.9366,1.9366,1.9366,1.9366,1.9366,1.9366,1.9366,1.9366,1.9366,1.9366,1.8918,1.849,1.849,1.8009,1.7582,1.7582,1.7582,1.7582,1.7582,1.7582,1.7582,1.7582,1.7582,1.7477,1.7252,1.7041,1.5962,1.3264,1.2729,1.1647,0.9154,0.894,0.894,0.894,0.894,0.894,0.894,0.894,0.894,0.894,0.894,0.894,0.894,0.894,0.894,0.894,0.896,0.9035,0.9713,1.0982,1.1697,0.994,1.0321,1.0922,0.0,0.0,0.0,0.0,0.0,0.0,0.0,0.0,0.0,0.0,0.0,0.0,0.0,0.0,0.0,0.0,0.0,0.0,0.0,0.0,0.0,0.0,0.0,2.1109,2.1109,2.1109,2.1109,2.1109,2.1109,2.1109,2.1109,2.1109,2.1109,2.1109,2.1109,2.1109,2.1109,2.1109,2.1109,2.1109,0.0,2.1109,2.1109,2.1109,2.1109,2.1109,2.1109,2.1109,2.1076,2.0782,2.0488,2.0154,1.9619,1.9406,1.9366,1.9366,1.9366,1.9366,1.9366,1.9366,1.9366,1.9366,1.9366,1.9366,1.9366,1.9366,1.9366,1.9366,1.8918,1.849,1.849,1.8009,1.7582,1.7582,1.7582,1.7582,1.7582,1.7582,1.7582,1.7582,1.7582,1.7147,1.5849,1.4669,1.3264,1.1647,1.0351,0.9372,0.8937,0.894,0.894,0.894,0.894,0.894,0.894,0.894,0.894,0.894,0.894,0.894,0.894,0.894,0.894,0.8944,0.9062,0.913,0.9299,1.0361,1.1176,1.0381,1.1436,1.2552,0.0,0.0,0.0,0.0,0.0,0.0,0.0,0.0,0.0,0.0,0.0,0.0,0.0,0.0,0.0,0.0,0.0,0.0,0.0,0.0,0.0,0.0,0.0,0.0,2.1109,2.1109,2.1109,2.1109,2.1109,2.1109,2.1109,2.1109,2.1109,2.1109,2.1109,2.1109,2.1109,2.1109,2.1109,2.1109,0.0,2.1109,2.1109,2.1109,2.1109,2.1109,2.1109,2.1009,2.0822,2.0368,2.0013,1.9726,1.9459,1.9366,1.9366,1.9366,1.9366,1.9366,1.9366,1.9366,1.9366,1.9366,1.9366,1.9366,1.9366,1.9366,1.9325,1.9165,1.8798,1.8444,1.829,1.7903,1.7582,1.7582,1.7582,1.7582,1.7582,1.7582,1.7582,1.7582,1.7582,1.7041,1.563,1.4877,1.3588,1.1324,1.0457,0.9805,0.8937,0.894,0.894,0.894,0.894,0.894,0.894,0.894,0.894,0.894,0.894,0.894,0.894,0.894,0.8977,0.9055,0.9123,0.9242,0.9058,0.9873,1.0748,1.1109,0.0,0.0,0.0,0.0,0.0,0.0,0.0,0.0,0.0,0.0,0.0,0.0,0.0,0.0,0.0,0.0,0.0,0.0,0.0,0.0,0.0,0.0,0.0,0.0,0.0,0.0,2.1109,2.1109,2.1109,2.1109,2.1109,2.1109,2.1109,2.1109,2.1109,2.1109,2.1109,2.1109,2.1109,2.1109,2.1109,2.1109,2.1109,2.1109,2.1109,2.1109,2.1069,2.1009,2.1009,2.0788,2.0414,1.9967,1.9619,1.9366,1.9366,1.9366,1.9366,1.9366,1.9366,1.9366,1.9366,1.9366,1.9366,1.9366,1.9366,1.9366,1.9366,1.9319,1.9205,1.8978,1.8651,1.8323,1.8096,1.7802,1.7582,1.7582,1.7582,1.7582,1.7582,1.7582,1.7582,1.7582,1.7259,1.6711,1.5524,1.477,1.3588,1.1324,1.0781,1.0135,0.9047,0.894,0.894,0.894,0.894,0.894,0.894,0.894,0.894,0.894,0.894,0.894,0.894,0.894,0.9011,0.9154,0.9191,0.9351,0.98,1.0481,1.1096,1.1663,0.0,0.0,0.0,0.0,0.0,0.0,0.0,0.0,0.0,0.0,0.0,0.0,0.0,0.0,0.0,0.0,0.0,0.0,0.0,0.0,0.0,0.0,0.0,0.0,0.0,0.0,2.1109,2.1109,2.1109,2.1109,2.1109,2.1109,2.1109,2.1109,2.1109,2.1109,2.1109,2.1109,2.1109,2.1109,2.1109,2.1109,2.1109,2.1109,2.1109,2.1109,2.0949,2.0708,2.0708,2.0361,1.986,1.9813,1.9619,1.9366,1.9366,1.9366,1.9366,1.9366,1.9366,1.9366,1.9366,1.9366,1.9366,1.9366,1.9366,1.9366,1.9366,1.9165,1.8951,1.8925,1.849,1.807,1.805,1.7802,1.7582,1.7582,1.7582,1.7582,1.7582,1.7582,1.7582,1.7582,1.6393,1.5524,1.5417,1.3048,1.1324,1.1105,0.9915,0.9047,0.894,0.894,0.894,0.894,0.894,0.894,0.894,0.894,0.894,0.894,0.894,0.894,0.894,0.894,0.9011,0.9157,0.93,0.9452,0.9212,1.0127,1.1136,1.1724,0.0,0.0,0.0,0.0,0.0,0.0,0.0,0.0,0.0,0.0,0.0,0.0,0.0,0.0,0.0,0.0,0.0,0.0,0.0,0.0,0.0,0.0,0.0,0.0,0.0,0.0,2.1109,2.1109,2.1109,2.1109,2.1109,2.1109,2.1109,2.1109,2.1109,2.1109,2.1109,2.1109,2.1109,2.1109,2.1109,2.1109,2.1109,2.1009,2.0842,2.0842,2.0668,2.0381,2.0201,2.0,1.978,1.9599,1.9459,1.9366,1.9366,1.9366,1.9366,1.9366,1.9366,1.9366,1.9366,1.9366,1.9366,1.9366,1.9232,1.9132,1.9319,1.9145,1.8878,1.8698,1.8343,1.7989,1.7802,1.7662,1.7582,1.7582,1.7582,1.7582,1.7582,1.7582,1.7582,1.7582,1.7147,1.6068,1.4341,1.3156,1.1755,0.9915,0.9265,0.894,0.894,0.894,0.894,0.894,0.894,0.894,0.894,0.894,0.894,0.894,0.894,0.894,0.894,0.894,0.9011,0.9154,0.9211,0.9371,0.9085,1.002,1.1136,0.0,0.0,0.0,0.0,0.0,0.0,0.0,0.0,0.0,0.0,0.0,0.0,0.0,0.0,0.0,0.0,0.0,0.0,0.0,0.0,0.0,0.0,0.0,0.0,0.0,0.0,0.0,0.0,2.1109,2.1069,2.0975,2.0969,2.0929,2.0835,2.0835,2.0835,2.0835,2.0835,2.0882,2.0969,2.0969,2.0922,2.0835,2.0835,2.0722,2.0535,2.0535,2.0361,2.0067,1.978,1.9659,1.9639,1.9439,1.9366,1.9366,1.9366,1.9366,1.9366,1.9366,1.9366,1.9366,1.9366,1.9299,1.9225,1.9225,1.9011,1.8838,1.9038,1.8871,1.8597,1.8397,1.8116,1.7842,1.7629,1.7582,1.7582,1.7582,1.7582,1.7582,1.7582,1.7582,1.7582,1.7582,1.6823,1.553,1.3588,1.2512,1.1105,0.9154,0.894,0.894,0.894,0.894,0.894,0.894,0.894,0.894,0.894,0.894,0.894,0.894,0.894,0.894,0.894,0.894,0.9011,0.9154,0.9154,0.9296,0.9679,1.0327,0.0,0.0,0.0,0.0,0.0,0.0,0.0,0.0,0.0,0.0,0.0,0.0,0.0,0.0,0.0,0.0,0.0,0.0,0.0,0.0,0.0,0.0,0.0,0.0,0.0,0.0,0.0,0.0,0.0,2.1102,2.0969,2.0681,2.0675,2.0535,2.0234,2.0234,2.0234,2.0234,2.0234,2.0388,2.0675,2.0675,2.0508,2.0234,2.0234,2.0234,2.0227,2.0227,2.0054,1.9766,1.9479,1.9366,1.9366,1.9366,1.9366,1.9366,1.9366,1.9366,1.9366,1.9366,1.9366,1.9366,1.9366,1.9158,1.8918,1.8918,1.8711,1.849,1.849,1.8263,1.8043,1.805,1.7809,1.7582,1.7582,1.7582,1.7582,1.7582,1.7582,1.7582,1.7582,1.7582,1.7582,1.7582,1.5097,1.3264,1.3264,1.0672,0.894,0.894,0.894,0.894,0.894,0.894,0.894,0.894,0.894,0.894,0.894,0.894,0.894,0.894,0.894,0.894,0.894,0.894,0.9011,0.915,0.915,0.936,0.9426,0.0,0.0,0.0,0.0,0.0,0.0,0.0,0.0,0.0,0.0,0.0,0.0,0.0,0.0,0.0,0.0,0.0,0.0,0.0,0.0,0.0,0.0,0.0,0.0,0.0,0.0,0.0,0.0,0.0,0.0,2.0494,2.0454,2.0368,2.0368,2.0321,2.0234,2.0234,2.0234,2.0234,2.0234,2.0274,2.0368,2.0368,2.0314,2.0234,2.0234,2.0114,1.9913,1.9713,1.9573,1.9486,1.9399,1.9366,1.9366,1.9366,1.9366,1.9366,1.9366,1.9366,1.9366,1.9366,1.9225,1.9058,1.9058,1.8851,1.8617,1.8617,1.841,1.8183,1.8183,1.7949,1.7776,1.7996,1.7809,1.7582,1.7582,1.7582,1.7582,1.7582,1.7582,1.7582,1.7582,1.7582,1.7259,1.6174,1.531,1.4019,1.1969,1.0135,0.894,0.894,0.894,0.894,0.894,0.894,0.894,0.894,0.894,0.894,0.894,0.894,0.894,0.894,0.894,0.894,0.894,0.894,0.896,0.9001,0.9018,0.911,1.0347,0.0,0.0,0.0,0.0,0.0,0.0,0.0,0.0,0.0,0.0,0.0,0.0,0.0,0.0,0.0,0.0,0.0,0.0,0.0,0.0,0.0,0.0,0.0,0.0,0.0,0.0,0.0,0.0,0.0,0.0,2.0234,2.018,2.006,2.006,2.0007,1.9887,1.9887,1.9887,1.9887,1.9887,1.9887,1.9893,2.0007,2.0,1.9887,1.9887,1.9786,1.9619,1.9439,1.9366,1.9366,1.9366,1.9366,1.9366,1.9366,1.9366,1.9366,1.9366,1.9292,1.9192,1.9192,1.8991,1.8751,1.8751,1.8544,1.831,1.831,1.8096,1.7862,1.7862,1.7722,1.7629,1.7816,1.7716,1.7582,1.7582,1.7582,1.7582,1.7582,1.7582,1.7582,1.7582,1.7147,1.6387,1.5524,1.4449,1.2832,1.0566,0.9482,0.894,0.894,0.894,0.894,0.894,0.894,0.894,0.894,0.894,0.894,0.894,0.894,0.894,0.894,0.894,0.894,0.894,0.894,0.894,0.894,0.8853,0.8335,0.0,0.0,0.0,0.0,0.0,0.0,0.0,0.0,0.0,0.0,0.0,0.0,0.0,0.0,0.0,0.0,0.0,0.0,0.0,0.0,0.0,0.0,0.0,0.0,0.0,0.0,0.0,0.0,0.0,0.0,0.0,2.0154,2.0034,1.9766,1.976,1.9633,1.9372,1.9366,1.9366,1.9366,1.9366,1.9366,1.9372,1.9639,1.9619,1.9366,1.9366,1.9366,1.9366,1.9366,1.9366,1.9366,1.9366,1.9366,1.9366,1.9366,1.9352,1.9325,1.9325,1.9132,1.8885,1.8885,1.8691,1.845,1.845,1.8237,1.8003,1.8003,1.7802,1.7582,1.7582,1.7582,1.7582,1.7582,1.7582,1.7582,1.7582,1.7582,1.7582,1.7582,1.7477,1.7364,1.7364,1.6174,1.5204,1.4984,1.2615,1.046,0.9047,0.894,0.894,0.894,0.894,0.894,0.894,0.894,0.894,0.894,0.894,0.894,0.894,0.894,0.894,0.894,0.894,0.894,0.894,0.894,0.8944,0.8944,0.8856,0.7507,0.0,0.0,0.0,0.0,0.0,0.0,0.0,0.0,0.0,0.0,0.0,0.0,0.0,0.0,0.0,0.0,0.0,0.0,0.0,0.0,0.0,0.0,0.0,0.0,0.0,0.0,0.0,0.0,0.0,0.0,1.9553,1.9553,1.9526,1.9459,1.9459,1.9432,1.9366,1.9366,1.9366,0.0,1.9366,1.9366,1.9372,1.9432,1.9426,1.9366,1.9366,1.9366,1.9366,1.9366,1.9366,1.9366,1.9366,1.9366,1.9366,1.9366,1.9219,1.9018,1.9018,1.8824,1.8584,1.8584,1.8384,1.8143,1.8143,1.7929,1.7682,1.7682,1.7629,1.7582,1.7582,1.7582,1.7582,1.7582,1.7582,1.7582,1.7582,1.7582,1.7582,1.7582,1.6711,1.5849,1.5849,1.4663,1.3372,1.2186,1.0457,0.9265,0.8937,0.894,0.894,0.894,0.894,0.894,0.894,0.894,0.894,0.894,0.894,0.894,0.894,0.894,0.894,0.894,0.894,0.894,0.894,0.8846,0.8856,0.8856,0.8886,0.8559,0.0,0.0,0.0,0.0,0.0,0.0,0.0,0.0,0.0,0.0,0.0,0.0,0.0,0.0,0.0,0.0,0.0,0.0,0.0,0.0,0.0,0.0,0.0,0.0,0.0,0.0,0.0,0.0,0.0,1.9366,1.9366,1.9366,1.9366,1.9366,1.9366,1.9366,1.9366,1.9366,1.9366,1.9366,1.9366,1.9366,1.9366,1.9366,1.9366,1.9366,1.9366,1.9366,1.9366,1.9366,1.9366,1.9366,1.9366,1.9279,1.9158,1.9158,1.8971,1.8718,1.8718,1.8524,1.8277,1.8277,1.8076,1.7822,1.7822,1.7709,1.7582,1.7582,1.7582,1.7582,1.7582,1.7582,1.7582,1.7582,1.7582,1.7582,1.7582,1.7582,1.7582,1.7582,1.6935,1.6493,1.6493,1.4669,1.2512,1.0351,0.9372,0.894,0.894,0.894,0.894,0.894,0.894,0.894,0.894,0.894,0.894,0.894,0.894,0.894,0.894,0.894,0.894,0.894,0.894,0.8944,0.8846,0.8856,0.818,0.6826,0.8214,0.8913,0.0,0.0,0.0,0.0,0.0,0.0,0.0,0.0,0.0,0.0,0.0,0.0,0.0,0.0,0.0,0.0,0.0,0.0,0.0,0.0,0.0,0.0,0.0,0.0,0.0,0.0,0.0,0.0,0.0,1.9219,1.9219,1.9219,1.9219,1.9219,1.9219,1.9219,1.9219,1.9219,1.9219,1.9219,1.9219,1.9219,1.9219,1.9219,1.9272,1.9366,1.9366,1.9339,1.9292,1.9292,1.9259,1.9219,1.9219,1.9065,1.8844,1.8844,1.8664,1.841,1.841,1.8217,1.7969,1.7969,1.7796,1.7582,1.7582,1.7582,1.7582,1.7582,1.747,1.7252,1.7252,1.7041,1.6823,1.6823,1.6823,1.7041,1.7477,1.7582,1.7582,1.7582,1.7147,1.6717,1.6174,1.4126,1.1755,0.9265,0.894,0.894,0.894,0.894,0.894,0.894,0.894,0.894,0.894,0.8944,0.8944,0.8944,0.895,0.895,0.895,0.895,0.895,0.895,0.8947,0.8846,0.8866,0.887,0.7624,0.526,0.674,0.7315,0.0,0.0,0.0,0.0,0.0,0.0,0.0,0.0,0.0,0.0,0.0,0.0,0.0,0.0,0.0,0.0,0.0,0.0,0.0,0.0,0.0,0.0,0.0,0.0,0.0,0.0,0.0,0.0,1.8611,1.8611,1.8611,1.8611,1.8611,1.8611,1.8611,1.8611,1.8611,1.8611,1.8611,1.8611,1.8611,1.8611,1.8611,1.8611,1.8885,1.9366,1.9366,1.9219,1.8985,1.8985,1.8838,1.8611,1.8611,1.8584,1.8551,1.8551,1.8364,1.8103,1.8103,1.7903,1.7642,1.7642,1.7615,1.7582,1.7582,1.7582,1.7582,1.7582,1.6711,1.5743,1.5743,1.4776,1.3911,1.3911,1.3911,1.4561,1.7041,1.7582,1.7582,1.7582,1.553,1.3048,1.0457,0.9699,0.9375,0.8937,0.894,0.894,0.894,0.894,0.894,0.894,0.894,0.894,0.894,0.8846,0.8856,0.8856,0.8876,0.8886,0.8886,0.8886,0.8886,0.8886,0.8866,0.887,0.889,0.89,0.8677,0.8221,0.3363,0.1233,0.0,0.0,0.0,0.0,0.0,0.0,0.0,0.0,0.0,0.0,0.0,0.0,0.0,0.0,0.0,0.0,0.0,0.0,0.0,0.0,0.0,0.0,0.0,0.0,0.0,0.0,0.0,0.0,1.849,1.849,1.849,1.849,1.849,1.849,1.849,1.849,1.849,1.849,1.849,1.849,1.849,1.849,1.849,1.7674,1.7815,1.8878,1.8878,1.8798,1.8684,1.8684,1.8604,1.838,1.7569,1.7129,1.6992,1.6097,1.5597,1.5383,1.5383,1.5302,1.5204,1.5204,1.5204,1.5204,1.5204,1.5204,1.5204,1.5204,1.477,1.4234,1.4234,1.3804,1.348,1.3911,1.3696,1.348,1.4234,1.4776,1.5204,1.5204,1.4126,1.262,1.0457,1.0131,0.9805,0.9047,0.894,0.894,0.894,0.894,0.894,0.894,0.895,0.8846,0.8846,0.8866,0.8193,0.649,0.6383,0.6388,0.6388,0.6388,0.7184,0.8903,0.729,0.7287,0.8907,0.891,0.7201,0.3813,0.1233,0.0,0.0,0.0,0.0,0.0,0.0,0.0,0.0,0.0,0.0,0.0,0.0,0.0,0.0,0.0,0.0,0.0,0.0,0.0,0.0,0.0,0.0,0.0,0.0,0.0,0.0,0.0,0.0,0.0,1.8257,1.8257,1.8257,1.8257,1.8257,1.8257,1.8257,1.8257,1.8257,1.8257,1.8257,1.8263,1.7921,1.7695,1.7695,1.622,1.6115,1.7145,1.7284,1.7302,1.724,1.724,1.7196,1.7023,1.5998,1.5429,1.5155,1.3946,1.3515,1.3264,1.3264,1.3264,1.3264,1.3264,1.3264,1.3264,1.3264,1.3264,1.3264,1.3264,1.3048,1.2724,1.2724,1.2512,1.2403,1.3048,1.2724,1.2186,1.2186,1.2724,1.3156,1.2832,1.2724,1.2295,1.0781,1.0566,1.0131,0.9044,0.894,0.894,0.894,0.8944,0.8947,0.8947,0.8856,0.8641,0.7841,0.8431,0.7982,0.5712,0.425,0.3354,0.3354,0.414,0.5835,0.8808,0.674,0.5947,0.6634,0.6634,0.4375,0.0,0.0,0.0,0.0,0.0,0.0,0.0,0.0,0.0,0.0,0.0,0.0,0.0,0.0,0.0,0.0,0.0,0.0,0.0,0.0,0.0,0.0,0.0,0.0,0.0,0.0,0.0,0.0,0.0,0.0,0.0,1.7629,1.7629,1.7629,1.7629,1.7629,1.7629,1.7629,1.7629,1.7629,1.7629,1.7629,1.7629,1.6217,1.5565,1.5458,1.4056,1.3516,1.365,1.4075,1.4137,1.3945,1.3945,1.3821,1.3516,1.3516,1.3403,1.3393,1.3388,1.3275,1.3264,1.3264,1.3264,1.3264,1.3264,1.3264,1.3264,1.3264,1.3264,1.3264,1.3264,1.2295,1.1214,1.1214,1.0131,0.9154,0.9154,0.9154,0.9915,1.262,1.3264,1.294,1.1538,1.1214,1.0785,0.9265,0.9047,0.8937,0.894,0.894,0.894,0.894,0.8846,0.886,0.886,0.888,0.775,0.492,0.7301,0.8798,0.868,0.3363,0.0224,0.0224,0.303,0.5855,0.8831,0.8716,0.5969,0.0448,0.0448,0.0336,0.0,0.0,0.0,0.0,0.0,0.0,0.0,0.0,0.0,0.0,0.0,0.0,0.0,0.0,0.0,0.0,0.0,0.0,0.0,0.0,0.0,0.0,0.0,0.0,0.0,0.0,0.0,0.0,0.0,0.0,0.0,0.0,1.7582,1.7582,1.7582,1.7582,1.7582,1.7582,1.7582,1.7582,1.7582,1.7147,1.6174,1.563,1.4883,1.4019,1.2512,1.1864,1.1869,1.1138,1.1811,1.349,1.349,1.3335,1.3161,1.2295,1.1864,1.1755,1.0781,1.0457,1.0457,1.0457,1.0457,1.0457,1.0457,1.0457,1.0457,1.0457,1.0457,1.0457,1.0457,1.0131,0.9699,0.9699,0.9265,0.894,0.894,0.894,0.9154,1.0241,1.0457,1.0351,0.9809,0.9699,0.9482,0.8937,0.894,0.894,0.894,0.894,0.8944,0.885,0.8856,0.818,0.6265,0.7753,0.8447,0.7418,0.4823,0.3139,0.3139,0.1233,0.0,0.0,0.1009,0.2132,0.3144,0.3144,0.2132,0.0,0.0,0.0,0.0,0.0,0.0,0.0,0.0,0.0,0.0,0.0,0.0,0.0,0.0,0.0,0.0,0.0,0.0,0.0,0.0,0.0,0.0,0.0,0.0,0.0,0.0,0.0,0.0,0.0,0.0,0.0,0.0,0.0,0.0,0.0,0.0,1.7288,1.7288,1.7288,1.7288,1.7288,1.7335,1.7435,1.7003,1.6299,1.5417,1.4449,1.348,1.2512,1.1,1.0347,1.0351,0.9372,1.0025,1.1864,1.1864,1.1864,1.1755,1.0781,1.0347,1.0241,0.9265,0.894,0.894,0.894,0.894,0.894,0.894,0.894,0.894,0.894,0.894,0.894,0.894,0.894,0.894,0.894,0.894,0.894,0.894,0.894,0.894,0.894,0.894,0.894,0.894,0.894,0.894,0.894,0.894,0.894,0.894,0.894,0.8947,0.886,0.8066,0.7057,0.6051,0.5949,0.5953,0.5953,0.2242,0.0,0.0,0.0,0.0,0.0,0.0,0.0,0.0,0.0,0.0,0.0,0.0,0.0,0.0,0.0,0.0,0.0,0.0,0.0,0.0,0.0,0.0,0.0,0.0,0.0,0.0,0.0,0.0,0.0,0.0,0.0,0.0,0.0,0.0,0.0,0.0,0.0,0.0,0.0,0.0,0.0,0.0,0.0,0.0,1.6707,1.6707,1.6707,1.6707,1.67,1.66,1.66,1.6739,1.7032,1.5658,1.5042,1.518,1.2384,1.1088,1.0979,0.9578,0.8923,0.8923,0.8923,0.8927,0.893,0.8937,0.894,0.894,0.894,0.894,0.894,0.894,0.894,0.894,0.894,0.894,0.894,0.894,0.894,0.894,0.894,0.894,0.894,0.894,0.894,0.894,0.894,0.894,0.894,0.894,0.894,0.894,0.894,0.894,0.894,0.894,0.894,0.894,0.894,0.894,0.894,0.894,0.894,0.8947,0.886,0.6379,0.5712,0.8339,0.3477,0.0,0.0,0.0,0.0,0.0,0.0,0.0,0.0,0.0,0.0,0.0,0.0,0.0,0.0,0.0,0.0,0.0,0.0,0.0,0.7574,0.0,0.0,0.0,0.0,0.0,0.0,0.0,0.0,0.0,0.0,0.0,0.0,0.0,0.0,0.0,0.0,0.0,0.0,0.0,0.0,0.0,0.0,0.0,0.0,0.0,0.0,0.0,1.6707,1.6707,1.6707,1.6707,1.6293,1.5362,1.5362,1.4892,1.4037,1.3626,1.2931,1.1945,1.1216,1.0282,0.9239,0.8817,0.8608,0.8608,0.8608,0.8672,0.8781,0.8893,0.894,0.894,0.894,0.894,0.894,0.894,0.894,0.894,0.894,0.894,0.894,0.894,0.894,0.894,0.894,0.894,0.894,0.894,0.894,0.894,0.894,0.894,0.894,0.894,0.894,0.894,0.894,0.894,0.894,0.894,0.894,0.894,0.894,0.894,0.894,0.894,0.8954,0.886,0.8883,0.8211,0.6289,0.2802,0.1009,0.0,0.0,0.0,0.0,0.0,0.0,0.0,0.0,0.0,0.0,0.0,0.0,0.0,0.0,0.0,0.0,0.0,0.0,0.0,0.0,0.0,0.0,0.0,0.0,0.0,0.0,1.0915,0.0,0.0,0.0,0.0,0.0,0.0,0.0,0.0,0.0,0.0,0.0,0.0,0.0,0.0,0.0,0.0,0.0,1.6239,1.6137,1.5534,1.5534,1.5331,1.4733,1.4733,1.433,1.3624,1.3629,1.3274,1.2674,1.2059,1.1383,1.0642,1.0132,0.9306,0.8482,0.8482,0.8482,0.8482,0.8482,0.8533,0.8621,0.8713,0.8784,0.8835,0.8774,0.8754,0.8764,0.8764,0.8879,0.8889,0.8889,0.8889,0.8889,0.8889,0.8889,0.8889,0.8889,0.8889,0.8889,0.8889,0.8934,0.8889,0.895,0.8856,0.8856,0.8856,0.8856,0.8856,0.8856,0.8856,0.885,0.8944,0.894,0.894,0.894,0.8947,0.8954,0.8954,0.8863,0.8883,0.89,0.891,0.6634,0.0673,0.0,0.0,0.0,0.0,0.0,0.0,0.0,-0.1121,-0.3589,-0.1345,0.0,0.0,0.0,0.0,0.0,0.0,0.0,0.0,0.0,0.0,0.0,0.8804,0.0,0.0,0.0,0.0,1.0494,1.0628,0.0,0.0,0.0,0.0,0.0,0.0,0.0,0.0,0.0,0.0,0.0,0.0,0.0,0.0,0.0,0.0,1.5635,1.5439,1.4854,1.3776,1.3686,1.3199,1.1945,1.1945,1.1853,1.1653,1.1658,1.1747,1.1939,1.0637,1.0112,1.0376,0.9046,0.8431,0.8431,0.8431,0.8431,0.8431,0.8431,0.8442,0.8459,0.8442,0.8537,0.8676,0.854,0.8499,0.852,0.8302,0.821,0.8441,0.8441,0.8441,0.8441,0.8441,0.8441,0.8441,0.8441,0.8441,0.8441,0.8441,0.8431,0.8448,0.8358,0.839,0.839,0.839,0.8402,0.8412,0.8412,0.8425,0.8425,0.8387,0.8719,0.8947,0.8944,0.885,0.8752,0.8409,0.8654,0.89,0.891,0.8339,0.5841,0.0561,0.0,0.0,0.0,-0.0561,-0.1009,-0.1009,-0.0672,-0.2913,-0.8221,-0.3587,-0.0784,-0.0558,-0.0448,-0.0448,-0.0448,-0.0112,0.0,0.0,0.0,-0.0336,0.9628,1.016,1.0441,0.0,0.0,0.0,0.0,0.9733,0.0,0.0,0.0,0.0,0.0,0.0,0.0,0.0,0.0,0.0,0.0,0.0,0.0,0.0,0.0,0.0,1.4262,1.3301,1.2528,1.2334,1.2334,1.2139,1.195,1.1945,1.1458,1.0386,1.0386,0.9916,0.887,0.8574,0.8492,0.8521,0.8223,0.8126,0.8126,0.8126,0.8126,0.8126,0.8126,0.8201,0.8316,0.8201,0.8313,0.8659,0.8628,0.8523,0.822,0.6059,0.5309,0.5312,0.5312,0.5312,0.5312,0.5312,0.5312,0.5312,0.5312,0.5312,0.5312,0.5312,0.5324,0.5343,0.5363,0.5367,0.5367,0.5367,0.5316,0.537,0.537,0.5318,0.5369,0.5363,0.7285,0.8876,0.886,0.8873,0.8088,0.5706,0.7413,0.891,0.8913,0.4713,0.1345,0.0112,0.0,0.0,0.0,-0.4375,-0.7201,-0.7201,-0.4929,-0.4137,-0.526,-0.6507,-0.6054,-0.3687,-0.3576,-0.3578,-0.3578,-0.1232,0.0,0.0,0.0,-0.2578,0.0,0.0,1.0922,1.0628,0.0,0.0,0.0,0.0,0.9405,0.0,0.0,0.0,0.0,0.0,0.0,0.0,0.0,0.0,0.0,0.0,0.0,0.0,0.0,0.0,1.2813,1.2156,1.1535,1.0965,1.0288,0.9998,0.9998,0.9998,0.9706,0.9019,0.9019,0.8726,0.8038,0.8038,0.8038,0.8038,0.8038,0.8038,0.8038,0.8038,0.8045,0.7955,0.7955,0.8009,0.8079,0.657,0.6931,0.8217,0.6833,0.7053,0.8127,0.6752,0.456,0.2277,0.2277,0.2277,0.2277,0.2277,0.2277,0.2277,0.2277,0.2277,0.2281,0.2302,0.2308,0.2208,0.2227,0.2233,0.2233,0.2233,0.2248,0.2262,0.2262,0.3474,0.4482,0.4477,0.6909,0.8404,0.6924,0.7976,0.8444,0.6961,0.5386,0.4487,0.4487,0.1905,0.0,0.0,-0.269,-0.4487,-0.4487,-0.5835,-0.7304,-0.8788,-0.7524,-0.6723,-0.6715,-0.8088,-0.8208,-0.6728,-0.6728,-0.6728,-0.6728,-0.5156,-0.3696,-0.2238,-0.2238,-0.3805,0.0,0.0,0.0,0.0,0.0,1.0811,0.0,0.0,0.0,0.8803,0.0,0.0,0.0,0.0,0.0,0.0,0.0,0.0,0.0,0.0,0.0,0.0,0.0,0.0,0.0,1.0915,1.0453,0.9583,0.8452,0.7875,0.7991,0.7994,0.8011,0.8038,0.8038,0.8038,0.8038,0.8038,0.8038,0.8038,0.8038,0.8041,0.8045,0.8045,0.7955,0.7975,0.7463,0.7569,0.7792,0.5641,0.6057,0.7821,0.5646,0.5448,0.6483,0.6483,0.3739,0.0,0.0,0.0,0.0,0.0,0.0,0.0,0.0,0.0,0.0,0.0,0.0,0.0,0.0,0.0,0.0,0.0,0.0,0.0,0.0,0.1916,0.3632,0.3623,0.5563,0.6816,0.5524,0.6354,0.7171,0.7171,0.3134,0.0,0.0,-0.0893,-0.156,-0.1555,-0.5462,-0.8282,-0.8823,-0.6682,-0.6349,-0.8729,-0.8843,-0.8843,-0.8856,-0.8873,-0.8883,-0.8883,-0.8883,-0.8883,-0.8883,-0.8883,-0.763,-0.5371,-0.5371,-0.5369,0.0,0.0,0.0,0.0,1.1751,0.0,0.0,0.0,0.8229,0.7522,0.0,0.0,0.0,0.0,0.0,0.0,0.0,0.0,0.0,0.0,0.0,0.0,0.0,0.0,0.0,0.8229,0.7553,0.7806,0.7368,0.7282,0.7807,0.7838,0.7899,0.8035,0.8038,0.8038,0.8038,0.8038,0.8038,0.8038,0.8038,0.8048,0.7969,0.7969,0.7975,0.7885,0.5532,0.5847,0.8019,0.7711,0.7724,0.7948,0.7617,0.4851,0.0909,0.0909,0.0505,0.0,0.0,0.0,0.0,0.0,0.0,0.0,0.0,0.0,0.0,0.0,0.0,0.0,0.0,0.0,0.0,0.0,0.0,0.0,0.0,0.0317,0.0533,0.0533,0.0747,0.2564,0.7535,0.4241,0.0988,0.0988,0.0445,0.0,0.0,-0.4174,-0.7119,-0.7116,-0.5868,-0.5985,-0.8395,-0.8268,-0.8327,-0.8662,-0.8645,-0.8804,-0.8937,-0.8947,-0.8947,-0.8947,-0.8947,-0.8947,-0.8947,-0.8947,-0.8742,-0.8434,-0.8434,-0.8425,0.0,0.0,0.0,0.0,0.0,0.0,0.8821,0.0,0.7223,0.0,0.0,0.0,0.0,0.0,0.0,0.0,0.0,0.0,0.0,0.0,0.0,0.0,0.0,0.0,0.0,0.0,0.0,0.0,0.6953,0.698,0.74,0.759,0.7756,0.7902,0.7994,0.8038,0.8038,0.8038,0.8045,0.7959,0.7959,0.7969,0.7982,0.6345,0.6556,0.7908,0.6776,0.5151,0.3638,0.6701,0.6191,0.3034,-0.0101,-0.0806,-0.0404,-0.3536,-0.4649,-0.4446,-0.2819,-0.2314,-0.2314,-0.2314,-0.2314,-0.2314,-0.2314,-0.2314,-0.2314,-0.2314,-0.2314,-0.2314,-0.2314,-0.1208,0.0,0.0,0.0,0.0,0.0,0.0,0.0,0.0,0.0,0.0827,0.3309,0.1694,0.0,0.0,-0.2604,-0.4676,-0.4645,-0.5281,-0.6234,-0.7809,-0.7183,-0.718,-0.8319,-0.8461,-0.8591,-0.8591,-0.8665,-0.8777,-0.893,-0.894,-0.894,-0.894,-0.894,-0.894,-0.894,-0.894,-0.895,-0.8856,-0.8856,-0.8853,1.1778,0.0,0.0,0.0,0.0,0.0,0.0,0.0,0.0,0.0,0.0,0.0,0.0,0.0,0.0,0.0,0.0,0.0,0.0,0.0,0.0,0.0,0.0,0.0,0.0,0.0,0.0,0.0,0.0,0.6552,0.7054,0.7295,0.7536,0.7801,0.7919,0.7997,0.8038,0.8045,0.7955,0.7972,0.7256,0.7266,0.7895,0.5949,0.5347,0.577,0.577,0.3636,0.0202,0.2626,0.1312,-0.2523,-0.566,-0.4947,-0.2622,-0.5761,-0.7397,-0.7704,-0.5741,-0.5129,-0.5129,-0.5129,-0.5129,-0.5129,-0.5129,-0.5129,-0.5129,-0.5129,-0.5129,-0.5129,-0.5129,-0.3618,-0.2011,-0.1307,-0.1107,-0.1109,-0.1109,-0.0504,-0.0202,-0.0907,-0.1715,-0.1917,-0.121,-0.1658,-0.2223,-0.2223,-0.4892,-0.7149,-0.7871,-0.6343,-0.5791,-0.7783,-0.8219,-0.8324,-0.8176,-0.8408,-0.8425,-0.8425,-0.8564,-0.8716,-0.8869,-0.8876,-0.8896,-0.894,-0.894,-0.894,-0.894,-0.894,-0.894,-0.894,-0.894,-0.894,0.0,0.0,0.0,0.9504,0.0,0.0,0.0,0.0,0.5603,0.0,0.0,0.0,0.0,0.0,0.0,0.0,0.0,0.0,0.0,0.0,0.0,0.0,0.0,0.0,0.0,0.0,0.0,0.0,0.0,0.0,0.6881,0.6946,0.7214,0.7794,0.7818,0.7889,0.8038,0.7962,0.7972,0.7972,0.5329,0.5441,0.8022,0.7918,0.5056,0.0303,0.0303,0.0202,-0.0404,-0.5464,-0.7613,-0.7507,-0.5033,-0.5636,-0.7475,-0.5029,-0.5739,-0.7992,-0.7889,-0.7885,-0.7885,-0.7885,-0.7885,-0.7885,-0.7885,-0.7885,-0.7885,-0.7885,-0.7885,-0.7885,-0.7885,-0.7785,-0.7065,-0.4522,-0.3915,-0.3915,-0.3915,-0.1808,-0.0804,-0.3413,-0.5957,-0.6885,-0.4321,-0.6052,-0.7729,-0.7729,-0.5686,-0.5065,-0.7711,-0.7898,-0.7939,-0.8002,-0.8201,-0.8218,-0.8069,-0.8191,-0.8279,-0.8279,-0.8411,-0.8557,-0.8713,-0.8716,-0.8788,-0.8933,-0.894,-0.894,-0.894,-0.894,-0.894,-0.894,-0.894,-0.894,0.0,0.0,0.9828,0.8873,0.0,0.0,0.0,0.0,0.0,0.0,0.0,0.0,0.0,0.0,0.0,0.0,0.0,0.0,0.0,0.0,0.0,0.0,0.0,0.0,0.0,0.0,0.0,0.0,0.5389,0.0,0.0,0.6712,0.7112,0.7506,0.7627,0.7808,0.7959,0.7975,0.7992,0.8006,0.7083,0.5253,0.2726,0.2726,0.1716,-0.0202,-0.3739,-0.526,-0.526,-0.5345,-0.6358,-0.7899,-0.6959,-0.7156,-0.7875,-0.6954,-0.7256,-0.7975,-0.7962,-0.7955,-0.7955,-0.7955,-0.7955,-0.7955,-0.7955,-0.7955,-0.7955,-0.7955,-0.7955,-0.7955,-0.7955,-0.7969,-0.7772,-0.6851,-0.6651,-0.6656,-0.6656,-0.5947,-0.5033,-0.4117,-0.615,-0.7691,-0.6759,-0.7412,-0.7968,-0.7975,-0.7271,-0.6966,-0.7854,-0.8039,-0.8006,-0.7955,-0.8092,-0.8096,-0.8045,-0.8089,-0.8163,-0.8265,-0.8316,-0.8408,-0.8554,-0.856,-0.8632,-0.8784,-0.8788,-0.8835,-0.894,-0.9915,-1.0347,-1.0351,-1.1324,-1.0781,0.9366,0.9206,0.0,0.8048,0.7278,0.0,0.5688,0.0,0.0,0.0,0.0,0.0,0.0,0.0,0.0,0.0,0.486,0.0,0.0,0.0,0.0,0.0,0.0,0.0,0.0,0.0,0.4762,0.4958,0.5067,0.0,0.0,0.0,0.6796,0.7288,0.7513,0.7349,0.6583,0.7556,0.8009,0.8022,0.6075,0.3334,-0.0101,-0.2019,-0.2827,-0.3029,-0.5454,-0.7086,-0.7905,-0.6145,-0.6445,-0.7982,-0.7965,-0.7962,-0.7962,-0.7962,-0.7962,-0.7959,-0.8045,-0.8038,-0.8038,-0.8038,-0.8038,-0.8038,-0.8038,-0.8038,-0.8038,-0.8038,-0.8038,-0.8038,-0.8038,-0.8048,-0.7962,-0.7962,-0.7965,-0.7972,-0.7972,-0.7979,-0.7469,-0.5724,-0.6848,-0.7982,-0.7972,-0.7965,-0.7965,-0.7982,-0.7972,-0.7962,-0.7962,-0.8048,-0.8038,-0.8038,-0.8038,-0.8038,-0.8038,-0.8038,-0.8279,-0.8881,-0.8888,-0.9158,-0.9828,-0.9832,-0.992,-0.9993,-0.9997,-1.0083,-1.0256,-1.122,-1.1797,-1.1864,-1.2832,-1.2295]}]]